Behrens, Klaus (2016): Radiosonde measurements from station Lindenberg (2008-01) [dataset]. Meteorologisches Observatorium Potsdam, PANGAEA, https://doi.org/10.1594/PANGAEA.869209
Always quote citation above when using data! You can download the citation in several formats below.
Published: 2016-12-08 • DOI registered: 2017-01-05
Other version:
Behrens, Klaus (2016): BSRN Station-to-archive file for station Lindenberg (2008-01) [dataset]. ftp://ftp.bsrn.awi.de/lin/lin0108.dat.gz
Project(s):
Coverage:
Latitude: 52.210000 * Longitude: 14.122000
Date/Time Start: 2008-01-01T00:00:00 * Date/Time End: 2008-01-31T18:00:00
Minimum ALTITUDE: 112 m * Maximum ALTITUDE: 37649 m
Event(s):
LIN (Lindenberg) * Latitude: 52.210000 * Longitude: 14.122000 * Date/Time: 1994-09-01T00:00:00 * Elevation: 125.0 m * Location: Germany * Method/Device: Monitoring station (MONS) * Comment: BSRN station no: 12; Surface type: cultivated; Topography type: hilly, rural; Horizon: doi:10.1594/PANGAEA.669521; Station scientist: Stefan Wacker (Stefan.Wacker@dwd.de)
Parameter(s):
| # | Name | Short Name | Unit | Principal Investigator | Method/Device | Comment |
|---|---|---|---|---|---|---|
| 1 | DATE/TIME | Date/Time | Behrens, Klaus | Geocode | ||
| 2 | ALTITUDE | Altitude | m | Behrens, Klaus | Geocode | |
| 3 | Pressure, at given altitude | PPPP | hPa | Behrens, Klaus | Radiosonde, Vaisala, RS92 | |
| 4 | Temperature, air | TTT | °C | Behrens, Klaus | Radiosonde, Vaisala, RS92 | |
| 5 | Dew/frost point | TdTdTd | °C | Behrens, Klaus | Radiosonde, Vaisala, RS92 | |
| 6 | Wind direction | dd | deg | Behrens, Klaus | Radiosonde, Vaisala, RS92 | |
| 7 | Wind speed | ff | m/s | Behrens, Klaus | Radiosonde, Vaisala, RS92 | |
| 8 | Ozone, partial pressure | pO3 | mPa | Behrens, Klaus | Radiosonde, Vaisala, RS92 |
License:
Size:
723603 data points
Data
| 1 Date/Time | 2 Altitude [m] | 3 PPPP [hPa] | 4 TTT [°C] | 5 TdTdTd [°C] | 6 dd [deg] | 7 ff [m/s] | 8 pO3 [mPa] |
|---|---|---|---|---|---|---|---|
| 2008-01-01T00:00 | 112 | 1011 | 0.9 | 0.2 | 280 | 4 | |
| 2008-01-01T00:00 | 138 | 1008 | 0.5 | 0.2 | 278 | 4 | |
| 2008-01-01T00:00 | 164 | 1005 | 0.2 | 0.2 | 277 | 5 | |
| 2008-01-01T00:00 | 194 | 1001 | 0.1 | 0.1 | 278 | 6 | |
| 2008-01-01T00:00 | 225 | 997 | -0.2 | -0.2 | 280 | 6 | |
| 2008-01-01T00:00 | 253 | 994 | -0.4 | -0.4 | 284 | 7 | |
| 2008-01-01T00:00 | 281 | 990 | -0.6 | -0.6 | 289 | 7 | |
| 2008-01-01T00:00 | 308 | 987 | -0.8 | -0.8 | 293 | 8 | |
| 2008-01-01T00:00 | 331 | 984 | -0.9 | -0.9 | 297 | 8 | |
| 2008-01-01T00:00 | 356 | 981 | -1.0 | -1.0 | 301 | 8 | |
| 2008-01-01T00:00 | 385 | 977 | -1.2 | -1.2 | 305 | 8 | |
| 2008-01-01T00:00 | 409 | 974 | -1.4 | -1.4 | 309 | 8 | |
| 2008-01-01T00:00 | 433 | 971 | -1.4 | -1.4 | 312 | 9 | |
| 2008-01-01T00:00 | 460 | 968 | -1.3 | -1.3 | 315 | 9 | |
| 2008-01-01T00:00 | 484 | 965 | -1.4 | -1.4 | 315 | 9 | |
| 2008-01-01T00:00 | 508 | 962 | -0.9 | -0.9 | 314 | 10 | |
| 2008-01-01T00:00 | 534 | 959 | -1.1 | -1.3 | 312 | 10 | |
| 2008-01-01T00:00 | 556 | 957 | -1.1 | -3.3 | 310 | 10 | |
| 2008-01-01T00:00 | 580 | 954 | -1.2 | -5.4 | 308 | 10 | |
| 2008-01-01T00:00 | 603 | 951 | -0.8 | -7.4 | 306 | 9 | |
| 2008-01-01T00:00 | 628 | 948 | -0.4 | -7.5 | 306 | 9 | |
| 2008-01-01T00:00 | 654 | 945 | 0.0 | -7.7 | 305 | 9 | |
| 2008-01-01T00:00 | 680 | 942 | 0.0 | -7.5 | 306 | 9 | |
| 2008-01-01T00:00 | 707 | 939 | -0.1 | -7.4 | 306 | 9 | |
| 2008-01-01T00:00 | 738 | 935 | -0.2 | -8.1 | 307 | 10 | |
| 2008-01-01T00:00 | 768 | 932 | -0.3 | -8.7 | 309 | 10 | |
| 2008-01-01T00:00 | 798 | 928 | -0.6 | -8.5 | 311 | 10 | |
| 2008-01-01T00:00 | 827 | 925 | -0.8 | -8.5 | 312 | 10 | |
| 2008-01-01T00:00 | 854 | 922 | -1.1 | -9.0 | 313 | 10 | |
| 2008-01-01T00:00 | 884 | 918 | -1.3 | -8.9 | 314 | 10 | |
| 2008-01-01T00:00 | 915 | 915 | -1.6 | -9.0 | 315 | 10 | |
| 2008-01-01T00:00 | 941 | 912 | -1.9 | -9.1 | 316 | 11 | |
| 2008-01-01T00:00 | 966 | 909 | -2.1 | -9.3 | 318 | 11 | |
| 2008-01-01T00:00 | 989 | 906 | -2.3 | -9.3 | 318 | 11 | |
| 2008-01-01T00:00 | 1010 | 904 | -2.5 | -9.4 | 318 | 11 | |
| 2008-01-01T00:00 | 1039 | 900 | -2.8 | -9.5 | 317 | 11 | |
| 2008-01-01T00:00 | 1066 | 897 | -3.1 | -9.8 | 315 | 11 | |
| 2008-01-01T00:00 | 1089 | 895 | -3.3 | -9.8 | 313 | 11 | |
| 2008-01-01T00:00 | 1112 | 892 | -3.5 | -10.0 | 311 | 11 | |
| 2008-01-01T00:00 | 1141 | 889 | -3.8 | -10.5 | 311 | 11 | |
| 2008-01-01T00:00 | 1171 | 886 | -4.0 | -10.7 | 312 | 11 | |
| 2008-01-01T00:00 | 1202 | 882 | -4.3 | -10.6 | 313 | 11 | |
| 2008-01-01T00:00 | 1232 | 879 | -4.5 | -10.8 | 313 | 11 | |
| 2008-01-01T00:00 | 1261 | 875 | -4.8 | -10.8 | 314 | 11 | |
| 2008-01-01T00:00 | 1291 | 872 | -5.0 | -10.8 | 314 | 11 | |
| 2008-01-01T00:00 | 1316 | 869 | -5.2 | -10.9 | 315 | 11 | |
| 2008-01-01T00:00 | 1346 | 866 | -5.5 | -11.1 | 316 | 11 | |
| 2008-01-01T00:00 | 1375 | 863 | -5.8 | -11.2 | 317 | 11 | |
| 2008-01-01T00:00 | 1405 | 859 | -5.9 | -11.3 | 319 | 11 | |
| 2008-01-01T00:00 | 1430 | 857 | -6.1 | -11.4 | 321 | 11 | |
| 2008-01-01T00:00 | 1455 | 854 | -6.3 | -11.4 | 322 | 11 | |
| 2008-01-01T00:00 | 1481 | 851 | -6.6 | -11.5 | 322 | 11 | |
| 2008-01-01T00:00 | 1508 | 848 | -6.8 | -11.5 | 322 | 11 | |
| 2008-01-01T00:00 | 1533 | 845 | -7.0 | -11.5 | 322 | 10 | |
| 2008-01-01T00:00 | 1561 | 843 | -7.3 | -11.7 | 321 | 10 | |
| 2008-01-01T00:00 | 1586 | 840 | -7.5 | -11.5 | 320 | 10 | |
| 2008-01-01T00:00 | 1610 | 837 | -7.8 | -11.7 | 319 | 10 | |
| 2008-01-01T00:00 | 1637 | 834 | -8.0 | -11.6 | 318 | 11 | |
| 2008-01-01T00:00 | 1664 | 831 | -8.2 | -11.6 | 317 | 11 | |
| 2008-01-01T00:00 | 1690 | 829 | -8.4 | -11.8 | 316 | 11 | |
| 2008-01-01T00:00 | 1715 | 826 | -8.6 | -12.0 | 315 | 11 | |
| 2008-01-01T00:00 | 1739 | 823 | -8.8 | -12.0 | 315 | 11 | |
| 2008-01-01T00:00 | 1769 | 820 | -9.1 | -12.2 | 315 | 12 | |
| 2008-01-01T00:00 | 1799 | 817 | -9.4 | -12.3 | 315 | 12 | |
| 2008-01-01T00:00 | 1829 | 814 | -9.8 | -12.6 | 316 | 12 | |
| 2008-01-01T00:00 | 1857 | 811 | -9.9 | -12.5 | 316 | 12 | |
| 2008-01-01T00:00 | 1881 | 808 | -10.1 | -12.5 | 315 | 12 | |
| 2008-01-01T00:00 | 1907 | 806 | -10.3 | -12.5 | 314 | 12 | |
| 2008-01-01T00:00 | 1930 | 803 | -10.6 | -12.4 | 312 | 12 | |
| 2008-01-01T00:00 | 1957 | 800 | -10.8 | -12.6 | 311 | 12 | |
| 2008-01-01T00:00 | 1989 | 797 | -11.0 | -12.9 | 310 | 12 | |
| 2008-01-01T00:00 | 2014 | 795 | -11.1 | -13.0 | 310 | 12 | |
| 2008-01-01T00:00 | 2037 | 792 | -11.2 | -13.4 | 310 | 13 | |
| 2008-01-01T00:00 | 2065 | 789 | -11.5 | -13.6 | 312 | 13 | |
| 2008-01-01T00:00 | 2091 | 787 | -11.8 | -13.6 | 314 | 13 | |
| 2008-01-01T00:00 | 2121 | 783 | -11.9 | -13.3 | 316 | 13 | |
| 2008-01-01T00:00 | 2153 | 780 | -12.2 | -13.1 | 319 | 13 | |
| 2008-01-01T00:00 | 2186 | 777 | -12.5 | -13.2 | 321 | 13 | |
| 2008-01-01T00:00 | 2217 | 774 | -12.6 | -12.6 | 322 | 13 | |
| 2008-01-01T00:00 | 2241 | 771 | -12.6 | -12.6 | 322 | 13 | |
| 2008-01-01T00:00 | 2268 | 769 | -12.8 | -12.8 | 321 | 13 | |
| 2008-01-01T00:00 | 2297 | 766 | -13.0 | -13.2 | 321 | 13 | |
| 2008-01-01T00:00 | 2322 | 763 | -13.2 | -13.4 | 320 | 13 | |
| 2008-01-01T00:00 | 2348 | 761 | -13.5 | -13.5 | 320 | 13 | |
| 2008-01-01T00:00 | 2372 | 758 | -13.8 | -13.8 | 321 | 13 | |
| 2008-01-01T00:00 | 2398 | 756 | -13.9 | -13.9 | 321 | 13 | |
| 2008-01-01T00:00 | 2422 | 753 | -14.1 | -14.1 | 322 | 13 | |
| 2008-01-01T00:00 | 2447 | 751 | -14.3 | -14.3 | 323 | 13 | |
| 2008-01-01T00:00 | 2472 | 748 | -14.6 | -14.6 | 325 | 13 | |
| 2008-01-01T00:00 | 2499 | 746 | -14.8 | -14.9 | 326 | 13 | |
| 2008-01-01T00:00 | 2526 | 743 | -14.8 | -15.2 | 328 | 13 | |
| 2008-01-01T00:00 | 2553 | 740 | -15.0 | -15.6 | 329 | 13 | |
| 2008-01-01T00:00 | 2578 | 738 | -15.3 | -15.9 | 329 | 13 | |
| 2008-01-01T00:00 | 2604 | 735 | -15.5 | -15.9 | 328 | 12 | |
| 2008-01-01T00:00 | 2626 | 733 | -15.6 | -16.3 | 327 | 12 | |
| 2008-01-01T00:00 | 2648 | 731 | -15.8 | -16.5 | 327 | 12 | |
| 2008-01-01T00:00 | 2672 | 729 | -16.0 | -16.7 | 327 | 12 | |
| 2008-01-01T00:00 | 2693 | 727 | -16.2 | -16.6 | 327 | 12 | |
| 2008-01-01T00:00 | 2716 | 724 | -16.4 | -16.8 | 328 | 12 | |
| 2008-01-01T00:00 | 2747 | 721 | -16.8 | -17.5 | 328 | 12 | |
| 2008-01-01T00:00 | 2767 | 720 | -16.8 | -17.4 | 327 | 12 | |
| 2008-01-01T00:00 | 2795 | 717 | -17.1 | -17.5 | 327 | 11 | |
| 2008-01-01T00:00 | 2824 | 714 | -17.3 | -17.7 | 326 | 11 | |
| 2008-01-01T00:00 | 2848 | 712 | -17.6 | -17.9 | 326 | 11 | |
| 2008-01-01T00:00 | 2875 | 709 | -17.8 | -18.0 | 327 | 11 | |
| 2008-01-01T00:00 | 2899 | 707 | -18.0 | -18.2 | 327 | 10 | |
| 2008-01-01T00:00 | 2922 | 705 | -18.2 | -18.3 | 327 | 10 | |
| 2008-01-01T00:00 | 2947 | 702 | -18.4 | -18.4 | 326 | 11 | |
| 2008-01-01T00:00 | 2972 | 700 | -18.5 | -18.5 | 326 | 11 | |
| 2008-01-01T00:00 | 3001 | 697 | -18.8 | -18.8 | 325 | 11 | |
| 2008-01-01T00:00 | 3028 | 695 | -18.9 | -18.9 | 325 | 11 | |
| 2008-01-01T00:00 | 3059 | 692 | -19.2 | -19.2 | 326 | 11 | |
| 2008-01-01T00:00 | 3089 | 689 | -19.4 | -19.4 | 327 | 11 | |
| 2008-01-01T00:00 | 3117 | 687 | -19.6 | -19.6 | 327 | 11 | |
| 2008-01-01T00:00 | 3142 | 684 | -19.8 | -19.8 | 326 | 11 | |
| 2008-01-01T00:00 | 3170 | 682 | -20.0 | -20.0 | 324 | 11 | |
| 2008-01-01T00:00 | 3197 | 679 | -20.2 | -20.2 | 321 | 11 | |
| 2008-01-01T00:00 | 3228 | 676 | -20.4 | -20.4 | 319 | 11 | |
| 2008-01-01T00:00 | 3258 | 674 | -20.6 | -20.6 | 316 | 11 | |
| 2008-01-01T00:00 | 3289 | 671 | -20.7 | -20.7 | 314 | 11 | |
| 2008-01-01T00:00 | 3317 | 668 | -21.0 | -21.0 | 313 | 11 | |
| 2008-01-01T00:00 | 3344 | 666 | -21.2 | -21.2 | 312 | 11 | |
| 2008-01-01T00:00 | 3371 | 663 | -21.3 | -21.3 | 312 | 11 | |
| 2008-01-01T00:00 | 3400 | 661 | -21.4 | -21.4 | 312 | 11 | |
| 2008-01-01T00:00 | 3430 | 658 | -21.7 | -21.7 | 313 | 11 | |
| 2008-01-01T00:00 | 3462 | 655 | -21.9 | -22.0 | 313 | 11 | |
| 2008-01-01T00:00 | 3493 | 653 | -22.1 | -22.1 | 313 | 11 | |
| 2008-01-01T00:00 | 3524 | 650 | -22.4 | -22.5 | 313 | 11 | |
| 2008-01-01T00:00 | 3554 | 647 | -22.7 | -22.9 | 314 | 10 | |
| 2008-01-01T00:00 | 3581 | 645 | -23.0 | -23.3 | 314 | 10 | |
| 2008-01-01T00:00 | 3609 | 642 | -23.2 | -23.5 | 316 | 10 | |
| 2008-01-01T00:00 | 3637 | 640 | -23.1 | -24.2 | 318 | 9 | |
| 2008-01-01T00:00 | 3666 | 637 | -23.3 | -24.7 | 320 | 9 | |
| 2008-01-01T00:00 | 3692 | 635 | -23.5 | -25.4 | 322 | 8 | |
| 2008-01-01T00:00 | 3720 | 633 | -23.7 | -25.8 | 325 | 8 | |
| 2008-01-01T00:00 | 3748 | 630 | -23.8 | -26.2 | 326 | 8 | |
| 2008-01-01T00:00 | 3776 | 628 | -24.1 | -26.7 | 328 | 8 | |
| 2008-01-01T00:00 | 3804 | 625 | -24.3 | -29.0 | 330 | 8 | |
| 2008-01-01T00:00 | 3831 | 623 | -24.5 | -29.5 | 331 | 8 | |
| 2008-01-01T00:00 | 3861 | 621 | -24.8 | -29.7 | 333 | 9 | |
| 2008-01-01T00:00 | 3888 | 618 | -25.0 | -30.2 | 334 | 9 | |
| 2008-01-01T00:00 | 3914 | 616 | -25.2 | -30.2 | 335 | 9 | |
| 2008-01-01T00:00 | 3939 | 614 | -25.4 | -30.4 | 335 | 10 | |
| 2008-01-01T00:00 | 3967 | 612 | -25.7 | -30.7 | 335 | 10 | |
| 2008-01-01T00:00 | 3995 | 609 | -25.9 | -30.4 | 335 | 10 | |
| 2008-01-01T00:00 | 4023 | 607 | -26.1 | -30.6 | 335 | 10 | |
| 2008-01-01T00:00 | 4048 | 605 | -26.3 | -31.1 | 335 | 11 | |
| 2008-01-01T00:00 | 4078 | 602 | -26.6 | -31.6 | 336 | 11 | |
| 2008-01-01T00:00 | 4102 | 600 | -26.8 | -31.6 | 336 | 11 | |
| 2008-01-01T00:00 | 4127 | 598 | -27.0 | -31.9 | 336 | 11 | |
| 2008-01-01T00:00 | 4150 | 596 | -27.1 | -32.5 | 336 | 11 | |
| 2008-01-01T00:00 | 4175 | 594 | -27.3 | -33.2 | 337 | 11 | |
| 2008-01-01T00:00 | 4199 | 592 | -27.5 | -33.6 | 338 | 11 | |
| 2008-01-01T00:00 | 4226 | 590 | -27.8 | -33.9 | 340 | 11 | |
| 2008-01-01T00:00 | 4251 | 588 | -28.0 | -33.9 | 342 | 11 | |
| 2008-01-01T00:00 | 4277 | 586 | -28.2 | -34.4 | 344 | 11 | |
| 2008-01-01T00:00 | 4305 | 584 | -28.3 | -35.4 | 347 | 11 | |
| 2008-01-01T00:00 | 4334 | 581 | -28.5 | -36.4 | 349 | 11 | |
| 2008-01-01T00:00 | 4360 | 579 | -28.6 | -37.2 | 350 | 10 | |
| 2008-01-01T00:00 | 4382 | 577 | -28.8 | -37.8 | 351 | 10 | |
| 2008-01-01T00:00 | 4405 | 575 | -29.0 | -38.0 | 351 | 10 | |
| 2008-01-01T00:00 | 4429 | 573 | -29.2 | -38.0 | 351 | 10 | |
| 2008-01-01T00:00 | 4452 | 572 | -29.3 | -38.3 | 350 | 10 | |
| 2008-01-01T00:00 | 4475 | 570 | -29.5 | -38.0 | 350 | 10 | |
| 2008-01-01T00:00 | 4500 | 568 | -29.8 | -38.1 | 350 | 10 | |
| 2008-01-01T00:00 | 4533 | 565 | -30.0 | -38.3 | 350 | 10 | |
| 2008-01-01T00:00 | 4562 | 563 | -30.3 | -38.1 | 351 | 9 | |
| 2008-01-01T00:00 | 4588 | 561 | -30.5 | -38.1 | 352 | 9 | |
| 2008-01-01T00:00 | 4619 | 558 | -30.7 | -38.5 | 354 | 9 | |
| 2008-01-01T00:00 | 4650 | 556 | -31.0 | -39.0 | 355 | 8 | |
| 2008-01-01T00:00 | 4673 | 554 | -31.2 | -39.4 | 356 | 8 | |
| 2008-01-01T00:00 | 4696 | 552 | -31.4 | -39.8 | 355 | 8 | |
| 2008-01-01T00:00 | 4727 | 550 | -31.7 | -39.7 | 354 | 7 | |
| 2008-01-01T00:00 | 4759 | 547 | -32.0 | -39.7 | 353 | 7 | |
| 2008-01-01T00:00 | 4782 | 546 | -32.2 | -39.9 | 352 | 6 | |
| 2008-01-01T00:00 | 4816 | 543 | -32.4 | -41.0 | 350 | 6 | |
| 2008-01-01T00:00 | 4845 | 541 | -32.7 | 348 | 6 | ||
| 2008-01-01T00:00 | 4875 | 538 | -32.9 | -43.7 | 346 | 6 | |
| 2008-01-01T00:00 | 4909 | 536 | -33.2 | -44.3 | 343 | 6 | |
| 2008-01-01T00:00 | 4943 | 533 | -33.4 | -45.0 | 342 | 6 | |
| 2008-01-01T00:00 | 4976 | 531 | -33.7 | -45.3 | 341 | 6 | |
| 2008-01-01T00:00 | 5005 | 529 | -33.8 | -45.7 | 341 | 7 | |
| 2008-01-01T00:00 | 5032 | 527 | -33.9 | -45.8 | 341 | 7 | |
| 2008-01-01T00:00 | 5059 | 525 | -34.1 | -46.3 | 342 | 7 | |
| 2008-01-01T00:00 | 5087 | 522 | -34.3 | -46.2 | 343 | 8 | |
| 2008-01-01T00:00 | 5115 | 520 | -34.5 | -46.0 | 344 | 8 | |
| 2008-01-01T00:00 | 5143 | 518 | -34.8 | -46.6 | 345 | 8 | |
| 2008-01-01T00:00 | 5168 | 516 | -35.0 | -46.8 | 345 | 9 | |
| 2008-01-01T00:00 | 5194 | 515 | -35.2 | -47.0 | 344 | 9 | |
| 2008-01-01T00:00 | 5219 | 513 | -35.4 | -46.9 | 342 | 9 | |
| 2008-01-01T00:00 | 5244 | 511 | -35.6 | -47.0 | 341 | 10 | |
| 2008-01-01T00:00 | 5275 | 509 | -35.9 | -46.4 | 340 | 10 | |
| 2008-01-01T00:00 | 5298 | 507 | -36.1 | -46.9 | 340 | 10 | |
| 2008-01-01T00:00 | 5321 | 505 | -36.3 | -46.5 | 340 | 10 | |
| 2008-01-01T00:00 | 5343 | 504 | -36.4 | -45.8 | 342 | 10 | |
| 2008-01-01T00:00 | 5375 | 501 | -36.7 | -45.9 | 345 | 10 | |
| 2008-01-01T00:00 | 5404 | 499 | -36.9 | -45.8 | 348 | 10 | |
| 2008-01-01T00:00 | 5429 | 497 | -37.1 | -45.8 | 350 | 10 | |
| 2008-01-01T00:00 | 5453 | 496 | -37.3 | -46.0 | 350 | 10 | |
| 2008-01-01T00:00 | 5478 | 494 | -37.5 | -46.2 | 349 | 10 | |
| 2008-01-01T00:00 | 5503 | 492 | -37.7 | -46.6 | 346 | 10 | |
| 2008-01-01T00:00 | 5525 | 490 | -38.0 | -46.6 | 343 | 10 | |
| 2008-01-01T00:00 | 5551 | 489 | -38.1 | -46.7 | 342 | 10 | |
| 2008-01-01T00:00 | 5576 | 487 | -38.3 | -46.9 | 341 | 11 | |
| 2008-01-01T00:00 | 5603 | 485 | -38.5 | -47.1 | 342 | 11 | |
| 2008-01-01T00:00 | 5637 | 483 | -38.8 | -48.3 | 344 | 11 | |
| 2008-01-01T00:00 | 5667 | 480 | -38.6 | -48.9 | 346 | 12 | |
| 2008-01-01T00:00 | 5696 | 478 | -38.8 | -49.9 | 349 | 13 | |
| 2008-01-01T00:00 | 5725 | 476 | -38.9 | -50.3 | 351 | 13 | |
| 2008-01-01T00:00 | 5751 | 475 | -38.9 | -50.7 | 352 | 14 | |
| 2008-01-01T00:00 | 5779 | 473 | -38.9 | -51.0 | 353 | 14 | |
| 2008-01-01T00:00 | 5808 | 471 | -38.9 | -51.3 | 354 | 14 | |
| 2008-01-01T00:00 | 5839 | 469 | -39.1 | -51.9 | 356 | 14 | |
| 2008-01-01T00:00 | 5874 | 466 | -39.3 | -52.0 | 357 | 14 | |
| 2008-01-01T00:00 | 5905 | 464 | -39.3 | -52.0 | 358 | 14 | |
| 2008-01-01T00:00 | 5931 | 462 | -39.1 | -52.2 | 359 | 14 | |
| 2008-01-01T00:00 | 5960 | 460 | -39.2 | -52.7 | 359 | 14 | |
| 2008-01-01T00:00 | 5987 | 459 | -39.2 | -53.1 | 359 | 14 | |
| 2008-01-01T00:00 | 6005 | 457 | -39.3 | -52.8 | 357 | 14 | |
| 2008-01-01T00:00 | 6031 | 456 | -39.2 | -51.3 | 355 | 15 | |
| 2008-01-01T00:00 | 6059 | 454 | -39.3 | -52.0 | 353 | 15 | |
| 2008-01-01T00:00 | 6086 | 452 | -39.4 | -52.9 | 352 | 16 | |
| 2008-01-01T00:00 | 6109 | 450 | -39.4 | -52.5 | 351 | 16 | |
| 2008-01-01T00:00 | 6135 | 449 | -39.7 | -52.4 | 351 | 16 | |
| 2008-01-01T00:00 | 6163 | 447 | -39.8 | -52.5 | 352 | 17 | |
| 2008-01-01T00:00 | 6195 | 445 | -40.0 | -53.4 | 353 | 17 | |
| 2008-01-01T00:00 | 6220 | 443 | -40.2 | -53.6 | 354 | 17 | |
| 2008-01-01T00:00 | 6245 | 442 | -40.2 | -53.2 | 355 | 17 | |
| 2008-01-01T00:00 | 6278 | 439 | -40.1 | -53.5 | 355 | 17 | |
| 2008-01-01T00:00 | 6302 | 438 | -40.3 | -53.7 | 354 | 18 | |
| 2008-01-01T00:00 | 6326 | 436 | -40.4 | -53.4 | 353 | 19 | |
| 2008-01-01T00:00 | 6352 | 435 | -40.4 | -53.8 | 352 | 20 | |
| 2008-01-01T00:00 | 6375 | 433 | -40.4 | -54.6 | 351 | 21 | |
| 2008-01-01T00:00 | 6410 | 431 | -40.5 | -55.1 | 351 | 22 | |
| 2008-01-01T00:00 | 6440 | 429 | -40.5 | -55.1 | 352 | 22 | |
| 2008-01-01T00:00 | 6469 | 427 | -40.7 | -55.3 | 353 | 23 | |
| 2008-01-01T00:00 | 6504 | 425 | -40.8 | -55.9 | 355 | 23 | |
| 2008-01-01T00:00 | 6527 | 424 | -40.9 | -56.4 | 356 | 23 | |
| 2008-01-01T00:00 | 6544 | 423 | -40.9 | -56.4 | 356 | 23 | |
| 2008-01-01T00:00 | 6566 | 421 | -41.0 | -56.5 | 356 | 23 | |
| 2008-01-01T00:00 | 6595 | 419 | -41.0 | -59.6 | 355 | 23 | |
| 2008-01-01T00:00 | 6632 | 417 | -41.0 | -59.6 | 354 | 23 | |
| 2008-01-01T00:00 | 6659 | 415 | -41.0 | -58.9 | 353 | 23 | |
| 2008-01-01T00:00 | 6685 | 414 | -41.1 | -58.9 | 352 | 23 | |
| 2008-01-01T00:00 | 6713 | 412 | -41.2 | -59.0 | 352 | 24 | |
| 2008-01-01T00:00 | 6735 | 411 | -41.3 | -58.5 | 351 | 24 | |
| 2008-01-01T00:00 | 6761 | 409 | -41.5 | -58.6 | 351 | 25 | |
| 2008-01-01T00:00 | 6789 | 408 | -41.6 | -59.4 | 351 | 25 | |
| 2008-01-01T00:00 | 6808 | 406 | -41.7 | -59.5 | 351 | 25 | |
| 2008-01-01T00:00 | 6828 | 405 | -41.6 | -59.4 | 352 | 25 | |
| 2008-01-01T00:00 | 6851 | 404 | -41.6 | -58.7 | 352 | 24 | |
| 2008-01-01T00:00 | 6876 | 402 | -41.6 | -58.7 | 352 | 24 | |
| 2008-01-01T00:00 | 6903 | 401 | -41.6 | -59.4 | 352 | 23 | |
| 2008-01-01T00:00 | 6933 | 399 | -41.7 | -59.5 | 352 | 23 | |
| 2008-01-01T00:00 | 6964 | 397 | -41.7 | -60.2 | 352 | 24 | |
| 2008-01-01T00:00 | 6986 | 396 | -41.7 | -60.2 | 352 | 24 | |
| 2008-01-01T00:00 | 7008 | 395 | -41.9 | -60.3 | 353 | 24 | |
| 2008-01-01T00:00 | 7037 | 393 | -41.8 | -61.0 | 353 | 25 | |
| 2008-01-01T00:00 | 7068 | 391 | -41.8 | -61.0 | 352 | 25 | |
| 2008-01-01T00:00 | 7093 | 390 | -41.9 | -62.0 | 352 | 25 | |
| 2008-01-01T00:00 | 7114 | 388 | -41.9 | -62.0 | 351 | 26 | |
| 2008-01-01T00:00 | 7143 | 387 | -41.9 | -59.6 | 350 | 27 | |
| 2008-01-01T00:00 | 7182 | 385 | -42.1 | -59.8 | 349 | 27 | |
| 2008-01-01T00:00 | 7216 | 383 | -42.3 | -60.7 | 349 | 28 | |
| 2008-01-01T00:00 | 7249 | 381 | -42.6 | -60.2 | 349 | 29 | |
| 2008-01-01T00:00 | 7282 | 379 | -42.8 | -59.8 | 350 | 30 | |
| 2008-01-01T00:00 | 7309 | 377 | -43.0 | -59.3 | 350 | 31 | |
| 2008-01-01T00:00 | 7345 | 375 | -43.1 | -60.7 | 351 | 31 | |
| 2008-01-01T00:00 | 7377 | 374 | -42.8 | -60.4 | 352 | 31 | |
| 2008-01-01T00:00 | 7403 | 372 | -42.8 | -59.2 | 352 | 31 | |
| 2008-01-01T00:00 | 7426 | 371 | -42.8 | -58.6 | 352 | 31 | |
| 2008-01-01T00:00 | 7449 | 370 | -42.9 | -58.7 | 352 | 31 | |
| 2008-01-01T00:00 | 7472 | 368 | -43.1 | -58.9 | 352 | 31 | |
| 2008-01-01T00:00 | 7496 | 367 | -43.2 | -59.5 | 351 | 32 | |
| 2008-01-01T00:00 | 7528 | 365 | -43.2 | -60.1 | 350 | 32 | |
| 2008-01-01T00:00 | 7563 | 363 | -43.4 | -60.3 | 349 | 32 | |
| 2008-01-01T00:00 | 7593 | 362 | -43.6 | -59.9 | 349 | 33 | |
| 2008-01-01T00:00 | 7619 | 360 | -43.8 | -60.6 | 349 | 34 | |
| 2008-01-01T00:00 | 7643 | 359 | -43.9 | -60.7 | 350 | 34 | |
| 2008-01-01T00:00 | 7666 | 358 | -44.1 | -60.9 | 351 | 35 | |
| 2008-01-01T00:00 | 7691 | 357 | -44.3 | -61.7 | 352 | 35 | |
| 2008-01-01T00:00 | 7717 | 355 | -44.4 | -62.5 | 352 | 36 | |
| 2008-01-01T00:00 | 7740 | 354 | -44.6 | -64.2 | 352 | 36 | |
| 2008-01-01T00:00 | 7765 | 353 | -44.6 | -64.2 | 352 | 37 | |
| 2008-01-01T00:00 | 7796 | 351 | -44.7 | -65.3 | 351 | 37 | |
| 2008-01-01T00:00 | 7819 | 350 | -44.7 | -65.3 | 351 | 38 | |
| 2008-01-01T00:00 | 7841 | 349 | -44.6 | -65.2 | 351 | 38 | |
| 2008-01-01T00:00 | 7864 | 348 | -44.6 | -65.2 | 351 | 38 | |
| 2008-01-01T00:00 | 7888 | 346 | -44.7 | -64.3 | 351 | 39 | |
| 2008-01-01T00:00 | 7923 | 344 | -44.8 | -65.3 | 351 | 39 | |
| 2008-01-01T00:00 | 7953 | 343 | -44.8 | -65.3 | 351 | 40 | |
| 2008-01-01T00:00 | 7972 | 342 | -44.9 | -65.4 | 351 | 40 | |
| 2008-01-01T00:00 | 7989 | 341 | -45.0 | -64.6 | 351 | 40 | |
| 2008-01-01T00:00 | 8008 | 340 | -45.0 | -65.5 | 350 | 40 | |
| 2008-01-01T00:00 | 8028 | 339 | -45.1 | -65.6 | 350 | 39 | |
| 2008-01-01T00:00 | 8048 | 338 | -45.1 | -66.7 | 350 | 39 | |
| 2008-01-01T00:00 | 8067 | 337 | -45.1 | -66.7 | 349 | 38 | |
| 2008-01-01T00:00 | 8085 | 336 | -45.1 | -66.7 | 349 | 38 | |
| 2008-01-01T00:00 | 8106 | 335 | -45.2 | -66.7 | 349 | 38 | |
| 2008-01-01T00:00 | 8128 | 334 | -45.2 | -66.7 | 349 | 37 | |
| 2008-01-01T00:00 | 8150 | 333 | -45.3 | -66.8 | 349 | 37 | |
| 2008-01-01T00:00 | 8175 | 332 | -45.4 | -66.9 | 349 | 36 | |
| 2008-01-01T00:00 | 8208 | 330 | -45.4 | -66.9 | 349 | 36 | |
| 2008-01-01T00:00 | 8230 | 329 | -45.4 | -66.9 | 348 | 36 | |
| 2008-01-01T00:00 | 8250 | 328 | -45.6 | -66.0 | 347 | 36 | |
| 2008-01-01T00:00 | 8271 | 327 | -45.6 | -66.0 | 347 | 36 | |
| 2008-01-01T00:00 | 8292 | 326 | -45.7 | -66.1 | 346 | 36 | |
| 2008-01-01T00:00 | 8322 | 324 | -45.8 | -66.2 | 346 | 37 | |
| 2008-01-01T00:00 | 8353 | 323 | -45.9 | -64.5 | 346 | 37 | |
| 2008-01-01T00:00 | 8375 | 322 | -46.0 | -64.6 | 346 | 37 | |
| 2008-01-01T00:00 | 8397 | 321 | -46.1 | -63.9 | 345 | 38 | |
| 2008-01-01T00:00 | 8418 | 320 | -46.2 | -64.0 | 345 | 38 | |
| 2008-01-01T00:00 | 8438 | 319 | -46.2 | -63.3 | 345 | 38 | |
| 2008-01-01T00:00 | 8460 | 318 | -46.3 | -63.4 | 345 | 38 | |
| 2008-01-01T00:00 | 8484 | 317 | -46.4 | -63.5 | 344 | 39 | |
| 2008-01-01T00:00 | 8509 | 315 | -46.5 | -63.6 | 344 | 39 | |
| 2008-01-01T00:00 | 8538 | 314 | -46.8 | -63.8 | 344 | 39 | |
| 2008-01-01T00:00 | 8571 | 313 | -47.0 | -64.7 | 344 | 39 | |
| 2008-01-01T00:00 | 8596 | 311 | -46.8 | -64.5 | 344 | 40 | |
| 2008-01-01T00:00 | 8622 | 310 | -46.9 | -64.6 | 344 | 40 | |
| 2008-01-01T00:00 | 8654 | 309 | -47.2 | -64.2 | 344 | 40 | |
| 2008-01-01T00:00 | 8677 | 308 | -47.3 | -63.1 | 345 | 41 | |
| 2008-01-01T00:00 | 8700 | 306 | -47.4 | -62.6 | 345 | 41 | |
| 2008-01-01T00:00 | 8721 | 306 | -47.6 | -63.3 | 345 | 40 | |
| 2008-01-01T00:00 | 8743 | 305 | -47.7 | -63.4 | 346 | 40 | |
| 2008-01-01T00:00 | 8766 | 303 | -47.9 | -63.6 | 346 | 40 | |
| 2008-01-01T00:00 | 8791 | 302 | -48.1 | -64.3 | 346 | 40 | |
| 2008-01-01T00:00 | 8817 | 301 | -48.3 | -64.5 | 347 | 40 | |
| 2008-01-01T00:00 | 8843 | 300 | -48.4 | -64.6 | 347 | 40 | |
| 2008-01-01T00:00 | 8868 | 299 | -48.5 | -64.7 | 348 | 40 | |
| 2008-01-01T00:00 | 8892 | 298 | -48.6 | -64.7 | 348 | 40 | |
| 2008-01-01T00:00 | 8912 | 297 | -48.7 | -64.8 | 349 | 40 | |
| 2008-01-01T00:00 | 8934 | 296 | -48.9 | -65.0 | 349 | 40 | |
| 2008-01-01T00:00 | 8955 | 295 | -49.0 | -65.7 | 349 | 40 | |
| 2008-01-01T00:00 | 8978 | 294 | -49.2 | -68.1 | 350 | 41 | |
| 2008-01-01T00:00 | 9001 | 293 | -49.4 | -68.2 | 350 | 41 | |
| 2008-01-01T00:00 | 9024 | 292 | -49.5 | -68.3 | 350 | 41 | |
| 2008-01-01T00:00 | 9047 | 291 | -49.7 | 351 | 41 | ||
| 2008-01-01T00:00 | 9067 | 290 | -49.8 | -68.6 | 351 | 41 | |
| 2008-01-01T00:00 | 9090 | 289 | -49.8 | -68.6 | 350 | 41 | |
| 2008-01-01T00:00 | 9114 | 288 | -49.7 | 350 | 41 | ||
| 2008-01-01T00:00 | 9136 | 287 | -49.9 | -68.7 | 350 | 40 | |
| 2008-01-01T00:00 | 9158 | 286 | -50.0 | -67.9 | 350 | 40 | |
| 2008-01-01T00:00 | 9179 | 285 | -50.1 | -68.0 | 349 | 39 | |
| 2008-01-01T00:00 | 9197 | 284 | -50.2 | -67.4 | 349 | 39 | |
| 2008-01-01T00:00 | 9217 | 283 | -50.2 | -68.1 | 349 | 38 | |
| 2008-01-01T00:00 | 9237 | 282 | -50.3 | -68.2 | 350 | 38 | |
| 2008-01-01T00:00 | 9257 | 282 | -50.4 | -68.3 | 350 | 38 | |
| 2008-01-01T00:00 | 9277 | 281 | -50.4 | -69.1 | 351 | 38 | |
| 2008-01-01T00:00 | 9297 | 280 | -50.4 | -68.3 | 352 | 38 | |
| 2008-01-01T00:00 | 9318 | 279 | -50.4 | -68.3 | 353 | 38 | |
| 2008-01-01T00:00 | 9341 | 278 | -50.5 | -68.4 | 353 | 37 | |
| 2008-01-01T00:00 | 9366 | 277 | -50.6 | -68.5 | 354 | 37 | |
| 2008-01-01T00:00 | 9393 | 276 | -50.6 | -68.5 | 355 | 37 | |
| 2008-01-01T00:00 | 9416 | 275 | -50.4 | -68.3 | 355 | 36 | |
| 2008-01-01T00:00 | 9436 | 274 | -50.4 | -68.3 | 356 | 35 | |
| 2008-01-01T00:00 | 9456 | 273 | -50.5 | -68.4 | 356 | 35 | |
| 2008-01-01T00:00 | 9478 | 272 | -50.4 | -68.3 | 357 | 34 | |
| 2008-01-01T00:00 | 9510 | 271 | -50.2 | -68.9 | 357 | 34 | |
| 2008-01-01T00:00 | 9541 | 270 | -50.2 | -68.1 | 358 | 33 | |
| 2008-01-01T00:00 | 9562 | 269 | -50.3 | -69.0 | 358 | 32 | |
| 2008-01-01T00:00 | 9581 | 268 | -50.3 | -69.0 | 358 | 32 | |
| 2008-01-01T00:00 | 9602 | 267 | -50.3 | -69.0 | 358 | 31 | |
| 2008-01-01T00:00 | 9624 | 266 | -50.3 | -69.0 | 357 | 31 | |
| 2008-01-01T00:00 | 9643 | 265 | -50.3 | -69.0 | 357 | 30 | |
| 2008-01-01T00:00 | 9663 | 265 | -50.3 | -69.0 | 357 | 30 | |
| 2008-01-01T00:00 | 9684 | 264 | -50.4 | -70.0 | 356 | 30 | |
| 2008-01-01T00:00 | 9705 | 263 | -50.4 | -69.1 | 356 | 30 | |
| 2008-01-01T00:00 | 9726 | 262 | -50.3 | -69.9 | 355 | 29 | |
| 2008-01-01T00:00 | 9747 | 261 | -50.3 | -69.9 | 354 | 29 | |
| 2008-01-01T00:00 | 9770 | 260 | -50.3 | -69.9 | 353 | 28 | |
| 2008-01-01T00:00 | 9796 | 259 | -50.3 | -69.9 | 352 | 28 | |
| 2008-01-01T00:00 | 9821 | 258 | -50.4 | -67.6 | 351 | 27 | |
| 2008-01-01T00:00 | 9845 | 257 | -50.5 | -67.6 | 350 | 27 | |
| 2008-01-01T00:00 | 9865 | 256 | -50.6 | -68.5 | 349 | 26 | |
| 2008-01-01T00:00 | 9885 | 256 | -50.6 | -68.5 | 348 | 26 | |
| 2008-01-01T00:00 | 9905 | 255 | -50.7 | -68.5 | 347 | 26 | |
| 2008-01-01T00:00 | 9926 | 254 | -50.8 | -67.9 | 346 | 25 | |
| 2008-01-01T00:00 | 9944 | 253 | -50.6 | -67.7 | 346 | 25 | |
| 2008-01-01T00:00 | 9965 | 253 | -50.3 | -67.5 | 345 | 24 | |
| 2008-01-01T00:00 | 9985 | 252 | -50.4 | -67.6 | 345 | 23 | |
| 2008-01-01T00:00 | 10010 | 251 | -50.5 | -68.4 | 346 | 23 | |
| 2008-01-01T00:00 | 10037 | 250 | -50.5 | -68.4 | 345 | 22 | |
| 2008-01-01T00:00 | 10059 | 249 | -50.6 | -67.7 | 345 | 22 | |
| 2008-01-01T00:00 | 10080 | 248 | -50.5 | -67.6 | 344 | 22 | |
| 2008-01-01T00:00 | 10103 | 247 | -50.4 | -67.6 | 343 | 22 | |
| 2008-01-01T00:00 | 10126 | 246 | -50.4 | -67.6 | 342 | 22 | |
| 2008-01-01T00:00 | 10149 | 246 | -50.5 | -67.6 | 342 | 23 | |
| 2008-01-01T00:00 | 10171 | 245 | -50.7 | -68.5 | 341 | 23 | |
| 2008-01-01T00:00 | 10190 | 244 | -50.8 | -68.6 | 341 | 24 | |
| 2008-01-01T00:00 | 10214 | 243 | -51.0 | -68.8 | 341 | 24 | |
| 2008-01-01T00:00 | 10236 | 242 | -51.1 | -68.9 | 340 | 25 | |
| 2008-01-01T00:00 | 10256 | 242 | -51.1 | -68.9 | 340 | 25 | |
| 2008-01-01T00:00 | 10277 | 241 | -51.3 | -69.8 | 341 | 25 | |
| 2008-01-01T00:00 | 10298 | 240 | -51.4 | -69.9 | 341 | 25 | |
| 2008-01-01T00:00 | 10318 | 239 | -51.6 | -70.1 | 341 | 25 | |
| 2008-01-01T00:00 | 10338 | 238 | -51.8 | -70.3 | 341 | 26 | |
| 2008-01-01T00:00 | 10359 | 238 | -52.0 | -71.3 | 341 | 26 | |
| 2008-01-01T00:00 | 10382 | 237 | -52.1 | -71.4 | 340 | 26 | |
| 2008-01-01T00:00 | 10405 | 236 | -52.3 | -71.6 | 340 | 26 | |
| 2008-01-01T00:00 | 10431 | 235 | -52.5 | -71.7 | 340 | 26 | |
| 2008-01-01T00:00 | 10458 | 234 | -52.5 | -70.9 | 340 | 27 | |
| 2008-01-01T00:00 | 10482 | 233 | -52.2 | -70.6 | 340 | 27 | |
| 2008-01-01T00:00 | 10504 | 232 | -52.1 | -70.5 | 341 | 27 | |
| 2008-01-01T00:00 | 10526 | 232 | -52.2 | -69.8 | 342 | 27 | |
| 2008-01-01T00:00 | 10545 | 231 | -52.2 | -69.8 | 343 | 27 | |
| 2008-01-01T00:00 | 10565 | 230 | -52.2 | -69.8 | 345 | 27 | |
| 2008-01-01T00:00 | 10586 | 230 | -52.1 | -70.5 | 346 | 27 | |
| 2008-01-01T00:00 | 10607 | 229 | -52.0 | -71.3 | 348 | 27 | |
| 2008-01-01T00:00 | 10628 | 228 | -52.0 | -71.3 | 349 | 26 | |
| 2008-01-01T00:00 | 10651 | 227 | -51.9 | -73.4 | 350 | 26 | |
| 2008-01-01T00:00 | 10674 | 226 | -51.7 | -73.3 | 351 | 26 | |
| 2008-01-01T00:00 | 10694 | 226 | -51.5 | -73.1 | 353 | 26 | |
| 2008-01-01T00:00 | 10714 | 225 | -51.5 | -71.9 | 354 | 26 | |
| 2008-01-01T00:00 | 10733 | 224 | -51.4 | -71.8 | 355 | 26 | |
| 2008-01-01T00:00 | 10751 | 224 | -51.4 | -71.8 | 357 | 26 | |
| 2008-01-01T00:00 | 10770 | 223 | -51.3 | -71.8 | 358 | 26 | |
| 2008-01-01T00:00 | 10789 | 222 | -51.0 | -71.5 | 358 | 26 | |
| 2008-01-01T00:00 | 10808 | 222 | -50.6 | -72.4 | 359 | 25 | |
| 2008-01-01T00:00 | 10828 | 221 | -50.3 | -72.1 | 359 | 25 | |
| 2008-01-01T00:00 | 10848 | 220 | -50.3 | -72.1 | 359 | 24 | |
| 2008-01-01T00:00 | 10869 | 220 | -50.4 | -72.2 | 359 | 23 | |
| 2008-01-01T00:00 | 10889 | 219 | -50.4 | -72.2 | 358 | 23 | |
| 2008-01-01T00:00 | 10911 | 218 | -50.2 | -72.1 | 357 | 22 | |
| 2008-01-01T00:00 | 10932 | 218 | -50.2 | -72.1 | 356 | 21 | |
| 2008-01-01T00:00 | 10953 | 217 | -50.3 | -73.6 | 355 | 21 | |
| 2008-01-01T00:00 | 10976 | 216 | -50.2 | -72.1 | 353 | 20 | |
| 2008-01-01T00:00 | 11000 | 215 | -50.2 | -72.1 | 351 | 20 | |
| 2008-01-01T00:00 | 11024 | 215 | -50.3 | -72.1 | 348 | 20 | |
| 2008-01-01T00:00 | 11049 | 214 | -50.3 | -72.1 | 346 | 20 | |
| 2008-01-01T00:00 | 11074 | 213 | -50.3 | -70.9 | 344 | 20 | |
| 2008-01-01T00:00 | 11094 | 212 | -50.4 | -72.2 | 343 | 20 | |
| 2008-01-01T00:00 | 11114 | 212 | -50.4 | -72.2 | 342 | 21 | |
| 2008-01-01T00:00 | 11134 | 211 | -50.4 | -72.2 | 342 | 21 | |
| 2008-01-01T00:00 | 11155 | 210 | -50.5 | -72.3 | 342 | 21 | |
| 2008-01-01T00:00 | 11176 | 210 | -50.5 | -72.3 | 342 | 21 | |
| 2008-01-01T00:00 | 11196 | 209 | -50.2 | -72.1 | 342 | 22 | |
| 2008-01-01T00:00 | 11217 | 208 | -50.2 | -72.1 | 342 | 22 | |
| 2008-01-01T00:00 | 11238 | 208 | -50.2 | -72.1 | 342 | 22 | |
| 2008-01-01T00:00 | 11259 | 207 | -50.3 | -72.1 | 342 | 22 | |
| 2008-01-01T00:00 | 11281 | 206 | -50.1 | -72.0 | 342 | 22 | |
| 2008-01-01T00:00 | 11303 | 206 | -50.0 | -73.4 | 341 | 21 | |
| 2008-01-01T00:00 | 11330 | 205 | -49.7 | -73.1 | 341 | 20 | |
| 2008-01-01T00:00 | 11361 | 204 | -49.2 | -72.7 | 341 | 19 | |
| 2008-01-01T00:00 | 11391 | 203 | -49.0 | -72.6 | 340 | 17 | |
| 2008-01-01T00:00 | 11424 | 202 | -48.8 | -72.4 | 340 | 16 | |
| 2008-01-01T00:00 | 11448 | 201 | -48.6 | -72.2 | 341 | 15 | |
| 2008-01-01T00:00 | 11470 | 200 | -48.2 | -71.9 | 342 | 14 | |
| 2008-01-01T00:00 | 11492 | 200 | -48.2 | -71.9 | 342 | 13 | |
| 2008-01-01T00:00 | 11513 | 199 | -48.2 | -71.9 | 343 | 13 | |
| 2008-01-01T00:00 | 11537 | 198 | -48.1 | -71.8 | 344 | 12 | |
| 2008-01-01T00:00 | 11557 | 198 | -48.0 | -71.8 | 344 | 12 | |
| 2008-01-01T00:00 | 11578 | 197 | -47.7 | -71.5 | 344 | 12 | |
| 2008-01-01T00:00 | 11599 | 197 | -47.5 | -71.4 | 345 | 12 | |
| 2008-01-01T00:00 | 11619 | 196 | -47.5 | -71.4 | 346 | 12 | |
| 2008-01-01T00:00 | 11640 | 195 | -47.4 | -71.3 | 348 | 13 | |
| 2008-01-01T00:00 | 11663 | 195 | -47.5 | -71.4 | 349 | 13 | |
| 2008-01-01T00:00 | 11684 | 194 | -47.6 | -71.4 | 351 | 13 | |
| 2008-01-01T00:00 | 11707 | 193 | -47.7 | -71.5 | 352 | 13 | |
| 2008-01-01T00:00 | 11729 | 193 | -47.9 | -71.7 | 353 | 14 | |
| 2008-01-01T00:00 | 11750 | 192 | -48.0 | -71.8 | 353 | 14 | |
| 2008-01-01T00:00 | 11771 | 191 | -48.2 | -71.9 | 354 | 14 | |
| 2008-01-01T00:00 | 11791 | 191 | -48.4 | -72.1 | 354 | 14 | |
| 2008-01-01T00:00 | 11812 | 190 | -48.6 | -72.2 | 355 | 14 | |
| 2008-01-01T00:00 | 11831 | 190 | -48.7 | -72.3 | 355 | 14 | |
| 2008-01-01T00:00 | 11850 | 189 | -48.9 | -72.5 | 356 | 14 | |
| 2008-01-01T00:00 | 11870 | 189 | -49.0 | -72.6 | 357 | 15 | |
| 2008-01-01T00:00 | 11890 | 188 | -49.2 | -72.7 | 358 | 15 | |
| 2008-01-01T00:00 | 11910 | 187 | -49.3 | -72.8 | 359 | 15 | |
| 2008-01-01T00:00 | 11931 | 187 | -49.4 | -72.9 | 360 | 15 | |
| 2008-01-01T00:00 | 11951 | 186 | -49.5 | -73.0 | 1 | 15 | |
| 2008-01-01T00:00 | 11972 | 186 | -49.7 | -73.1 | 2 | 15 | |
| 2008-01-01T00:00 | 11993 | 185 | -49.9 | -73.3 | 1 | 15 | |
| 2008-01-01T00:00 | 12015 | 184 | -50.0 | -73.4 | 360 | 15 | |
| 2008-01-01T00:00 | 12035 | 184 | -50.0 | -73.4 | 358 | 15 | |
| 2008-01-01T00:00 | 12060 | 183 | -49.6 | -73.0 | 355 | 15 | |
| 2008-01-01T00:00 | 12093 | 182 | -49.3 | -72.8 | 353 | 15 | |
| 2008-01-01T00:00 | 12122 | 181 | -49.5 | -73.0 | 351 | 15 | |
| 2008-01-01T00:00 | 12148 | 181 | -49.7 | -73.1 | 349 | 15 | |
| 2008-01-01T00:00 | 12170 | 180 | -49.8 | -71.7 | 348 | 14 | |
| 2008-01-01T00:00 | 12191 | 180 | -49.7 | -73.1 | 347 | 14 | |
| 2008-01-01T00:00 | 12211 | 179 | -49.9 | -73.3 | 346 | 14 | |
| 2008-01-01T00:00 | 12231 | 178 | -50.0 | -73.4 | 345 | 14 | |
| 2008-01-01T00:00 | 12251 | 178 | -50.0 | -73.4 | 344 | 13 | |
| 2008-01-01T00:00 | 12271 | 177 | -50.1 | -73.4 | 343 | 13 | |
| 2008-01-01T00:00 | 12290 | 177 | -50.3 | -73.6 | 342 | 13 | |
| 2008-01-01T00:00 | 12311 | 176 | -50.3 | -73.6 | 341 | 13 | |
| 2008-01-01T00:00 | 12331 | 176 | -50.3 | -73.6 | 340 | 13 | |
| 2008-01-01T00:00 | 12351 | 175 | -50.5 | -73.8 | 338 | 13 | |
| 2008-01-01T00:00 | 12371 | 175 | -50.6 | -73.8 | 337 | 13 | |
| 2008-01-01T00:00 | 12393 | 174 | -50.7 | -73.9 | 336 | 13 | |
| 2008-01-01T00:00 | 12414 | 174 | -50.8 | -74.0 | 335 | 13 | |
| 2008-01-01T00:00 | 12435 | 173 | -50.8 | -74.0 | 333 | 12 | |
| 2008-01-01T00:00 | 12456 | 172 | -50.9 | -74.1 | 331 | 12 | |
| 2008-01-01T00:00 | 12478 | 172 | -51.0 | -74.2 | 328 | 12 | |
| 2008-01-01T00:00 | 12508 | 171 | -51.0 | -74.2 | 325 | 11 | |
| 2008-01-01T00:00 | 12535 | 170 | -51.2 | -74.3 | 321 | 11 | |
| 2008-01-01T00:00 | 12557 | 170 | -51.3 | -73.0 | 316 | 11 | |
| 2008-01-01T00:00 | 12580 | 169 | -51.1 | -72.8 | 313 | 11 | |
| 2008-01-01T00:00 | 12602 | 169 | -51.0 | -72.7 | 310 | 12 | |
| 2008-01-01T00:00 | 12623 | 168 | -51.1 | -72.8 | 309 | 12 | |
| 2008-01-01T00:00 | 12645 | 167 | -51.0 | -72.7 | 308 | 12 | |
| 2008-01-01T00:00 | 12667 | 167 | -51.0 | -72.7 | 308 | 13 | |
| 2008-01-01T00:00 | 12689 | 166 | -50.8 | -72.6 | 309 | 13 | |
| 2008-01-01T00:00 | 12712 | 166 | -50.7 | -72.5 | 310 | 13 | |
| 2008-01-01T00:00 | 12734 | 165 | -50.6 | -72.4 | 312 | 14 | |
| 2008-01-01T00:00 | 12755 | 165 | -50.7 | -72.5 | 313 | 14 | |
| 2008-01-01T00:00 | 12778 | 164 | -50.8 | -74.0 | 315 | 14 | |
| 2008-01-01T00:00 | 12802 | 164 | -50.9 | -74.1 | 317 | 14 | |
| 2008-01-01T00:00 | 12827 | 163 | -51.1 | -74.2 | 320 | 14 | |
| 2008-01-01T00:00 | 12852 | 162 | -51.3 | -74.4 | 323 | 14 | |
| 2008-01-01T00:00 | 12875 | 162 | -51.4 | -74.5 | 325 | 13 | |
| 2008-01-01T00:00 | 12897 | 161 | -51.2 | -74.3 | 327 | 14 | |
| 2008-01-01T00:00 | 12922 | 161 | -50.8 | -74.0 | 328 | 14 | |
| 2008-01-01T00:00 | 12946 | 160 | -50.6 | -73.8 | 328 | 14 | |
| 2008-01-01T00:00 | 12970 | 159 | -50.6 | -73.8 | 327 | 14 | |
| 2008-01-01T00:00 | 12997 | 159 | -50.8 | -74.0 | 326 | 15 | |
| 2008-01-01T00:00 | 13021 | 158 | -51.0 | -74.2 | 325 | 15 | |
| 2008-01-01T00:00 | 13042 | 158 | -51.2 | -74.3 | 324 | 15 | |
| 2008-01-01T00:00 | 13065 | 157 | -51.3 | -74.4 | 324 | 15 | |
| 2008-01-01T00:00 | 13086 | 157 | -51.5 | -74.6 | 325 | 16 | |
| 2008-01-01T00:00 | 13107 | 156 | -51.6 | -74.6 | 326 | 16 | |
| 2008-01-01T00:00 | 13128 | 155 | -51.5 | -74.6 | 328 | 16 | |
| 2008-01-01T00:00 | 13148 | 155 | -51.3 | -74.4 | 330 | 16 | |
| 2008-01-01T00:00 | 13167 | 155 | -50.6 | -73.8 | 333 | 16 | |
| 2008-01-01T00:00 | 13187 | 154 | -50.3 | -73.6 | 335 | 15 | |
| 2008-01-01T00:00 | 13205 | 154 | -50.1 | -73.4 | 336 | 15 | |
| 2008-01-01T00:00 | 13224 | 153 | -50.1 | -73.4 | 338 | 15 | |
| 2008-01-01T00:00 | 13242 | 153 | -50.1 | -73.4 | 339 | 16 | |
| 2008-01-01T00:00 | 13261 | 152 | -50.2 | -73.5 | 340 | 16 | |
| 2008-01-01T00:00 | 13279 | 152 | -50.3 | -73.6 | 341 | 16 | |
| 2008-01-01T00:00 | 13299 | 151 | -50.4 | -73.7 | 342 | 16 | |
| 2008-01-01T00:00 | 13317 | 151 | -50.4 | -73.7 | 343 | 16 | |
| 2008-01-01T00:00 | 13336 | 151 | -50.5 | -73.8 | 344 | 17 | |
| 2008-01-01T00:00 | 13354 | 150 | -50.5 | -73.8 | 345 | 16 | |
| 2008-01-01T00:00 | 13372 | 150 | -50.5 | -73.8 | 346 | 16 | |
| 2008-01-01T00:00 | 13389 | 149 | -50.5 | -73.8 | 346 | 16 | |
| 2008-01-01T00:00 | 13409 | 149 | -50.5 | -73.8 | 346 | 15 | |
| 2008-01-01T00:00 | 13429 | 148 | -50.3 | -73.6 | 346 | 15 | |
| 2008-01-01T00:00 | 13449 | 148 | -50.2 | -73.5 | 344 | 14 | |
| 2008-01-01T00:00 | 13467 | 148 | -50.3 | -73.6 | 343 | 14 | |
| 2008-01-01T00:00 | 13485 | 147 | -50.4 | -73.7 | 341 | 14 | |
| 2008-01-01T00:00 | 13503 | 147 | -50.5 | -73.8 | 339 | 14 | |
| 2008-01-01T00:00 | 13521 | 146 | -50.2 | -73.5 | 337 | 14 | |
| 2008-01-01T00:00 | 13539 | 146 | -50.0 | -73.4 | 335 | 14 | |
| 2008-01-01T00:00 | 13557 | 146 | -49.9 | -73.3 | 334 | 14 | |
| 2008-01-01T00:00 | 13576 | 145 | -49.8 | -73.2 | 334 | 14 | |
| 2008-01-01T00:00 | 13597 | 145 | -49.9 | -73.3 | 335 | 13 | |
| 2008-01-01T00:00 | 13618 | 144 | -50.1 | -73.4 | 335 | 13 | |
| 2008-01-01T00:00 | 13638 | 144 | -50.1 | -73.4 | 336 | 13 | |
| 2008-01-01T00:00 | 13659 | 143 | -50.1 | -73.4 | 337 | 13 | |
| 2008-01-01T00:00 | 13680 | 143 | -50.1 | -73.4 | 338 | 12 | |
| 2008-01-01T00:00 | 13702 | 142 | -50.2 | -73.5 | 339 | 13 | |
| 2008-01-01T00:00 | 13728 | 142 | -50.4 | -73.7 | 340 | 13 | |
| 2008-01-01T00:00 | 13752 | 141 | -50.6 | -73.8 | 340 | 13 | |
| 2008-01-01T00:00 | 13778 | 141 | -50.8 | -74.0 | 339 | 14 | |
| 2008-01-01T00:00 | 13804 | 140 | -51.0 | -74.2 | 339 | 15 | |
| 2008-01-01T00:00 | 13828 | 140 | -51.1 | -74.2 | 338 | 15 | |
| 2008-01-01T00:00 | 13853 | 139 | -51.1 | -74.2 | 337 | 15 | |
| 2008-01-01T00:00 | 13877 | 139 | -51.1 | -76.1 | 337 | 15 | |
| 2008-01-01T00:00 | 13903 | 138 | -50.8 | -74.0 | 337 | 14 | |
| 2008-01-01T00:00 | 13930 | 138 | -50.7 | -73.9 | 336 | 13 | |
| 2008-01-01T00:00 | 13957 | 137 | -50.8 | -74.0 | 336 | 13 | |
| 2008-01-01T00:00 | 13983 | 136 | -51.0 | -74.2 | 335 | 12 | |
| 2008-01-01T00:00 | 14011 | 136 | -51.2 | -74.3 | 333 | 12 | |
| 2008-01-01T00:00 | 14037 | 135 | -51.4 | -74.5 | 331 | 11 | |
| 2008-01-01T00:00 | 14065 | 135 | -51.4 | -74.5 | 329 | 11 | |
| 2008-01-01T00:00 | 14094 | 134 | -51.4 | -74.5 | 327 | 12 | |
| 2008-01-01T00:00 | 14123 | 133 | -51.3 | -74.4 | 326 | 12 | |
| 2008-01-01T00:00 | 14152 | 133 | -50.9 | -75.9 | 326 | 12 | |
| 2008-01-01T00:00 | 14179 | 132 | -50.3 | -75.5 | 327 | 13 | |
| 2008-01-01T00:00 | 14206 | 132 | -50.2 | -75.4 | 327 | 13 | |
| 2008-01-01T00:00 | 14232 | 131 | -50.2 | -75.4 | 328 | 13 | |
| 2008-01-01T00:00 | 14259 | 131 | -50.4 | -75.5 | 328 | 13 | |
| 2008-01-01T00:00 | 14286 | 130 | -50.5 | -73.8 | 327 | 13 | |
| 2008-01-01T00:00 | 14312 | 130 | -50.6 | -75.7 | 327 | 13 | |
| 2008-01-01T00:00 | 14339 | 129 | -50.7 | -75.8 | 326 | 13 | |
| 2008-01-01T00:00 | 14365 | 129 | -50.9 | -75.9 | 326 | 13 | |
| 2008-01-01T00:00 | 14390 | 128 | -51.0 | -76.0 | 326 | 13 | |
| 2008-01-01T00:00 | 14415 | 128 | -51.2 | -76.2 | 326 | 13 | |
| 2008-01-01T00:00 | 14439 | 127 | -51.3 | -76.2 | 327 | 13 | |
| 2008-01-01T00:00 | 14464 | 127 | -51.4 | -76.3 | 328 | 13 | |
| 2008-01-01T00:00 | 14488 | 126 | -51.4 | -76.3 | 329 | 13 | |
| 2008-01-01T00:00 | 14512 | 126 | -51.5 | -76.4 | 330 | 13 | |
| 2008-01-01T00:00 | 14536 | 125 | -51.6 | -76.5 | 332 | 12 | |
| 2008-01-01T00:00 | 14559 | 125 | -51.7 | -76.6 | 334 | 12 | |
| 2008-01-01T00:00 | 14581 | 124 | -51.8 | -76.6 | 335 | 12 | |
| 2008-01-01T00:00 | 14604 | 124 | -52.0 | -76.8 | 337 | 11 | |
| 2008-01-01T00:00 | 14628 | 124 | -52.2 | -77.0 | 339 | 11 | |
| 2008-01-01T00:00 | 14649 | 123 | -52.3 | -77.0 | 341 | 10 | |
| 2008-01-01T00:00 | 14671 | 123 | -52.4 | 343 | 10 | ||
| 2008-01-01T00:00 | 14695 | 122 | -52.6 | -77.3 | 345 | 10 | |
| 2008-01-01T00:00 | 14717 | 122 | -52.7 | -77.3 | 347 | 10 | |
| 2008-01-01T00:00 | 14738 | 121 | -52.9 | -77.5 | 350 | 9 | |
| 2008-01-01T00:00 | 14759 | 121 | -53.0 | -77.6 | 352 | 9 | |
| 2008-01-01T00:00 | 14778 | 121 | -53.1 | -77.7 | 355 | 9 | |
| 2008-01-01T00:00 | 14799 | 120 | -53.3 | -77.8 | 357 | 9 | |
| 2008-01-01T00:00 | 14817 | 120 | -53.4 | -77.9 | 358 | 8 | |
| 2008-01-01T00:00 | 14837 | 120 | -53.6 | -78.1 | 359 | 8 | |
| 2008-01-01T00:00 | 14858 | 119 | -53.7 | -78.1 | 1 | 8 | |
| 2008-01-01T00:00 | 14878 | 119 | -53.8 | -78.2 | 2 | 7 | |
| 2008-01-01T00:00 | 14897 | 118 | -53.9 | -78.3 | 3 | 7 | |
| 2008-01-01T00:00 | 14918 | 118 | -54.0 | -76.6 | 4 | 7 | |
| 2008-01-01T00:00 | 14939 | 118 | -54.2 | -76.7 | 5 | 7 | |
| 2008-01-01T00:00 | 14960 | 117 | -54.4 | -78.7 | 5 | 7 | |
| 2008-01-01T00:00 | 14981 | 117 | -54.6 | -78.9 | 6 | 6 | |
| 2008-01-01T00:00 | 15001 | 117 | -54.8 | -79.0 | 6 | 6 | |
| 2008-01-01T00:00 | 15022 | 116 | -55.0 | -79.2 | 5 | 6 | |
| 2008-01-01T00:00 | 15041 | 116 | -55.1 | -79.2 | 4 | 6 | |
| 2008-01-01T00:00 | 15061 | 115 | -55.3 | -79.4 | 3 | 5 | |
| 2008-01-01T00:00 | 15081 | 115 | -55.5 | -79.6 | 1 | 5 | |
| 2008-01-01T00:00 | 15101 | 115 | -55.5 | -79.6 | 358 | 4 | |
| 2008-01-01T00:00 | 15121 | 114 | -55.4 | -79.5 | 353 | 4 | |
| 2008-01-01T00:00 | 15141 | 114 | -55.3 | -79.4 | 346 | 3 | |
| 2008-01-01T00:00 | 15161 | 114 | -55.4 | -79.5 | 337 | 3 | |
| 2008-01-01T00:00 | 15188 | 113 | -55.5 | -79.6 | 327 | 3 | |
| 2008-01-01T00:00 | 15216 | 113 | -55.6 | -79.6 | 317 | 3 | |
| 2008-01-01T00:00 | 15242 | 112 | -55.9 | -79.9 | 308 | 4 | |
| 2008-01-01T00:00 | 15264 | 112 | -56.0 | -80.0 | 299 | 4 | |
| 2008-01-01T00:00 | 15287 | 111 | -56.1 | 291 | 4 | ||
| 2008-01-01T00:00 | 15310 | 111 | -56.3 | -80.2 | 285 | 5 | |
| 2008-01-01T00:00 | 15331 | 111 | -56.3 | -80.2 | 281 | 5 | |
| 2008-01-01T00:00 | 15351 | 110 | -56.4 | -78.5 | 278 | 6 | |
| 2008-01-01T00:00 | 15372 | 110 | -56.6 | -80.4 | 276 | 6 | |
| 2008-01-01T00:00 | 15393 | 110 | -56.7 | -80.5 | 274 | 7 | |
| 2008-01-01T00:00 | 15415 | 109 | -56.8 | -80.6 | 272 | 8 | |
| 2008-01-01T00:00 | 15439 | 109 | -57.0 | -80.8 | 269 | 8 | |
| 2008-01-01T00:00 | 15467 | 108 | -57.1 | -79.1 | 268 | 9 | |
| 2008-01-01T00:00 | 15494 | 108 | -57.1 | -79.1 | 267 | 10 | |
| 2008-01-01T00:00 | 15519 | 107 | -57.2 | -79.2 | 268 | 11 | |
| 2008-01-01T00:00 | 15544 | 107 | -57.3 | -79.2 | 269 | 11 | |
| 2008-01-01T00:00 | 15569 | 107 | -57.2 | -79.2 | 271 | 11 | |
| 2008-01-01T00:00 | 15594 | 106 | -57.3 | -79.2 | 274 | 12 | |
| 2008-01-01T00:00 | 15620 | 106 | -57.4 | -79.3 | 277 | 12 | |
| 2008-01-01T00:00 | 15645 | 105 | -57.3 | -79.2 | 279 | 12 | |
| 2008-01-01T00:00 | 15671 | 105 | -57.4 | -79.3 | 281 | 12 | |
| 2008-01-01T00:00 | 15697 | 104 | -57.5 | -79.4 | 283 | 12 | |
| 2008-01-01T00:00 | 15724 | 104 | -57.2 | -79.2 | 285 | 12 | |
| 2008-01-01T00:00 | 15752 | 104 | -57.2 | -79.2 | 287 | 12 | |
| 2008-01-01T00:00 | 15779 | 103 | -57.4 | -79.3 | 289 | 12 | |
| 2008-01-01T00:00 | 15806 | 103 | -57.5 | -79.4 | 291 | 12 | |
| 2008-01-01T00:00 | 15834 | 102 | -57.6 | -79.5 | 294 | 12 | |
| 2008-01-01T00:00 | 15860 | 102 | -57.7 | -79.6 | 297 | 12 | |
| 2008-01-01T00:00 | 15887 | 101 | -57.5 | -79.4 | 301 | 11 | |
| 2008-01-01T00:00 | 15912 | 101 | -57.1 | -79.1 | 304 | 11 | |
| 2008-01-01T00:00 | 15939 | 101 | -56.9 | -78.9 | 306 | 11 | |
| 2008-01-01T00:00 | 15966 | 100 | -56.7 | 307 | 11 | ||
| 2008-01-01T00:00 | 15991 | 100 | -56.5 | -78.6 | 306 | 11 | |
| 2008-01-01T00:00 | 16019 | 99 | -56.5 | -78.6 | 304 | 11 | |
| 2008-01-01T00:00 | 16045 | 99 | -56.2 | -78.4 | 301 | 11 | |
| 2008-01-01T00:00 | 16070 | 98 | -56.3 | -78.4 | 299 | 12 | |
| 2008-01-01T00:00 | 16094 | 98 | -56.4 | -78.5 | 297 | 12 | |
| 2008-01-01T00:00 | 16117 | 98 | -56.5 | -78.6 | 296 | 13 | |
| 2008-01-01T00:00 | 16140 | 97 | -56.4 | -77.1 | 295 | 13 | |
| 2008-01-01T00:00 | 16163 | 97 | -56.3 | -78.4 | 295 | 14 | |
| 2008-01-01T00:00 | 16184 | 97 | -56.2 | -78.4 | 295 | 14 | |
| 2008-01-01T00:00 | 16205 | 96 | -56.3 | -78.4 | 296 | 15 | |
| 2008-01-01T00:00 | 16225 | 96 | -56.3 | -78.4 | 296 | 15 | |
| 2008-01-01T00:00 | 16245 | 96 | -56.3 | -78.4 | 297 | 15 | |
| 2008-01-01T00:00 | 16264 | 96 | -56.4 | -78.5 | 299 | 16 | |
| 2008-01-01T00:00 | 16282 | 95 | -56.4 | -78.5 | 301 | 16 | |
| 2008-01-01T00:00 | 16300 | 95 | -56.4 | -78.5 | 304 | 16 | |
| 2008-01-01T00:00 | 16317 | 95 | -56.0 | -78.2 | 306 | 16 | |
| 2008-01-01T00:00 | 16335 | 94 | -55.7 | -78.0 | 309 | 16 | |
| 2008-01-01T00:00 | 16351 | 94 | -55.1 | -77.5 | 311 | 16 | |
| 2008-01-01T00:00 | 16367 | 94 | -55.0 | -77.4 | 314 | 15 | |
| 2008-01-01T00:00 | 16384 | 94 | -54.8 | -77.2 | 316 | 15 | |
| 2008-01-01T00:00 | 16400 | 93 | -54.9 | -79.1 | 318 | 15 | |
| 2008-01-01T00:00 | 16416 | 93 | -54.7 | -78.9 | 321 | 14 | |
| 2008-01-01T00:00 | 16433 | 93 | -54.5 | -78.8 | 323 | 15 | |
| 2008-01-01T00:00 | 16449 | 93 | -54.4 | -78.7 | 324 | 15 | |
| 2008-01-01T00:00 | 16465 | 93 | -54.1 | -76.7 | 324 | 15 | |
| 2008-01-01T00:00 | 16482 | 92 | -53.9 | -76.5 | 325 | 16 | |
| 2008-01-01T00:00 | 16497 | 92 | -53.7 | -76.3 | 324 | 16 | |
| 2008-01-01T00:00 | 16514 | 92 | -53.7 | -76.3 | 324 | 16 | |
| 2008-01-01T00:00 | 16532 | 92 | -53.8 | -76.4 | 325 | 17 | |
| 2008-01-01T00:00 | 16551 | 91 | -53.9 | -76.5 | 325 | 16 | |
| 2008-01-01T00:00 | 16571 | 91 | -53.7 | -76.3 | 327 | 16 | |
| 2008-01-01T00:00 | 16591 | 91 | -53.7 | -76.3 | 328 | 16 | |
| 2008-01-01T00:00 | 16613 | 90 | -53.7 | -76.3 | 330 | 16 | |
| 2008-01-01T00:00 | 16637 | 90 | -53.3 | -77.8 | 332 | 15 | |
| 2008-01-01T00:00 | 16661 | 90 | -53.1 | -75.9 | 334 | 15 | |
| 2008-01-01T00:00 | 16685 | 89 | -52.5 | -75.4 | 336 | 14 | |
| 2008-01-01T00:00 | 16711 | 89 | -52.3 | -75.2 | 339 | 14 | |
| 2008-01-01T00:00 | 16735 | 89 | -52.3 | -75.2 | 341 | 14 | |
| 2008-01-01T00:00 | 16761 | 88 | -52.3 | -75.2 | 343 | 14 | |
| 2008-01-01T00:00 | 16788 | 88 | -52.4 | 345 | 13 | ||
| 2008-01-01T00:00 | 16815 | 88 | -52.2 | -77.0 | 346 | 13 | |
| 2008-01-01T00:00 | 16841 | 87 | -52.1 | -76.9 | 347 | 12 | |
| 2008-01-01T00:00 | 16868 | 87 | -52.2 | -77.0 | 348 | 12 | |
| 2008-01-01T00:00 | 16897 | 87 | -52.2 | -77.0 | 348 | 11 | |
| 2008-01-01T00:00 | 16923 | 86 | -52.1 | -76.9 | 348 | 10 | |
| 2008-01-01T00:00 | 16951 | 86 | -52.2 | -77.0 | 347 | 10 | |
| 2008-01-01T00:00 | 16979 | 85 | -52.4 | 347 | 9 | ||
| 2008-01-01T00:00 | 17006 | 85 | -52.7 | -77.3 | 347 | 9 | |
| 2008-01-01T00:00 | 17033 | 85 | -52.9 | -77.5 | 346 | 8 | |
| 2008-01-01T00:00 | 17063 | 84 | -53.1 | -77.7 | 346 | 8 | |
| 2008-01-01T00:00 | 17092 | 84 | -53.4 | -77.9 | 345 | 7 | |
| 2008-01-01T00:00 | 17119 | 84 | -53.6 | -78.1 | 344 | 7 | |
| 2008-01-01T00:00 | 17145 | 83 | -53.8 | -78.2 | 343 | 6 | |
| 2008-01-01T00:00 | 17172 | 83 | -54.1 | -78.5 | 341 | 6 | |
| 2008-01-01T00:00 | 17199 | 83 | -54.3 | -78.6 | 340 | 5 | |
| 2008-01-01T00:00 | 17227 | 82 | -54.5 | -78.8 | 339 | 5 | |
| 2008-01-01T00:00 | 17255 | 82 | -54.8 | -79.0 | 338 | 4 | |
| 2008-01-01T00:00 | 17282 | 82 | -55.0 | -79.2 | 336 | 4 | |
| 2008-01-01T00:00 | 17309 | 81 | -55.2 | -79.3 | 333 | 3 | |
| 2008-01-01T00:00 | 17334 | 81 | -55.4 | -77.7 | 327 | 2 | |
| 2008-01-01T00:00 | 17360 | 81 | -55.5 | -77.8 | 316 | 2 | |
| 2008-01-01T00:00 | 17385 | 80 | -55.6 | -77.9 | 297 | 1 | |
| 2008-01-01T00:00 | 17409 | 80 | -55.6 | -79.6 | 276 | 1 | |
| 2008-01-01T00:00 | 17433 | 80 | -55.6 | -79.6 | 263 | 1 | |
| 2008-01-01T00:00 | 17454 | 79 | -55.7 | -79.7 | 257 | 1 | |
| 2008-01-01T00:00 | 17477 | 79 | -55.6 | -79.6 | 259 | 1 | |
| 2008-01-01T00:00 | 17499 | 79 | -55.6 | -79.6 | 267 | 1 | |
| 2008-01-01T00:00 | 17522 | 79 | -55.5 | -79.6 | 281 | 1 | |
| 2008-01-01T00:00 | 17545 | 78 | -55.6 | -79.6 | 296 | 1 | |
| 2008-01-01T00:00 | 17568 | 78 | -55.7 | -79.7 | 307 | 1 | |
| 2008-01-01T00:00 | 17589 | 78 | -55.9 | -79.9 | 313 | 1 | |
| 2008-01-01T00:00 | 17612 | 77 | -56.0 | -78.2 | 317 | 1 | |
| 2008-01-01T00:00 | 17633 | 77 | -56.0 | -78.2 | 321 | 1 | |
| 2008-01-01T00:00 | 17653 | 77 | -56.1 | -78.3 | 325 | 1 | |
| 2008-01-01T00:00 | 17674 | 77 | -56.3 | -78.4 | 329 | 1 | |
| 2008-01-01T00:00 | 17694 | 76 | -56.5 | -78.6 | 333 | 1 | |
| 2008-01-01T00:00 | 17713 | 76 | -56.6 | -78.7 | 337 | 1 | |
| 2008-01-01T00:00 | 17733 | 76 | -56.7 | 341 | 1 | ||
| 2008-01-01T00:00 | 17752 | 76 | -56.8 | -80.6 | 346 | 2 | |
| 2008-01-01T00:00 | 17772 | 75 | -57.0 | -80.8 | 350 | 2 | |
| 2008-01-01T00:00 | 17791 | 75 | -57.1 | -80.8 | 355 | 2 | |
| 2008-01-01T00:00 | 17811 | 75 | -57.3 | -79.2 | 359 | 2 | |
| 2008-01-01T00:00 | 17830 | 75 | -57.3 | -79.2 | 2 | 2 | |
| 2008-01-01T00:00 | 17849 | 75 | -57.4 | -79.3 | 4 | 2 | |
| 2008-01-01T00:00 | 17869 | 74 | -57.5 | -79.4 | 5 | 2 | |
| 2008-01-01T00:00 | 17889 | 74 | -57.2 | -79.2 | 6 | 3 | |
| 2008-01-01T00:00 | 17910 | 74 | -57.2 | -79.2 | 6 | 3 | |
| 2008-01-01T00:00 | 17930 | 74 | -57.3 | -81.0 | 5 | 3 | |
| 2008-01-01T00:00 | 17950 | 73 | -57.5 | -81.2 | 4 | 3 | |
| 2008-01-01T00:00 | 17969 | 73 | -57.7 | -79.6 | 2 | 3 | |
| 2008-01-01T00:00 | 17990 | 73 | -57.9 | -79.7 | 360 | 4 | |
| 2008-01-01T00:00 | 18011 | 73 | -58.0 | -79.8 | 356 | 4 | |
| 2008-01-01T00:00 | 18030 | 72 | -58.1 | -79.9 | 352 | 4 | |
| 2008-01-01T00:00 | 18052 | 72 | -58.3 | -80.1 | 346 | 4 | |
| 2008-01-01T00:00 | 18073 | 72 | -58.4 | -80.1 | 341 | 4 | |
| 2008-01-01T00:00 | 18095 | 72 | -58.3 | -80.1 | 336 | 4 | |
| 2008-01-01T00:00 | 18118 | 71 | -58.2 | -80.0 | 332 | 5 | |
| 2008-01-01T00:00 | 18139 | 71 | -58.3 | -80.1 | 328 | 5 | |
| 2008-01-01T00:00 | 18162 | 71 | -58.5 | -80.2 | 325 | 5 | |
| 2008-01-01T00:00 | 18186 | 71 | -58.7 | -80.4 | 321 | 6 | |
| 2008-01-01T00:00 | 18210 | 70 | -58.8 | -80.5 | 316 | 6 | |
| 2008-01-01T00:00 | 18234 | 70 | -58.9 | -80.5 | 312 | 6 | |
| 2008-01-01T00:00 | 18259 | 70 | -59.0 | -80.6 | 309 | 7 | |
| 2008-01-01T00:00 | 18284 | 70 | -59.2 | -80.8 | 306 | 8 | |
| 2008-01-01T00:00 | 18309 | 69 | -59.3 | -82.6 | 304 | 8 | |
| 2008-01-01T00:00 | 18334 | 69 | -59.3 | -82.6 | 303 | 9 | |
| 2008-01-01T00:00 | 18359 | 69 | -59.4 | -82.7 | 303 | 9 | |
| 2008-01-01T00:00 | 18387 | 68 | -59.5 | -82.7 | 304 | 9 | |
| 2008-01-01T00:00 | 18415 | 68 | -59.6 | -82.8 | 305 | 9 | |
| 2008-01-01T00:00 | 18443 | 68 | -59.6 | -82.8 | 307 | 10 | |
| 2008-01-01T00:00 | 18472 | 68 | -59.6 | -82.8 | 308 | 10 | |
| 2008-01-01T00:00 | 18502 | 67 | -59.8 | -83.0 | 308 | 10 | |
| 2008-01-01T00:00 | 18530 | 67 | -59.8 | -83.0 | 308 | 10 | |
| 2008-01-01T00:00 | 18560 | 67 | -59.7 | -82.9 | 308 | 10 | |
| 2008-01-01T00:00 | 18589 | 66 | -59.7 | -82.9 | 306 | 9 | |
| 2008-01-01T00:00 | 18618 | 66 | -59.6 | -82.8 | 305 | 9 | |
| 2008-01-01T00:00 | 18647 | 66 | -59.7 | -82.9 | 303 | 9 | |
| 2008-01-01T00:00 | 18677 | 65 | -59.9 | -83.1 | 301 | 9 | |
| 2008-01-01T00:00 | 18705 | 65 | -59.9 | -83.1 | 300 | 9 | |
| 2008-01-01T00:00 | 18734 | 65 | -59.9 | -83.1 | 299 | 9 | |
| 2008-01-01T00:00 | 18762 | 64 | -59.8 | -83.0 | 299 | 9 | |
| 2008-01-01T00:00 | 18790 | 64 | -59.8 | -83.0 | 300 | 9 | |
| 2008-01-01T00:00 | 18819 | 64 | -59.7 | -82.9 | 302 | 9 | |
| 2008-01-01T00:00 | 18848 | 64 | -59.0 | -82.3 | 304 | 9 | |
| 2008-01-01T00:00 | 18875 | 63 | -58.5 | -81.9 | 308 | 9 | |
| 2008-01-01T00:00 | 18902 | 63 | -57.7 | -81.3 | 311 | 9 | |
| 2008-01-01T00:00 | 18929 | 63 | -57.7 | -81.3 | 314 | 9 | |
| 2008-01-01T00:00 | 18955 | 63 | -57.8 | -79.6 | 316 | 9 | |
| 2008-01-01T00:00 | 18981 | 62 | -58.0 | -79.8 | 319 | 9 | |
| 2008-01-01T00:00 | 19005 | 62 | -58.1 | -79.9 | 321 | 9 | |
| 2008-01-01T00:00 | 19028 | 62 | -58.2 | -80.0 | 323 | 9 | |
| 2008-01-01T00:00 | 19051 | 62 | -58.2 | -80.0 | 325 | 9 | |
| 2008-01-01T00:00 | 19074 | 61 | -58.4 | -80.1 | 326 | 9 | |
| 2008-01-01T00:00 | 19097 | 61 | -58.5 | -80.2 | 328 | 9 | |
| 2008-01-01T00:00 | 19119 | 61 | -58.7 | -80.4 | 331 | 9 | |
| 2008-01-01T00:00 | 19139 | 61 | -58.8 | -80.5 | 334 | 9 | |
| 2008-01-01T00:00 | 19159 | 61 | -58.9 | -80.5 | 336 | 9 | |
| 2008-01-01T00:00 | 19178 | 60 | -58.9 | -80.5 | 338 | 8 | |
| 2008-01-01T00:00 | 19197 | 60 | -58.9 | -80.5 | 338 | 8 | |
| 2008-01-01T00:00 | 19216 | 60 | -58.8 | -80.5 | 337 | 8 | |
| 2008-01-01T00:00 | 19235 | 60 | -58.5 | -80.2 | 335 | 8 | |
| 2008-01-01T00:00 | 19253 | 60 | -58.5 | -80.2 | 332 | 8 | |
| 2008-01-01T00:00 | 19271 | 59 | -58.6 | -80.3 | 329 | 8 | |
| 2008-01-01T00:00 | 19289 | 59 | -58.6 | -80.3 | 328 | 8 | |
| 2008-01-01T00:00 | 19304 | 59 | -58.4 | -80.1 | 327 | 8 | |
| 2008-01-01T00:00 | 19322 | 59 | -58.0 | -81.5 | 326 | 8 | |
| 2008-01-01T00:00 | 19339 | 59 | -57.9 | -81.5 | 326 | 9 | |
| 2008-01-01T00:00 | 19357 | 59 | -57.9 | -81.5 | 327 | 9 | |
| 2008-01-01T00:00 | 19373 | 58 | -57.9 | -81.5 | 328 | 9 | |
| 2008-01-01T00:00 | 19389 | 58 | -57.5 | -81.2 | 330 | 9 | |
| 2008-01-01T00:00 | 19406 | 58 | -56.9 | -80.7 | 332 | 10 | |
| 2008-01-01T00:00 | 19424 | 58 | -56.7 | -80.5 | 334 | 10 | |
| 2008-01-01T00:00 | 19442 | 58 | -56.7 | -80.5 | 336 | 10 | |
| 2008-01-01T00:00 | 19459 | 58 | -56.6 | -80.4 | 338 | 10 | |
| 2008-01-01T00:00 | 19478 | 58 | -56.5 | -80.4 | 339 | 10 | |
| 2008-01-01T00:00 | 19497 | 57 | -56.6 | -80.4 | 340 | 10 | |
| 2008-01-01T00:00 | 19517 | 57 | -56.7 | -80.5 | 341 | 10 | |
| 2008-01-01T00:00 | 19538 | 57 | -56.7 | -80.5 | 342 | 9 | |
| 2008-01-01T00:00 | 19559 | 57 | -56.7 | -80.5 | 344 | 9 | |
| 2008-01-01T00:00 | 19581 | 57 | -56.6 | -80.4 | 345 | 8 | |
| 2008-01-01T00:00 | 19604 | 56 | -56.5 | -80.4 | 345 | 7 | |
| 2008-01-01T00:00 | 19624 | 56 | -56.5 | -80.4 | 344 | 7 | |
| 2008-01-01T00:00 | 19649 | 56 | -56.5 | -80.4 | 342 | 7 | |
| 2008-01-01T00:00 | 19673 | 56 | -56.7 | -80.5 | 340 | 7 | |
| 2008-01-01T00:00 | 19698 | 56 | -56.9 | -80.7 | 338 | 7 | |
| 2008-01-01T00:00 | 19722 | 55 | -57.0 | -80.8 | 337 | 6 | |
| 2008-01-01T00:00 | 19749 | 55 | -57.0 | -80.8 | 334 | 6 | |
| 2008-01-01T00:00 | 19775 | 55 | -57.0 | -80.8 | 332 | 6 | |
| 2008-01-01T00:00 | 19801 | 55 | -57.0 | -80.8 | 329 | 5 | |
| 2008-01-01T00:00 | 19828 | 54 | -57.0 | -80.8 | 326 | 5 | |
| 2008-01-01T00:00 | 19856 | 54 | -57.1 | -80.8 | 324 | 5 | |
| 2008-01-01T00:00 | 19884 | 54 | -57.3 | -81.0 | 324 | 5 | |
| 2008-01-01T00:00 | 19912 | 54 | -57.4 | -81.1 | 326 | 5 | |
| 2008-01-01T00:00 | 19942 | 53 | -57.4 | -81.1 | 328 | 6 | |
| 2008-01-01T00:00 | 19971 | 53 | -57.5 | -81.2 | 330 | 6 | |
| 2008-01-01T00:00 | 20001 | 53 | -57.7 | -81.3 | 332 | 7 | |
| 2008-01-01T00:00 | 20032 | 53 | -57.9 | -81.5 | 334 | 7 | |
| 2008-01-01T00:00 | 20063 | 52 | -58.1 | -81.6 | 335 | 8 | |
| 2008-01-01T00:00 | 20093 | 52 | -58.3 | -81.8 | 337 | 8 | |
| 2008-01-01T00:00 | 20125 | 52 | -58.6 | -82.0 | 338 | 8 | |
| 2008-01-01T00:00 | 20154 | 52 | -58.8 | -82.2 | 340 | 7 | |
| 2008-01-01T00:00 | 20187 | 51 | -59.0 | -82.3 | 342 | 7 | |
| 2008-01-01T00:00 | 20217 | 51 | -59.1 | -82.4 | 343 | 6 | |
| 2008-01-01T00:00 | 20250 | 51 | -59.3 | -82.6 | 345 | 6 | |
| 2008-01-01T00:00 | 20279 | 51 | -59.4 | -82.7 | 346 | 5 | |
| 2008-01-01T00:00 | 20309 | 50 | -59.5 | -82.7 | 347 | 4 | |
| 2008-01-01T00:00 | 20338 | 50 | -59.6 | -82.8 | 348 | 4 | |
| 2008-01-01T00:00 | 20366 | 50 | -59.7 | -82.9 | 346 | 3 | |
| 2008-01-01T00:00 | 20396 | 50 | -59.9 | -83.1 | 341 | 3 | |
| 2008-01-01T00:00 | 20424 | 50 | -60.0 | -83.1 | 329 | 2 | |
| 2008-01-01T00:00 | 20449 | 49 | -59.9 | -83.1 | 312 | 2 | |
| 2008-01-01T00:00 | 20476 | 49 | -59.9 | -83.1 | 295 | 2 | |
| 2008-01-01T00:00 | 20504 | 49 | -60.0 | -83.1 | 283 | 3 | |
| 2008-01-01T00:00 | 20530 | 49 | -60.1 | -83.2 | 274 | 3 | |
| 2008-01-01T00:00 | 20556 | 48 | -60.2 | -83.3 | 269 | 4 | |
| 2008-01-01T00:00 | 20582 | 48 | -60.4 | -83.5 | 266 | 4 | |
| 2008-01-01T00:00 | 20608 | 48 | -60.5 | -83.5 | 265 | 5 | |
| 2008-01-01T00:00 | 20633 | 48 | -60.4 | -81.8 | 264 | 6 | |
| 2008-01-01T00:00 | 20658 | 48 | -60.3 | -81.7 | 264 | 6 | |
| 2008-01-01T00:00 | 20681 | 48 | -60.3 | -81.7 | 264 | 7 | |
| 2008-01-01T00:00 | 20704 | 47 | -60.1 | -81.5 | 265 | 7 | |
| 2008-01-01T00:00 | 20726 | 47 | -60.1 | -81.5 | 265 | 7 | |
| 2008-01-01T00:00 | 20750 | 47 | -60.0 | 266 | 7 | ||
| 2008-01-01T00:00 | 20771 | 47 | -59.8 | -81.3 | 268 | 7 | |
| 2008-01-01T00:00 | 20791 | 47 | -59.8 | -81.3 | 271 | 6 | |
| 2008-01-01T00:00 | 20811 | 47 | -59.7 | -81.2 | 274 | 6 | |
| 2008-01-01T00:00 | 20831 | 46 | -59.8 | -81.3 | 278 | 6 | |
| 2008-01-01T00:00 | 20851 | 46 | -59.8 | -81.3 | 281 | 5 | |
| 2008-01-01T00:00 | 20871 | 46 | -59.7 | -81.2 | 283 | 5 | |
| 2008-01-01T00:00 | 20888 | 46 | -59.7 | -81.2 | 285 | 5 | |
| 2008-01-01T00:00 | 20907 | 46 | -59.6 | -81.1 | 287 | 5 | |
| 2008-01-01T00:00 | 20925 | 46 | -59.6 | -81.1 | 289 | 4 | |
| 2008-01-01T00:00 | 20944 | 46 | -59.6 | -81.1 | 291 | 4 | |
| 2008-01-01T00:00 | 20960 | 45 | -59.5 | -81.0 | 292 | 4 | |
| 2008-01-01T00:00 | 20979 | 45 | -59.6 | -81.1 | 290 | 4 | |
| 2008-01-01T00:00 | 20998 | 45 | -59.5 | -81.0 | 287 | 4 | |
| 2008-01-01T00:00 | 21015 | 45 | -59.2 | -82.5 | 282 | 3 | |
| 2008-01-01T00:00 | 21034 | 45 | -59.1 | -82.4 | 275 | 3 | |
| 2008-01-01T00:00 | 21053 | 45 | -59.1 | -82.4 | 268 | 3 | |
| 2008-01-01T00:00 | 21071 | 45 | -59.2 | -82.5 | 261 | 3 | |
| 2008-01-01T00:00 | 21090 | 45 | -59.1 | -82.4 | 255 | 2 | |
| 2008-01-01T00:00 | 21110 | 44 | -59.1 | -82.4 | 249 | 2 | |
| 2008-01-01T00:00 | 21129 | 44 | -59.1 | -82.4 | 240 | 2 | |
| 2008-01-01T00:00 | 21149 | 44 | -59.1 | -82.4 | 229 | 1 | |
| 2008-01-01T00:00 | 21171 | 44 | -59.1 | -82.4 | 220 | 1 | |
| 2008-01-01T00:00 | 21192 | 44 | -59.0 | -82.3 | 220 | 1 | |
| 2008-01-01T00:00 | 21214 | 44 | -59.0 | -82.3 | 230 | 2 | |
| 2008-01-01T00:00 | 21238 | 43 | -58.8 | -82.2 | 241 | 2 | |
| 2008-01-01T00:00 | 21264 | 43 | -58.9 | -82.3 | 252 | 3 | |
| 2008-01-01T00:00 | 21287 | 43 | -58.9 | -82.3 | 261 | 4 | |
| 2008-01-01T00:00 | 21311 | 43 | -58.9 | -82.3 | 268 | 5 | |
| 2008-01-01T00:00 | 21337 | 43 | -59.0 | -82.3 | 275 | 6 | |
| 2008-01-01T00:00 | 21362 | 43 | -58.8 | -82.2 | 281 | 6 | |
| 2008-01-01T00:00 | 21388 | 42 | -58.9 | -82.3 | 287 | 7 | |
| 2008-01-01T00:00 | 21415 | 42 | -58.9 | -80.5 | 293 | 8 | |
| 2008-01-01T00:00 | 21441 | 42 | -59.0 | -80.6 | 297 | 8 | |
| 2008-01-01T00:00 | 21468 | 42 | -59.1 | -80.7 | 301 | 8 | |
| 2008-01-01T00:00 | 21498 | 42 | -59.2 | -82.5 | 303 | 8 | |
| 2008-01-01T00:00 | 21527 | 42 | -59.2 | -82.5 | 305 | 8 | |
| 2008-01-01T00:00 | 21555 | 41 | -59.2 | -82.5 | 306 | 9 | |
| 2008-01-01T00:00 | 21583 | 41 | -59.3 | -80.9 | 307 | 9 | |
| 2008-01-01T00:00 | 21613 | 41 | -59.4 | -80.9 | 308 | 9 | |
| 2008-01-01T00:00 | 21644 | 41 | -59.4 | -80.9 | 309 | 9 | |
| 2008-01-01T00:00 | 21675 | 41 | -59.2 | -80.8 | 310 | 9 | |
| 2008-01-01T00:00 | 21705 | 40 | -59.3 | -80.9 | 311 | 9 | |
| 2008-01-01T00:00 | 21734 | 40 | -59.4 | -80.9 | 311 | 9 | |
| 2008-01-01T00:00 | 21763 | 40 | -59.4 | -80.9 | 310 | 9 | |
| 2008-01-01T00:00 | 21792 | 40 | -59.4 | -80.9 | 309 | 9 | |
| 2008-01-01T00:00 | 21820 | 40 | -59.6 | -81.1 | 306 | 9 | |
| 2008-01-01T00:00 | 21849 | 39 | -59.7 | -82.9 | 304 | 9 | |
| 2008-01-01T00:00 | 21877 | 39 | -59.6 | -82.8 | 301 | 9 | |
| 2008-01-01T00:00 | 21902 | 39 | -59.5 | -82.7 | 298 | 9 | |
| 2008-01-01T00:00 | 21928 | 39 | -59.6 | -81.1 | 295 | 9 | |
| 2008-01-01T00:00 | 21953 | 39 | -59.7 | -81.2 | 293 | 9 | |
| 2008-01-01T00:00 | 21978 | 39 | -59.7 | -82.9 | 291 | 9 | |
| 2008-01-01T00:00 | 22002 | 38 | -59.6 | -82.8 | 290 | 8 | |
| 2008-01-01T00:00 | 22026 | 38 | -59.4 | -82.7 | 289 | 8 | |
| 2008-01-01T00:00 | 22046 | 38 | -59.2 | -82.5 | 289 | 8 | |
| 2008-01-01T00:00 | 22070 | 38 | -59.0 | -82.3 | 289 | 7 | |
| 2008-01-01T00:00 | 22092 | 38 | -59.1 | -82.4 | 290 | 7 | |
| 2008-01-01T00:00 | 22112 | 38 | -59.3 | -82.6 | 292 | 6 | |
| 2008-01-01T00:00 | 22133 | 38 | -59.5 | -82.7 | 294 | 6 | |
| 2008-01-01T00:00 | 22153 | 38 | -59.6 | -82.8 | 298 | 6 | |
| 2008-01-01T00:00 | 22171 | 37 | -59.7 | -82.9 | 302 | 6 | |
| 2008-01-01T00:00 | 22190 | 37 | -59.8 | -83.0 | 307 | 6 | |
| 2008-01-01T00:00 | 22209 | 37 | -59.9 | -83.1 | 313 | 5 | |
| 2008-01-01T00:00 | 22226 | 37 | -59.9 | -83.1 | 318 | 5 | |
| 2008-01-01T00:00 | 22242 | 37 | -59.5 | -82.7 | 322 | 5 | |
| 2008-01-01T00:00 | 22261 | 37 | -59.3 | -82.6 | 324 | 5 | |
| 2008-01-01T00:00 | 22279 | 37 | -59.0 | -82.3 | 324 | 4 | |
| 2008-01-01T00:00 | 22295 | 37 | -58.8 | -82.2 | 321 | 4 | |
| 2008-01-01T00:00 | 22311 | 37 | -58.8 | -82.2 | 315 | 4 | |
| 2008-01-01T00:00 | 22329 | 37 | -58.9 | -82.3 | 306 | 3 | |
| 2008-01-01T00:00 | 22349 | 36 | -59.0 | -82.3 | 294 | 3 | |
| 2008-01-01T00:00 | 22367 | 36 | -59.0 | -82.3 | 281 | 3 | |
| 2008-01-01T00:00 | 22385 | 36 | -59.1 | -82.4 | 270 | 4 | |
| 2008-01-01T00:00 | 22405 | 36 | -59.1 | -82.4 | 262 | 4 | |
| 2008-01-01T00:00 | 22423 | 36 | -59.1 | -82.4 | 257 | 4 | |
| 2008-01-01T00:00 | 22442 | 36 | -59.0 | -82.3 | 255 | 4 | |
| 2008-01-01T00:00 | 22461 | 36 | -58.9 | -82.3 | 255 | 4 | |
| 2008-01-01T00:00 | 22479 | 36 | -59.0 | -82.3 | 256 | 4 | |
| 2008-01-01T00:00 | 22498 | 36 | -59.0 | -82.3 | 258 | 4 | |
| 2008-01-01T00:00 | 22519 | 35 | -59.0 | -82.3 | 259 | 5 | |
| 2008-01-01T00:00 | 22540 | 35 | -59.1 | -82.4 | 260 | 5 | |
| 2008-01-01T00:00 | 22562 | 35 | -59.1 | -82.4 | 260 | 6 | |
| 2008-01-01T00:00 | 22584 | 35 | -59.3 | -82.6 | 261 | 6 | |
| 2008-01-01T00:00 | 22607 | 35 | -59.4 | -82.7 | 262 | 7 | |
| 2008-01-01T00:00 | 22631 | 35 | -59.6 | -82.8 | 263 | 7 | |
| 2008-01-01T00:00 | 22652 | 35 | -59.8 | -83.0 | 265 | 7 | |
| 2008-01-01T00:00 | 22678 | 35 | -60.0 | -83.1 | 268 | 8 | |
| 2008-01-01T00:00 | 22702 | 34 | -60.2 | -83.3 | 271 | 8 | |
| 2008-01-01T00:00 | 22728 | 34 | -60.3 | -83.4 | 274 | 8 | |
| 2008-01-01T00:00 | 22755 | 34 | -60.3 | -83.4 | 277 | 9 | |
| 2008-01-01T00:00 | 22780 | 34 | -59.9 | -83.1 | 280 | 9 | |
| 2008-01-01T00:00 | 22807 | 34 | -59.9 | -83.1 | 282 | 10 | |
| 2008-01-01T00:00 | 22836 | 34 | -60.1 | -83.2 | 284 | 10 | |
| 2008-01-01T00:00 | 22866 | 34 | -60.2 | -83.3 | 285 | 11 | |
| 2008-01-01T00:00 | 22897 | 33 | -60.5 | -83.5 | 286 | 11 | |
| 2008-01-01T00:00 | 22926 | 33 | -60.7 | -83.7 | 286 | 12 | |
| 2008-01-01T00:00 | 22958 | 33 | -60.9 | -83.9 | 287 | 12 | |
| 2008-01-01T00:00 | 22989 | 33 | -61.0 | -83.9 | 289 | 12 | |
| 2008-01-01T00:00 | 23021 | 33 | -60.9 | -83.9 | 290 | 12 | |
| 2008-01-01T00:00 | 23052 | 33 | -60.8 | -83.8 | 291 | 12 | |
| 2008-01-01T00:00 | 23084 | 32 | -61.0 | -83.9 | 292 | 12 | |
| 2008-01-01T00:00 | 23118 | 32 | -61.1 | -84.0 | 293 | 12 | |
| 2008-01-01T00:00 | 23149 | 32 | -61.3 | -84.2 | 293 | 12 | |
| 2008-01-01T00:00 | 23179 | 32 | -61.5 | -84.3 | 293 | 12 | |
| 2008-01-01T00:00 | 23210 | 32 | -61.6 | -82.7 | 293 | 12 | |
| 2008-01-01T00:00 | 23242 | 32 | -61.9 | -83.0 | 294 | 11 | |
| 2008-01-01T00:00 | 23271 | 31 | -62.0 | -83.1 | 295 | 11 | |
| 2008-01-01T00:00 | 23302 | 31 | -62.2 | -83.2 | 296 | 11 | |
| 2008-01-01T00:00 | 23330 | 31 | -62.4 | -83.4 | 297 | 11 | |
| 2008-01-01T00:00 | 23359 | 31 | -62.7 | -83.6 | 297 | 11 | |
| 2008-01-01T00:00 | 23389 | 31 | -62.9 | -83.8 | 298 | 11 | |
| 2008-01-01T00:00 | 23416 | 31 | -63.0 | -83.9 | 299 | 11 | |
| 2008-01-01T00:00 | 23444 | 31 | -63.2 | -84.0 | 299 | 11 | |
| 2008-01-01T00:00 | 23469 | 30 | -63.3 | -84.1 | 300 | 11 | |
| 2008-01-01T00:00 | 23493 | 30 | -63.4 | -84.2 | 300 | 11 | |
| 2008-01-01T00:00 | 23520 | 30 | -63.4 | -84.2 | 300 | 11 | |
| 2008-01-01T00:00 | 23543 | 30 | -63.3 | -84.1 | 301 | 11 | |
| 2008-01-01T00:00 | 23566 | 30 | -63.3 | -84.1 | 302 | 11 | |
| 2008-01-01T00:00 | 23588 | 30 | -63.4 | -84.2 | 303 | 11 | |
| 2008-01-01T00:00 | 23611 | 30 | -63.6 | -84.4 | 304 | 11 | |
| 2008-01-01T00:00 | 23635 | 30 | -63.7 | -84.4 | 305 | 11 | |
| 2008-01-01T00:00 | 23656 | 30 | -63.8 | -84.5 | 306 | 11 | |
| 2008-01-01T00:00 | 23679 | 29 | -63.7 | -84.4 | 307 | 11 | |
| 2008-01-01T00:00 | 23699 | 29 | -63.7 | -84.4 | 307 | 12 | |
| 2008-01-01T00:00 | 23720 | 29 | -63.7 | -86.1 | 307 | 12 | |
| 2008-01-01T00:00 | 23740 | 29 | -63.6 | -86.0 | 308 | 12 | |
| 2008-01-01T00:00 | 23761 | 29 | -63.5 | -85.9 | 308 | 12 | |
| 2008-01-01T00:00 | 23782 | 29 | -63.6 | -86.0 | 309 | 12 | |
| 2008-01-01T00:00 | 23801 | 29 | -63.6 | -84.4 | 309 | 12 | |
| 2008-01-01T00:00 | 23822 | 29 | -63.6 | -84.4 | 310 | 12 | |
| 2008-01-01T00:00 | 23842 | 29 | -63.4 | -84.2 | 310 | 11 | |
| 2008-01-01T00:00 | 23863 | 29 | -63.5 | -84.3 | 311 | 11 | |
| 2008-01-01T00:00 | 23882 | 28 | -63.5 | -84.3 | 311 | 10 | |
| 2008-01-01T00:00 | 23905 | 28 | -63.6 | -84.4 | 310 | 10 | |
| 2008-01-01T00:00 | 23929 | 28 | -63.7 | -84.4 | 309 | 10 | |
| 2008-01-01T00:00 | 23952 | 28 | -63.7 | -84.4 | 308 | 9 | |
| 2008-01-01T00:00 | 23975 | 28 | -63.6 | -84.4 | 306 | 9 | |
| 2008-01-01T00:00 | 23999 | 28 | -63.3 | -84.1 | 305 | 9 | |
| 2008-01-01T00:00 | 24025 | 28 | -63.2 | -84.0 | 304 | 9 | |
| 2008-01-01T00:00 | 24048 | 28 | -63.2 | -84.0 | 303 | 9 | |
| 2008-01-01T00:00 | 24076 | 28 | -63.3 | -84.1 | 301 | 9 | |
| 2008-01-01T00:00 | 24103 | 27 | -63.2 | -84.0 | 298 | 9 | |
| 2008-01-01T00:00 | 24129 | 27 | -62.8 | -83.7 | 295 | 9 | |
| 2008-01-01T00:00 | 24159 | 27 | -62.7 | -83.6 | 292 | 10 | |
| 2008-01-01T00:00 | 24188 | 27 | -62.8 | -83.7 | 289 | 10 | |
| 2008-01-01T00:00 | 24216 | 27 | -63.0 | -83.9 | 287 | 10 | |
| 2008-01-01T00:00 | 24248 | 27 | -62.9 | -83.8 | 285 | 10 | |
| 2008-01-01T00:00 | 24276 | 27 | -62.7 | -83.6 | 284 | 9 | |
| 2008-01-01T00:00 | 24306 | 27 | -62.8 | -83.7 | 282 | 9 | |
| 2008-01-01T00:00 | 24337 | 26 | -62.7 | -83.6 | 281 | 8 | |
| 2008-01-01T00:00 | 24369 | 26 | -62.6 | -83.5 | 280 | 8 | |
| 2008-01-01T00:00 | 24398 | 26 | -62.6 | -83.5 | 278 | 8 | |
| 2008-01-01T00:00 | 24430 | 26 | -62.4 | -83.4 | 278 | 9 | |
| 2008-01-01T00:00 | 24460 | 26 | -62.5 | -83.5 | 278 | 10 | |
| 2008-01-01T00:00 | 24491 | 26 | -62.6 | -83.5 | 278 | 10 | |
| 2008-01-01T00:00 | 24524 | 26 | -62.7 | -83.6 | 279 | 11 | |
| 2008-01-01T00:00 | 24554 | 26 | -62.8 | -83.7 | 280 | 12 | |
| 2008-01-01T00:00 | 24586 | 25 | -62.9 | -83.8 | 281 | 12 | |
| 2008-01-01T00:00 | 24615 | 25 | -63.0 | -83.9 | 282 | 13 | |
| 2008-01-01T00:00 | 24646 | 25 | -63.1 | -83.9 | 283 | 13 | |
| 2008-01-01T00:00 | 24673 | 25 | -63.1 | -83.9 | 284 | 13 | |
| 2008-01-01T00:00 | 24700 | 25 | -63.1 | -83.9 | 284 | 13 | |
| 2008-01-01T00:00 | 24728 | 25 | -63.0 | -83.9 | 284 | 13 | |
| 2008-01-01T00:00 | 24754 | 25 | -62.8 | -83.7 | 284 | 12 | |
| 2008-01-01T00:00 | 24780 | 25 | -62.9 | -83.8 | 284 | 11 | |
| 2008-01-01T00:00 | 24802 | 24 | -62.9 | -83.8 | 283 | 11 | |
| 2008-01-01T00:00 | 24827 | 24 | -62.9 | -83.8 | 283 | 10 | |
| 2008-01-01T00:00 | 24850 | 24 | -62.9 | -83.8 | 283 | 9 | |
| 2008-01-01T00:00 | 24871 | 24 | -62.7 | -83.6 | 284 | 8 | |
| 2008-01-01T00:00 | 24895 | 24 | -62.8 | -83.7 | 285 | 7 | |
| 2008-01-01T00:00 | 24914 | 24 | -62.8 | -83.7 | 286 | 7 | |
| 2008-01-01T00:00 | 24935 | 24 | -62.6 | -83.5 | 286 | 6 | |
| 2008-01-01T00:00 | 24956 | 24 | -62.2 | -83.2 | 286 | 7 | |
| 2008-01-01T00:00 | 24976 | 24 | -62.0 | -83.1 | 286 | 7 | |
| 2008-01-01T00:00 | 24995 | 24 | -61.8 | -82.9 | 287 | 8 | |
| 2008-01-01T00:00 | 25017 | 24 | -61.9 | -83.0 | 288 | 8 | |
| 2008-01-01T00:00 | 25035 | 24 | -61.9 | -83.0 | 289 | 9 | |
| 2008-01-01T00:00 | 25054 | 24 | -61.9 | -83.0 | 291 | 10 | |
| 2008-01-01T00:00 | 25073 | 23 | -61.9 | -83.0 | 291 | 10 | |
| 2008-01-01T00:00 | 25089 | 23 | -61.7 | 291 | 11 | ||
| 2008-01-01T00:00 | 25107 | 23 | -61.5 | -82.6 | 290 | 11 | |
| 2008-01-01T00:00 | 25126 | 23 | -61.0 | -82.2 | 288 | 11 | |
| 2008-01-01T00:00 | 25143 | 23 | -60.6 | -81.9 | 286 | 11 | |
| 2008-01-01T00:00 | 25162 | 23 | -60.5 | -81.8 | 283 | 10 | |
| 2008-01-01T00:00 | 25182 | 23 | -60.6 | -81.9 | 280 | 10 | |
| 2008-01-01T00:00 | 25201 | 23 | -60.7 | -82.0 | 277 | 10 | |
| 2008-01-01T00:00 | 25221 | 23 | -60.8 | -82.1 | 274 | 10 | |
| 2008-01-01T00:00 | 25245 | 23 | -60.8 | -82.1 | 272 | 10 | |
| 2008-01-01T00:00 | 25266 | 23 | -60.6 | -81.9 | 270 | 10 | |
| 2008-01-01T00:00 | 25289 | 23 | -60.6 | -81.9 | 270 | 10 | |
| 2008-01-01T00:00 | 25310 | 23 | -60.5 | -81.8 | 272 | 11 | |
| 2008-01-01T00:00 | 25330 | 22 | -60.6 | -81.9 | 274 | 11 | |
| 2008-01-01T00:00 | 25354 | 22 | -60.5 | -81.8 | 277 | 11 | |
| 2008-01-01T00:00 | 25378 | 22 | -60.3 | -81.7 | 280 | 11 | |
| 2008-01-01T00:00 | 25402 | 22 | -60.1 | -81.5 | 282 | 11 | |
| 2008-01-01T00:00 | 25428 | 22 | -60.0 | 284 | 11 | ||
| 2008-01-01T00:00 | 25453 | 22 | -60.1 | -81.5 | 286 | 11 | |
| 2008-01-01T00:00 | 25482 | 22 | -60.1 | -81.5 | 288 | 11 | |
| 2008-01-01T00:00 | 25511 | 22 | -60.3 | -81.7 | 289 | 12 | |
| 2008-01-01T00:00 | 25541 | 22 | -60.3 | -81.7 | 291 | 12 | |
| 2008-01-01T00:00 | 25574 | 22 | -60.2 | -81.6 | 294 | 12 | |
| 2008-01-01T00:00 | 25604 | 22 | -60.2 | -81.6 | 296 | 13 | |
| 2008-01-01T00:00 | 25638 | 21 | -60.0 | 297 | 13 | ||
| 2008-01-01T00:00 | 25671 | 21 | -60.2 | -81.6 | 298 | 14 | |
| 2008-01-01T00:00 | 25707 | 21 | -60.3 | -81.7 | 298 | 14 | |
| 2008-01-01T00:00 | 25742 | 21 | -60.3 | -81.7 | 296 | 14 | |
| 2008-01-01T00:00 | 25774 | 21 | -59.9 | -81.3 | 294 | 14 | |
| 2008-01-01T00:00 | 25807 | 21 | -60.0 | 291 | 15 | ||
| 2008-01-01T00:00 | 25842 | 21 | -60.0 | 289 | 15 | ||
| 2008-01-01T00:00 | 25875 | 21 | -60.1 | -81.5 | 286 | 15 | |
| 2008-01-01T00:00 | 25908 | 21 | -60.2 | -81.6 | 283 | 15 | |
| 2008-01-01T00:00 | 25944 | 20 | -60.2 | -81.6 | 280 | 15 | |
| 2008-01-01T00:00 | 25976 | 20 | -60.3 | -81.7 | 278 | 15 | |
| 2008-01-01T00:00 | 26006 | 20 | -60.5 | -81.8 | 276 | 15 | |
| 2008-01-01T00:00 | 26038 | 20 | -60.8 | -82.1 | 274 | 15 | |
| 2008-01-01T00:00 | 26066 | 20 | -60.9 | -82.2 | 272 | 16 | |
| 2008-01-01T00:00 | 26094 | 20 | -61.0 | -82.2 | 271 | 16 | |
| 2008-01-01T00:00 | 26126 | 20 | -61.1 | -82.3 | 270 | 16 | |
| 2008-01-01T00:00 | 26156 | 20 | -61.1 | -82.3 | 268 | 17 | |
| 2008-01-01T00:00 | 26185 | 20 | -60.9 | -82.2 | 267 | 17 | |
| 2008-01-01T00:00 | 26212 | 20 | -60.9 | -82.2 | 266 | 17 | |
| 2008-01-01T00:00 | 26240 | 19 | -61.1 | -82.3 | 264 | 17 | |
| 2008-01-01T00:00 | 26264 | 19 | -61.0 | -82.2 | 263 | 17 | |
| 2008-01-01T00:00 | 26291 | 19 | -61.1 | -82.3 | 261 | 17 | |
| 2008-01-01T00:00 | 26316 | 19 | -61.0 | -82.2 | 259 | 17 | |
| 2008-01-01T00:00 | 26342 | 19 | -61.0 | -82.2 | 258 | 17 | |
| 2008-01-01T00:00 | 26371 | 19 | -61.2 | -82.4 | 257 | 17 | |
| 2008-01-01T00:00 | 26394 | 19 | -61.4 | -82.6 | 257 | 17 | |
| 2008-01-01T00:00 | 26419 | 19 | -61.4 | -82.6 | 258 | 16 | |
| 2008-01-01T00:00 | 26444 | 19 | -61.4 | -82.6 | 260 | 16 | |
| 2008-01-01T00:00 | 26469 | 19 | -61.5 | -82.6 | 261 | 16 | |
| 2008-01-01T00:00 | 26491 | 19 | -61.4 | -82.6 | 263 | 16 | |
| 2008-01-01T00:00 | 26517 | 19 | -61.6 | -82.7 | 263 | 15 | |
| 2008-01-01T00:00 | 26543 | 19 | -61.7 | 263 | 15 | ||
| 2008-01-01T00:00 | 26564 | 18 | -61.8 | -82.9 | 263 | 14 | |
| 2008-01-01T00:00 | 26588 | 18 | -61.9 | -83.0 | 262 | 13 | |
| 2008-01-01T00:00 | 26611 | 18 | -62.0 | -83.1 | 261 | 13 | |
| 2008-01-01T00:00 | 26637 | 18 | -62.1 | -83.1 | 261 | 13 | |
| 2008-01-01T00:00 | 26662 | 18 | -62.2 | -83.2 | 262 | 12 | |
| 2008-01-01T00:00 | 26683 | 18 | -62.3 | -83.3 | 263 | 12 | |
| 2008-01-01T00:00 | 26710 | 18 | -62.5 | -83.5 | 264 | 12 | |
| 2008-01-01T00:00 | 26735 | 18 | -62.7 | -83.6 | 265 | 13 | |
| 2008-01-01T00:00 | 26757 | 18 | -62.6 | -83.5 | 267 | 13 | |
| 2008-01-01T00:00 | 26784 | 18 | -62.5 | -83.5 | 268 | 14 | |
| 2008-01-01T00:00 | 26811 | 18 | -62.5 | -83.5 | 270 | 14 | |
| 2008-01-01T00:00 | 26833 | 18 | -62.6 | -83.5 | 271 | 15 | |
| 2008-01-01T00:00 | 26859 | 18 | -62.6 | -83.5 | 272 | 15 | |
| 2008-01-01T00:00 | 26883 | 18 | -62.7 | -83.6 | 273 | 15 | |
| 2008-01-01T00:00 | 26911 | 17 | -62.7 | -83.6 | 274 | 15 | |
| 2008-01-01T00:00 | 26939 | 17 | -62.9 | -83.8 | 275 | 15 | |
| 2008-01-01T00:00 | 26964 | 17 | -63.0 | -83.9 | 275 | 15 | |
| 2008-01-01T00:00 | 26985 | 17 | -63.2 | -84.0 | 276 | 15 | |
| 2008-01-01T00:00 | 27016 | 17 | -63.3 | -84.1 | 277 | 15 | |
| 2008-01-01T00:00 | 27040 | 17 | -63.5 | -84.3 | 278 | 15 | |
| 2008-01-01T00:00 | 27066 | 17 | -63.6 | -84.4 | 279 | 14 | |
| 2008-01-01T00:00 | 27093 | 17 | -63.8 | -84.5 | 279 | 14 | |
| 2008-01-01T00:00 | 27119 | 17 | -63.9 | -84.6 | 280 | 14 | |
| 2008-01-01T00:00 | 27145 | 17 | -64.0 | -84.7 | 280 | 14 | |
| 2008-01-01T00:00 | 27174 | 17 | -64.2 | -84.8 | 280 | 14 | |
| 2008-01-01T00:00 | 27199 | 17 | -64.3 | -84.9 | 279 | 14 | |
| 2008-01-01T00:00 | 27227 | 17 | -64.5 | -85.1 | 279 | 14 | |
| 2008-01-01T00:00 | 27250 | 17 | -64.6 | -85.2 | 277 | 14 | |
| 2008-01-01T00:00 | 27278 | 16 | -64.7 | -85.2 | 276 | 14 | |
| 2008-01-01T00:00 | 27307 | 16 | -64.8 | -85.3 | 275 | 14 | |
| 2008-01-01T00:00 | 27336 | 16 | -65.0 | -85.5 | 273 | 15 | |
| 2008-01-01T00:00 | 27360 | 16 | -65.1 | -85.6 | 272 | 15 | |
| 2008-01-01T00:00 | 27389 | 16 | -65.2 | -85.7 | 272 | 16 | |
| 2008-01-01T00:00 | 27415 | 16 | -65.2 | -85.7 | 272 | 16 | |
| 2008-01-01T00:00 | 27441 | 16 | -65.3 | -85.7 | 273 | 16 | |
| 2008-01-01T00:00 | 27472 | 16 | -65.5 | -85.9 | 274 | 15 | |
| 2008-01-01T00:00 | 27498 | 16 | -65.6 | -86.0 | 275 | 15 | |
| 2008-01-01T00:00 | 27523 | 16 | -65.8 | -86.1 | 276 | 15 | |
| 2008-01-01T00:00 | 27551 | 16 | -65.9 | -86.2 | 277 | 15 | |
| 2008-01-01T00:00 | 27581 | 16 | -66.1 | -86.4 | 277 | 14 | |
| 2008-01-01T00:00 | 27604 | 16 | -66.2 | -86.5 | 278 | 15 | |
| 2008-01-01T00:00 | 27631 | 16 | -66.4 | -86.6 | 278 | 15 | |
| 2008-01-01T00:00 | 27655 | 15 | -66.5 | -86.7 | 279 | 15 | |
| 2008-01-01T00:00 | 27683 | 15 | -66.6 | -86.8 | 280 | 15 | |
| 2008-01-01T00:00 | 27709 | 15 | -66.7 | -86.9 | 281 | 15 | |
| 2008-01-01T00:00 | 27738 | 15 | -66.8 | -87.0 | 282 | 15 | |
| 2008-01-01T00:00 | 27762 | 15 | -67.0 | -87.1 | 283 | 15 | |
| 2008-01-01T00:00 | 27791 | 15 | -67.1 | -87.2 | 285 | 15 | |
| 2008-01-01T00:00 | 27821 | 15 | -67.3 | -87.4 | 286 | 15 | |
| 2008-01-01T00:00 | 27848 | 15 | -67.5 | -87.5 | 287 | 15 | |
| 2008-01-01T00:00 | 27876 | 15 | -67.7 | -87.7 | 289 | 16 | |
| 2008-01-01T00:00 | 27902 | 15 | -67.9 | -87.9 | 290 | 16 | |
| 2008-01-01T00:00 | 27930 | 15 | -68.1 | -88.0 | 292 | 16 | |
| 2008-01-01T00:00 | 27960 | 15 | -68.0 | -87.9 | 293 | 16 | |
| 2008-01-01T00:00 | 27988 | 15 | -67.7 | -87.7 | 293 | 17 | |
| 2008-01-01T00:00 | 28018 | 15 | -67.4 | -87.5 | 294 | 17 | |
| 2008-01-01T00:00 | 28044 | 14 | -66.7 | -86.9 | 293 | 18 | |
| 2008-01-01T00:00 | 28071 | 14 | -66.3 | -86.6 | 293 | 18 | |
| 2008-01-01T00:00 | 28099 | 14 | -66.5 | -86.7 | 292 | 18 | |
| 2008-01-01T00:00 | 28132 | 14 | -66.6 | -86.8 | 291 | 18 | |
| 2008-01-01T00:00 | 28160 | 14 | -66.8 | -87.0 | 290 | 19 | |
| 2008-01-01T00:00 | 28190 | 14 | -66.8 | -87.0 | 289 | 19 | |
| 2008-01-01T00:00 | 28217 | 14 | -66.8 | -87.0 | 288 | 20 | |
| 2008-01-01T00:00 | 28245 | 14 | -66.9 | -87.0 | 288 | 20 | |
| 2008-01-01T00:00 | 28277 | 14 | -67.0 | -87.1 | 287 | 21 | |
| 2008-01-01T00:00 | 28304 | 14 | -67.1 | -87.2 | 287 | 21 | |
| 2008-01-01T00:00 | 28332 | 14 | -67.1 | -87.2 | 287 | 21 | |
| 2008-01-01T00:00 | 28360 | 14 | -67.0 | -87.1 | 287 | 21 | |
| 2008-01-01T00:00 | 28393 | 14 | -66.9 | -87.0 | 287 | 21 | |
| 2008-01-01T00:00 | 28419 | 14 | -66.8 | -87.0 | 287 | 21 | |
| 2008-01-01T00:00 | 28445 | 14 | -66.8 | -87.0 | 288 | 21 | |
| 2008-01-01T00:00 | 28477 | 13 | -66.9 | -87.0 | 288 | 21 | |
| 2008-01-01T00:00 | 28506 | 13 | -66.8 | -87.0 | 288 | 21 | |
| 2008-01-01T00:00 | 28538 | 13 | -66.7 | -86.9 | 288 | 21 | |
| 2008-01-01T00:00 | 28564 | 13 | -66.5 | -86.7 | 289 | 21 | |
| 2008-01-01T00:00 | 28589 | 13 | -66.6 | -86.8 | 289 | 22 | |
| 2008-01-01T00:00 | 28619 | 13 | -66.3 | -86.6 | 290 | 22 | |
| 2008-01-01T00:00 | 28644 | 13 | -66.1 | -86.4 | 291 | 23 | |
| 2008-01-01T00:00 | 28675 | 13 | -66.0 | -86.3 | 292 | 24 | |
| 2008-01-01T00:00 | 28699 | 13 | -66.0 | -86.3 | 293 | 25 | |
| 2008-01-01T00:00 | 28725 | 13 | -66.0 | -86.3 | 293 | 26 | |
| 2008-01-01T00:00 | 28755 | 13 | -66.2 | -86.5 | 294 | 26 | |
| 2008-01-01T00:00 | 28780 | 13 | -66.4 | -86.6 | 294 | 27 | |
| 2008-01-01T00:00 | 28807 | 13 | -66.5 | -86.7 | 294 | 27 | |
| 2008-01-01T00:00 | 28837 | 13 | -66.3 | -86.6 | 294 | 27 | |
| 2008-01-01T00:00 | 28864 | 13 | -66.2 | -86.5 | 295 | 27 | |
| 2008-01-01T00:00 | 28888 | 13 | -66.0 | -86.3 | 295 | 27 | |
| 2008-01-01T00:00 | 28913 | 13 | -65.9 | -86.2 | 295 | 27 | |
| 2008-01-01T00:00 | 28938 | 13 | -65.8 | -86.1 | 295 | 27 | |
| 2008-01-01T00:00 | 28964 | 12 | -65.6 | -86.0 | 294 | 27 | |
| 2008-01-01T00:00 | 28989 | 12 | -65.3 | -85.7 | 294 | 27 | |
| 2008-01-01T00:00 | 29017 | 12 | -65.3 | -85.7 | 294 | 26 | |
| 2008-01-01T00:00 | 29037 | 12 | -65.5 | -85.9 | 293 | 26 | |
| 2008-01-01T00:00 | 29063 | 12 | -65.6 | -86.0 | 293 | 25 | |
| 2008-01-01T00:00 | 29088 | 12 | -65.8 | -86.1 | 292 | 25 | |
| 2008-01-01T00:00 | 29114 | 12 | -65.8 | -86.1 | 292 | 25 | |
| 2008-01-01T00:00 | 29136 | 12 | -65.7 | -86.1 | 291 | 25 | |
| 2008-01-01T00:00 | 29164 | 12 | -65.7 | -86.1 | 290 | 26 | |
| 2008-01-01T00:00 | 29186 | 12 | -65.8 | -86.1 | 289 | 26 | |
| 2008-01-01T00:00 | 29212 | 12 | -65.9 | -86.2 | 288 | 26 | |
| 2008-01-01T00:00 | 29240 | 12 | -66.1 | -86.4 | 288 | 26 | |
| 2008-01-01T00:00 | 29265 | 12 | -66.1 | -86.4 | 287 | 27 | |
| 2008-01-01T00:00 | 29291 | 12 | -66.2 | -86.5 | 287 | 27 | |
| 2008-01-01T00:00 | 29320 | 12 | -66.2 | -86.5 | 287 | 27 | |
| 2008-01-01T00:00 | 29345 | 12 | -66.2 | -86.5 | 287 | 27 | |
| 2008-01-01T00:00 | 29370 | 12 | -66.1 | -86.4 | 287 | 27 | |
| 2008-01-01T00:00 | 29402 | 12 | -66.1 | -86.4 | 287 | 27 | |
| 2008-01-01T00:00 | 29428 | 12 | -66.0 | -86.3 | 287 | 28 | |
| 2008-01-01T00:00 | 29450 | 11 | -66.0 | -86.3 | 287 | 28 | |
| 2008-01-01T00:00 | 29479 | 11 | -65.9 | -86.2 | 287 | 28 | |
| 2008-01-01T00:00 | 29507 | 11 | -65.9 | -86.2 | 287 | 28 | |
| 2008-01-01T00:00 | 29536 | 11 | -65.9 | -86.2 | 286 | 28 | |
| 2008-01-01T00:00 | 29566 | 11 | -65.9 | -86.2 | 286 | 28 | |
| 2008-01-01T00:00 | 29597 | 11 | -65.9 | -86.2 | 285 | 28 | |
| 2008-01-01T00:00 | 29624 | 11 | -65.9 | -86.2 | 284 | 28 | |
| 2008-01-01T00:00 | 29651 | 11 | -66.1 | -86.4 | 284 | 27 | |
| 2008-01-01T00:00 | 29683 | 11 | -66.3 | -86.6 | 283 | 27 | |
| 2008-01-01T00:00 | 29710 | 11 | -66.3 | -86.6 | 282 | 26 | |
| 2008-01-01T00:00 | 29738 | 11 | -66.4 | -86.6 | 281 | 26 | |
| 2008-01-01T00:00 | 29763 | 11 | -66.5 | -86.7 | 281 | 26 | |
| 2008-01-01T00:00 | 29796 | 11 | -66.7 | -86.9 | 280 | 26 | |
| 2008-01-01T00:00 | 29820 | 11 | -66.8 | -87.0 | 279 | 26 | |
| 2008-01-01T00:00 | 29846 | 11 | -67.0 | -87.1 | 278 | 26 | |
| 2008-01-01T00:00 | 29874 | 11 | -67.1 | -87.2 | 277 | 26 | |
| 2008-01-01T00:00 | 29903 | 11 | -67.3 | -87.4 | 276 | 26 | |
| 2008-01-01T00:00 | 29929 | 11 | -67.4 | -87.5 | 276 | 27 | |
| 2008-01-01T00:00 | 29957 | 11 | -67.4 | -87.5 | 275 | 27 | |
| 2008-01-01T00:00 | 29985 | 11 | -67.5 | -87.5 | 275 | 27 | |
| 2008-01-01T00:00 | 30009 | 10 | -67.5 | -87.5 | 275 | 27 | |
| 2008-01-01T00:00 | 30039 | 10 | -67.6 | -87.6 | 275 | 27 | |
| 2008-01-01T00:00 | 30063 | 10 | -67.7 | -87.7 | 276 | 27 | |
| 2008-01-01T00:00 | 30087 | 10 | -67.8 | -87.8 | 277 | 28 | |
| 2008-01-01T00:00 | 30120 | 10 | -68.0 | -87.9 | 279 | 28 | |
| 2008-01-01T00:00 | 30144 | 10 | -68.1 | -88.0 | 281 | 29 | |
| 2008-01-01T00:00 | 30168 | 10 | -67.6 | -87.6 | 283 | 30 | |
| 2008-01-01T00:00 | 30196 | 10 | -67.4 | -87.5 | 285 | 31 | |
| 2008-01-01T00:00 | 30219 | 10 | -67.0 | -87.1 | 287 | 31 | |
| 2008-01-01T00:00 | 30248 | 10 | -66.5 | -86.7 | 289 | 32 | |
| 2008-01-01T00:00 | 30275 | 10 | -66.3 | -86.6 | 290 | 32 | |
| 2008-01-01T00:00 | 30298 | 10 | -66.4 | -86.6 | 291 | 32 | |
| 2008-01-01T00:00 | 30323 | 10 | -66.6 | -86.8 | 291 | 32 | |
| 2008-01-01T00:00 | 30347 | 10 | -66.6 | -86.8 | 292 | 32 | |
| 2008-01-01T00:00 | 30369 | 10 | -66.6 | -86.8 | 292 | 32 | |
| 2008-01-01T00:00 | 30396 | 10 | -66.6 | -86.8 | 292 | 32 | |
| 2008-01-01T00:00 | 30415 | 10 | -66.8 | -87.0 | 292 | 32 | |
| 2008-01-01T00:00 | 30441 | 10 | -66.8 | -87.0 | 292 | 32 | |
| 2008-01-01T00:00 | 30470 | 10 | -66.7 | -86.9 | 292 | 32 | |
| 2008-01-01T00:00 | 30492 | 10 | -66.5 | -86.7 | 291 | 32 | |
| 2008-01-01T00:00 | 30516 | 10 | -66.4 | -86.6 | 291 | 32 | |
| 2008-01-01T00:00 | 30537 | 10 | -66.3 | -86.6 | 291 | 32 | |
| 2008-01-01T00:00 | 30560 | 10 | -66.3 | -86.6 | 290 | 32 | |
| 2008-01-01T00:00 | 30581 | 10 | -66.4 | -86.6 | 290 | 33 | |
| 2008-01-01T00:00 | 30608 | 9 | -66.3 | -86.6 | 290 | 33 | |
| 2008-01-01T00:00 | 30638 | 9 | -66.3 | -86.6 | 289 | 33 | |
| 2008-01-01T00:00 | 30663 | 9 | -66.2 | -86.5 | 289 | 33 | |
| 2008-01-01T00:00 | 30689 | 9 | -66.2 | -86.5 | 289 | 34 | |
| 2008-01-01T00:00 | 30711 | 9 | -66.0 | -86.3 | 288 | 34 | |
| 2008-01-01T00:00 | 30738 | 9 | -65.8 | -86.1 | 288 | 34 | |
| 2008-01-01T00:00 | 30760 | 9 | -65.5 | -85.9 | 288 | 34 | |
| 2008-01-01T00:00 | 30785 | 9 | -65.5 | -85.9 | 289 | 34 | |
| 2008-01-01T00:00 | 30811 | 9 | -65.4 | -85.8 | 289 | 34 | |
| 2008-01-01T00:00 | 30837 | 9 | -65.2 | -85.7 | 289 | 35 | |
| 2008-01-01T00:00 | 30856 | 9 | -65.1 | -85.6 | 289 | 35 | |
| 2008-01-01T00:00 | 30887 | 9 | -65.0 | -85.5 | 289 | 35 | |
| 2008-01-01T00:00 | 30915 | 9 | -65.0 | -85.5 | 288 | 35 | |
| 2008-01-01T00:00 | 30940 | 9 | -65.0 | -85.5 | 288 | 35 | |
| 2008-01-01T00:00 | 30967 | 9 | -65.1 | -85.6 | 287 | 36 | |
| 2008-01-01T00:00 | 30991 | 9 | -65.0 | -85.5 | 286 | 36 | |
| 2008-01-01T00:00 | 31017 | 9 | -65.0 | -85.5 | 286 | 36 | |
| 2008-01-01T00:00 | 31040 | 9 | -64.7 | -85.2 | 286 | 36 | |
| 2008-01-01T00:00 | 31063 | 9 | -64.3 | -84.9 | 286 | 36 | |
| 2008-01-01T00:00 | 31093 | 9 | -64.1 | -84.8 | 286 | 36 | |
| 2008-01-01T00:00 | 31121 | 9 | -64.1 | -84.8 | 286 | 35 | |
| 2008-01-01T00:00 | 31148 | 9 | -64.2 | -84.8 | 285 | 35 | |
| 2008-01-01T00:00 | 31171 | 9 | -64.3 | -84.9 | 285 | 35 | |
| 2008-01-01T00:00 | 31201 | 9 | -64.3 | -84.9 | 284 | 35 | |
| 2008-01-01T00:00 | 31224 | 9 | -64.2 | -84.8 | 283 | 35 | |
| 2008-01-01T00:00 | 31247 | 9 | -64.2 | -84.8 | 282 | 36 | |
| 2008-01-01T00:00 | 31275 | 9 | -64.2 | -84.8 | 282 | 36 | |
| 2008-01-01T00:00 | 31303 | 8 | -64.2 | -84.8 | 282 | 37 | |
| 2008-01-01T00:00 | 31325 | 8 | -63.9 | -84.6 | 282 | 38 | |
| 2008-01-01T00:00 | 31350 | 8 | -63.7 | -84.4 | 283 | 38 | |
| 2008-01-01T00:00 | 31378 | 8 | -63.5 | -84.3 | 283 | 38 | |
| 2008-01-01T00:00 | 31404 | 8 | -63.3 | -84.1 | 284 | 39 | |
| 2008-01-01T00:00 | 31434 | 8 | -63.0 | -83.9 | 284 | 39 | |
| 2008-01-01T00:00 | 31458 | 8 | -62.9 | -83.8 | 284 | 40 | |
| 2008-01-01T00:00 | 31481 | 8 | -62.9 | -83.8 | 283 | 40 | |
| 2008-01-01T00:00 | 31505 | 8 | -62.8 | -83.7 | 283 | 40 | |
| 2008-01-01T00:00 | 31529 | 8 | -62.4 | -83.4 | 283 | 41 | |
| 2008-01-01T00:00 | 31552 | 8 | -62.1 | -83.1 | 282 | 41 | |
| 2008-01-01T00:00 | 31590 | 8 | -62.0 | -83.1 | 282 | 41 | |
| 2008-01-01T00:00 | 31614 | 8 | -61.6 | -82.7 | 282 | 41 | |
| 2008-01-01T00:00 | 31639 | 8 | -61.7 | 281 | 41 | ||
| 2008-01-01T00:00 | 31664 | 8 | -61.7 | 281 | 41 | ||
| 2008-01-01T00:00 | 31689 | 8 | -61.8 | -82.9 | 281 | 42 | |
| 2008-01-01T00:00 | 31722 | 8 | -61.6 | -82.7 | 282 | 42 | |
| 2008-01-01T00:00 | 31749 | 8 | -61.0 | -82.2 | 283 | 43 | |
| 2008-01-01T00:00 | 31776 | 8 | -60.3 | -81.7 | 284 | 44 | |
| 2008-01-01T00:00 | 31807 | 8 | -60.0 | 285 | 45 | ||
| 2008-01-01T00:00 | 31833 | 8 | -60.0 | 285 | 45 | ||
| 2008-01-01T00:00 | 31863 | 8 | -59.8 | -81.3 | 286 | 46 | |
| 2008-01-01T00:00 | 31893 | 8 | -59.8 | -81.3 | 287 | 46 | |
| 2008-01-01T00:00 | 31924 | 8 | -59.5 | -81.0 | 287 | 46 | |
| 2008-01-01T00:00 | 31951 | 8 | -59.5 | -81.0 | 287 | 46 | |
| 2008-01-01T00:00 | 31975 | 8 | -59.5 | -81.0 | 288 | 45 | |
| 2008-01-01T00:00 | 32009 | 8 | -59.6 | -81.1 | 288 | 45 | |
| 2008-01-01T00:00 | 32040 | 8 | -59.5 | -81.0 | 288 | 45 | |
| 2008-01-01T00:00 | 32071 | 7 | -59.2 | -80.8 | 287 | 45 | |
| 2008-01-01T00:00 | 32098 | 7 | -59.2 | -80.8 | 287 | 45 | |
| 2008-01-01T00:00 | 32125 | 7 | -59.1 | -80.7 | 287 | 45 | |
| 2008-01-01T00:00 | 32155 | 7 | -59.2 | -82.5 | 286 | 45 | |
| 2008-01-01T00:00 | 32187 | 7 | -59.1 | -82.4 | 286 | 45 | |
| 2008-01-01T00:00 | 32214 | 7 | -59.0 | -82.3 | 286 | 46 | |
| 2008-01-01T00:00 | 32241 | 7 | -59.0 | -82.3 | 285 | 46 | |
| 2008-01-01T00:00 | 32273 | 7 | -58.8 | -82.2 | 285 | 46 | |
| 2008-01-01T00:00 | 32299 | 7 | -58.7 | -82.1 | 284 | 46 | |
| 2008-01-01T00:00 | 32329 | 7 | -58.6 | -82.0 | 284 | 46 | |
| 2008-01-01T00:00 | 32356 | 7 | -58.7 | -82.1 | 284 | 46 | |
| 2008-01-01T00:00 | 32384 | 7 | -58.5 | -81.9 | 284 | 46 | |
| 2008-01-01T00:00 | 32411 | 7 | -58.3 | -81.8 | 285 | 46 | |
| 2008-01-01T00:00 | 32438 | 7 | -58.1 | -81.6 | 285 | 46 | |
| 2008-01-01T00:00 | 32469 | 7 | -58.1 | -81.6 | 285 | 46 | |
| 2008-01-01T00:00 | 32497 | 7 | -58.1 | -81.6 | 286 | 46 | |
| 2008-01-01T00:00 | 32524 | 7 | -57.9 | -81.5 | 285 | 46 | |
| 2008-01-01T00:00 | 32551 | 7 | -57.7 | -81.3 | 285 | 46 | |
| 2008-01-01T00:00 | 32579 | 7 | -57.7 | -81.3 | 285 | 45 | |
| 2008-01-01T00:00 | 32609 | 7 | -57.5 | -81.2 | 284 | 45 | |
| 2008-01-01T00:00 | 32638 | 7 | -57.5 | -81.2 | 283 | 45 | |
| 2008-01-01T00:00 | 32660 | 7 | -57.5 | -81.2 | 283 | 45 | |
| 2008-01-01T00:00 | 32692 | 7 | -57.4 | -81.1 | 282 | 45 | |
| 2008-01-01T00:00 | 32725 | 7 | -57.2 | -80.9 | 282 | 45 | |
| 2008-01-01T00:00 | 32746 | 7 | -57.0 | -80.8 | 282 | 45 | |
| 2008-01-01T00:00 | 32776 | 7 | -57.0 | -80.8 | 282 | 45 | |
| 2008-01-01T00:00 | 32800 | 7 | -57.1 | -80.8 | 282 | 45 | |
| 2008-01-01T00:00 | 32826 | 7 | -57.2 | -79.2 | 283 | 45 | |
| 2008-01-01T00:00 | 32859 | 7 | -57.1 | -79.1 | 284 | 45 | |
| 2008-01-01T00:00 | 32875 | 7 | -57.3 | -79.2 | 285 | 45 | |
| 2008-01-01T00:00 | 32896 | 7 | -57.1 | -79.1 | 285 | 46 | |
| 2008-01-01T00:00 | 32929 | 7 | -57.0 | -79.0 | 284 | 46 | |
| 2008-01-01T00:00 | 32958 | 7 | -57.0 | -80.8 | 283 | 46 | |
| 2008-01-01T00:00 | 32980 | 6 | -56.8 | -80.6 | 282 | 47 | |
| 2008-01-01T00:00 | 33007 | 6 | -56.8 | -80.6 | 281 | 48 | |
| 2008-01-01T00:00 | 33028 | 6 | -56.9 | -80.7 | 280 | 48 | |
| 2008-01-01T00:00 | 33048 | 6 | -56.9 | -80.7 | 280 | 49 | |
| 2008-01-01T00:00 | 33072 | 6 | -56.9 | -80.7 | 279 | 50 | |
| 2008-01-01T00:00 | 33106 | 6 | -56.9 | -80.7 | 279 | 50 | |
| 2008-01-01T00:00 | 33127 | 6 | -56.8 | -80.6 | 278 | 51 | |
| 2008-01-01T00:00 | 33142 | 6 | -56.9 | -80.7 | 278 | 51 | |
| 2008-01-01T00:00 | 33162 | 6 | -57.0 | -80.8 | 279 | 51 | |
| 2008-01-01T00:00 | 33191 | 6 | -57.1 | -80.8 | 279 | 51 | |
| 2008-01-01T00:00 | 33211 | 6 | -57.1 | -80.8 | 280 | 52 | |
| 2008-01-01T00:00 | 33225 | 6 | -56.6 | -80.4 | 281 | 52 | |
| 2008-01-01T00:00 | 33244 | 6 | -56.0 | -80.0 | 282 | 52 | |
| 2008-01-01T00:00 | 33270 | 6 | -55.8 | -79.8 | 282 | 51 | |
| 2008-01-01T00:00 | 33288 | 6 | -55.7 | -79.7 | 283 | 51 | |
| 2008-01-01T00:00 | 33312 | 6 | -55.6 | -79.6 | 283 | 51 | |
| 2008-01-01T00:00 | 33329 | 6 | -55.6 | -79.6 | 283 | 51 | |
| 2008-01-01T00:00 | 33342 | 6 | -55.8 | -79.8 | 283 | 51 | |
| 2008-01-01T00:00 | 33367 | 6 | -55.6 | -79.6 | 283 | 52 | |
| 2008-01-01T00:00 | 33389 | 6 | -54.8 | -79.0 | 283 | 53 | |
| 2008-01-01T00:00 | 33404 | 6 | -54.1 | -78.5 | 284 | 54 | |
| 2008-01-01T00:00 | 33422 | 6 | -53.5 | -76.2 | 284 | 55 | |
| 2008-01-01T00:00 | 33443 | 6 | -53.3 | -76.0 | 284 | 57 | |
| 2008-01-01T00:00 | 33468 | 6 | -53.1 | -75.9 | 285 | 58 | |
| 2008-01-01T00:00 | 33493 | 6 | -53.2 | -75.9 | 285 | 59 | |
| 2008-01-01T00:00 | 33513 | 6 | -53.1 | -75.9 | 285 | 60 | |
| 2008-01-01T00:00 | 33530 | 6 | -53.1 | -75.9 | 286 | 60 | |
| 2008-01-01T00:00 | 33560 | 6 | -53.2 | -75.9 | 286 | 61 | |
| 2008-01-01T00:00 | 33582 | 6 | -52.8 | -75.6 | 287 | 62 | |
| 2008-01-01T00:00 | 33608 | 6 | -52.7 | -75.5 | 287 | 63 | |
| 2008-01-01T00:00 | 33631 | 6 | -52.8 | -75.6 | 288 | 64 | |
| 2008-01-01T00:00 | 33655 | 6 | -52.8 | -75.6 | 289 | 64 | |
| 2008-01-01T00:00 | 33685 | 6 | -52.7 | -75.5 | 289 | 65 | |
| 2008-01-01T00:00 | 33714 | 6 | -52.5 | -75.4 | 290 | 66 | |
| 2008-01-01T00:00 | 33746 | 6 | -52.4 | -73.9 | 291 | 67 | |
| 2008-01-01T00:00 | 33771 | 6 | -52.1 | -73.6 | 291 | 68 | |
| 2008-01-01T00:00 | 33800 | 6 | -51.9 | -73.4 | 291 | 69 | |
| 2008-01-01T00:00 | 33830 | 6 | -51.7 | -73.3 | 292 | 69 | |
| 2008-01-01T00:00 | 33861 | 6 | -51.7 | -74.7 | 292 | 69 | |
| 2008-01-01T00:00 | 33886 | 6 | -51.7 | -73.3 | 292 | 69 | |
| 2008-01-01T00:00 | 33910 | 6 | -51.7 | -73.3 | 292 | 69 | |
| 2008-01-01T00:00 | 33946 | 6 | -51.3 | -73.0 | 292 | 68 | |
| 2008-01-01T00:00 | 33965 | 6 | -51.0 | -74.2 | 292 | 68 | |
| 2008-01-01T00:00 | 33994 | 6 | -50.8 | -74.0 | 291 | 67 | |
| 2008-01-01T00:00 | 34018 | 6 | -50.8 | -74.0 | 291 | 66 | |
| 2008-01-01T00:00 | 34052 | 6 | -51.1 | -74.2 | 290 | 66 | |
| 2008-01-01T00:00 | 34074 | 5 | -51.2 | -74.3 | 289 | 65 | |
| 2008-01-01T00:00 | 34104 | 5 | -50.2 | -73.5 | 289 | 65 | |
| 2008-01-01T00:00 | 34128 | 5 | -49.9 | -73.3 | 288 | 65 | |
| 2008-01-01T00:00 | 34144 | 5 | -49.7 | -71.7 | 288 | 65 | |
| 2008-01-01T00:00 | 34160 | 5 | -49.1 | -71.2 | 288 | 66 | |
| 2008-01-01T00:00 | 34192 | 5 | -48.0 | -71.8 | 288 | 66 | |
| 2008-01-01T00:00 | 34216 | 5 | -47.2 | -71.1 | 289 | 67 | |
| 2008-01-01T00:00 | 34241 | 5 | -46.9 | -70.9 | 289 | 67 | |
| 2008-01-01T00:00 | 34264 | 5 | -46.7 | -70.7 | 290 | 67 | |
| 2008-01-01T00:00 | 34291 | 5 | -47.0 | -71.0 | 290 | 67 | |
| 2008-01-01T00:00 | 34311 | 5 | -47.3 | -71.2 | 291 | 67 | |
| 2008-01-01T00:00 | 34325 | 5 | -47.1 | -71.0 | 291 | 66 | |
| 2008-01-01T00:00 | 34353 | 5 | -47.2 | -71.1 | 292 | 66 | |
| 2008-01-01T00:00 | 34376 | 5 | -47.5 | -71.4 | 292 | 65 | |
| 2008-01-01T00:00 | 34396 | 5 | -47.7 | -70.0 | 292 | 65 | |
| 2008-01-01T00:00 | 34419 | 5 | -47.9 | -70.2 | 293 | 64 | |
| 2008-01-01T00:00 | 34440 | 5 | -47.7 | -70.0 | 293 | 64 | |
| 2008-01-01T00:00 | 34462 | 5 | -47.5 | -71.4 | 293 | 64 | |
| 2008-01-01T00:00 | 34481 | 5 | -47.4 | -71.3 | 292 | 64 | |
| 2008-01-01T00:00 | 34503 | 5 | -47.3 | -71.2 | 292 | 64 | |
| 2008-01-01T00:00 | 34528 | 5 | -47.5 | -71.4 | 291 | 65 | |
| 2008-01-01T00:00 | 34547 | 5 | -47.7 | -71.5 | 291 | 65 | |
| 2008-01-01T00:00 | 34567 | 5 | -47.7 | -71.5 | 290 | 65 | |
| 2008-01-01T00:00 | 34592 | 5 | -47.1 | -71.0 | 290 | 65 | |
| 2008-01-01T00:00 | 34616 | 5 | -47.0 | -71.0 | 289 | 66 | |
| 2008-01-01T00:00 | 34638 | 5 | -46.9 | -70.9 | 289 | 66 | |
| 2008-01-01T00:00 | 34659 | 5 | -46.8 | -72.7 | 288 | 66 | |
| 2008-01-01T00:00 | 34678 | 5 | -46.8 | -72.7 | 287 | 66 | |
| 2008-01-01T00:00 | 34703 | 5 | -46.8 | -72.7 | 287 | 67 | |
| 2008-01-01T00:00 | 34724 | 5 | -46.9 | -72.8 | 286 | 67 | |
| 2008-01-01T00:00 | 34748 | 5 | -46.3 | -74.9 | 285 | 68 | |
| 2008-01-01T00:00 | 34777 | 5 | -46.2 | -74.9 | 285 | 68 | |
| 2008-01-01T00:00 | 34800 | 5 | -46.2 | -74.9 | 285 | 69 | |
| 2008-01-01T00:00 | 34825 | 5 | -45.9 | -74.6 | 284 | 69 | |
| 2008-01-01T00:00 | 34852 | 5 | -45.9 | -72.0 | 284 | 69 | |
| 2008-01-01T00:00 | 34872 | 5 | -45.8 | -71.9 | 284 | 70 | |
| 2008-01-01T00:00 | 34889 | 5 | -45.5 | -71.7 | 284 | 71 | |
| 2008-01-01T00:00 | 34908 | 5 | -45.4 | -74.2 | 284 | 72 | |
| 2008-01-01T00:00 | 34936 | 5 | -45.3 | -74.2 | 283 | 73 | |
| 2008-01-01T00:00 | 34961 | 5 | -45.3 | -74.2 | 283 | 74 | |
| 2008-01-01T00:00 | 34991 | 5 | -45.0 | -73.9 | 283 | 74 | |
| 2008-01-01T00:00 | 35015 | 5 | -44.9 | -73.9 | 283 | 75 | |
| 2008-01-01T00:00 | 35032 | 5 | -44.7 | -73.7 | 283 | 75 | |
| 2008-01-01T00:00 | 35051 | 5 | -44.5 | -73.6 | 284 | 76 | |
| 2008-01-01T00:00 | 35074 | 5 | -44.5 | -73.6 | 284 | 77 | |
| 2008-01-01T00:00 | 35102 | 5 | -44.4 | -70.8 | 285 | 77 | |
| 2008-01-01T00:00 | 35131 | 5 | -44.7 | -71.0 | 285 | 78 | |
| 2008-01-01T00:00 | 35150 | 5 | -44.7 | -69.1 | 285 | 78 | |
| 2008-01-01T00:00 | 35167 | 5 | -44.3 | -70.7 | 285 | 78 | |
| 2008-01-01T00:00 | 35187 | 5 | -44.4 | -70.8 | 285 | 78 | |
| 2008-01-01T00:00 | 35206 | 5 | -44.7 | -71.0 | 285 | 78 | |
| 2008-01-01T00:00 | 35224 | 5 | -44.9 | -71.2 | 285 | 78 | |
| 2008-01-01T00:00 | 35243 | 5 | -44.9 | -69.3 | 286 | 78 | |
| 2008-01-01T00:00 | 35260 | 5 | -44.5 | -70.9 | 286 | 78 | |
| 2008-01-01T00:00 | 35282 | 5 | -43.7 | -70.3 | 286 | 78 | |
| 2008-01-01T00:00 | 35304 | 5 | -43.3 | -70.0 | 286 | 78 | |
| 2008-01-01T00:00 | 35320 | 5 | -43.3 | -70.0 | 286 | 78 | |
| 2008-01-01T00:00 | 35335 | 5 | -43.4 | -70.0 | 285 | 77 | |
| 2008-01-01T00:00 | 35350 | 5 | -43.1 | -69.8 | 285 | 77 | |
| 2008-01-01T00:00 | 35367 | 5 | -42.8 | -69.6 | 284 | 76 | |
| 2008-01-01T06:00 | 112 | 1011 | 0.1 | -0.4 | 290 | 3 | |
| 2008-01-01T06:00 | 134 | 1008 | -0.3 | -0.3 | 238 | 4 | |
| 2008-01-01T06:00 | 158 | 1005 | -0.4 | -0.4 | 243 | 5 | |
| 2008-01-01T06:00 | 182 | 1002 | -0.6 | -0.6 | 249 | 5 | |
| 2008-01-01T06:00 | 209 | 999 | -0.8 | -0.8 | 257 | 5 | |
| 2008-01-01T06:00 | 235 | 995 | -0.9 | -1.0 | 265 | 5 | |
| 2008-01-01T06:00 | 260 | 992 | -1.1 | -1.1 | 274 | 5 | |
| 2008-01-01T06:00 | 287 | 989 | -1.2 | -1.2 | 284 | 5 | |
| 2008-01-01T06:00 | 311 | 986 | -1.3 | -1.3 | 295 | 5 | |
| 2008-01-01T06:00 | 333 | 983 | -1.4 | -1.4 | 305 | 5 | |
| 2008-01-01T06:00 | 356 | 980 | -1.6 | -1.6 | 311 | 5 | |
| 2008-01-01T06:00 | 382 | 977 | -1.8 | -1.8 | 316 | 5 | |
| 2008-01-01T06:00 | 403 | 975 | -1.8 | -1.8 | 319 | 5 | |
| 2008-01-01T06:00 | 426 | 972 | -1.9 | -1.9 | 322 | 5 | |
| 2008-01-01T06:00 | 453 | 968 | -2.0 | -2.0 | 323 | 5 | |
| 2008-01-01T06:00 | 476 | 966 | -2.1 | -2.1 | 324 | 5 | |
| 2008-01-01T06:00 | 504 | 962 | -2.3 | -2.3 | 324 | 5 | |
| 2008-01-01T06:00 | 533 | 959 | -2.5 | -2.5 | 325 | 5 | |
| 2008-01-01T06:00 | 561 | 955 | -2.8 | -2.8 | 328 | 5 | |
| 2008-01-01T06:00 | 586 | 952 | -2.9 | -2.9 | 332 | 5 | |
| 2008-01-01T06:00 | 613 | 949 | -3.0 | -3.0 | 336 | 6 | |
| 2008-01-01T06:00 | 634 | 947 | -2.9 | -2.9 | 336 | 6 | |
| 2008-01-01T06:00 | 657 | 944 | -3.1 | -3.1 | 335 | 6 | |
| 2008-01-01T06:00 | 684 | 941 | -3.0 | -3.0 | 331 | 6 | |
| 2008-01-01T06:00 | 708 | 938 | -3.0 | -3.0 | 327 | 6 | |
| 2008-01-01T06:00 | 732 | 935 | -3.2 | -3.2 | 323 | 7 | |
| 2008-01-01T06:00 | 760 | 932 | -3.5 | -3.5 | 320 | 7 | |
| 2008-01-01T06:00 | 785 | 929 | -3.5 | -3.9 | 318 | 7 | |
| 2008-01-01T06:00 | 809 | 926 | -3.8 | -4.2 | 316 | 7 | |
| 2008-01-01T06:00 | 834 | 923 | -3.8 | -4.4 | 314 | 7 | |
| 2008-01-01T06:00 | 857 | 920 | -3.8 | -5.0 | 312 | 7 | |
| 2008-01-01T06:00 | 881 | 918 | -3.8 | -5.8 | 312 | 7 | |
| 2008-01-01T06:00 | 904 | 915 | -3.8 | -5.8 | 312 | 7 | |
| 2008-01-01T06:00 | 928 | 912 | -4.0 | -6.2 | 312 | 7 | |
| 2008-01-01T06:00 | 952 | 909 | -4.1 | -6.1 | 312 | 7 | |
| 2008-01-01T06:00 | 977 | 906 | -4.4 | -6.3 | 311 | 7 | |
| 2008-01-01T06:00 | 999 | 904 | -4.6 | -6.4 | 309 | 7 | |
| 2008-01-01T06:00 | 1024 | 901 | -4.9 | -6.7 | 307 | 6 | |
| 2008-01-01T06:00 | 1049 | 898 | -5.1 | -7.1 | 305 | 6 | |
| 2008-01-01T06:00 | 1072 | 895 | -5.3 | -7.2 | 303 | 6 | |
| 2008-01-01T06:00 | 1097 | 893 | -5.5 | -7.3 | 302 | 6 | |
| 2008-01-01T06:00 | 1120 | 890 | -5.8 | -7.4 | 301 | 6 | |
| 2008-01-01T06:00 | 1141 | 888 | -6.0 | -7.5 | 301 | 6 | |
| 2008-01-01T06:00 | 1162 | 885 | -6.2 | -7.4 | 301 | 6 | |
| 2008-01-01T06:00 | 1182 | 883 | -6.3 | 303 | 5 | ||
| 2008-01-01T06:00 | 1208 | 880 | -6.6 | -7.7 | 306 | 5 | |
| 2008-01-01T06:00 | 1233 | 877 | -6.8 | -7.9 | 309 | 5 | |
| 2008-01-01T06:00 | 1259 | 874 | -7.1 | -8.1 | 311 | 6 | |
| 2008-01-01T06:00 | 1282 | 872 | -7.3 | -8.1 | 312 | 6 | |
| 2008-01-01T06:00 | 1304 | 869 | -7.5 | -8.2 | 313 | 6 | |
| 2008-01-01T06:00 | 1329 | 867 | -7.8 | -8.6 | 313 | 6 | |
| 2008-01-01T06:00 | 1355 | 864 | -8.0 | -8.8 | 313 | 6 | |
| 2008-01-01T06:00 | 1378 | 861 | -8.1 | -8.8 | 314 | 6 | |
| 2008-01-01T06:00 | 1401 | 859 | -8.3 | -8.9 | 315 | 6 | |
| 2008-01-01T06:00 | 1426 | 856 | -8.6 | -9.1 | 316 | 6 | |
| 2008-01-01T06:00 | 1451 | 853 | -8.8 | -9.2 | 316 | 6 | |
| 2008-01-01T06:00 | 1479 | 850 | -9.0 | -9.2 | 316 | 6 | |
| 2008-01-01T06:00 | 1504 | 847 | -9.2 | -9.3 | 315 | 6 | |
| 2008-01-01T06:00 | 1530 | 844 | -9.4 | -9.5 | 314 | 6 | |
| 2008-01-01T06:00 | 1554 | 842 | -9.6 | -9.7 | 313 | 6 | |
| 2008-01-01T06:00 | 1581 | 839 | -9.8 | -9.9 | 312 | 6 | |
| 2008-01-01T06:00 | 1608 | 836 | -9.9 | -9.9 | 312 | 6 | |
| 2008-01-01T06:00 | 1636 | 833 | -10.1 | -10.1 | 312 | 6 | |
| 2008-01-01T06:00 | 1664 | 830 | -10.3 | -10.3 | 313 | 6 | |
| 2008-01-01T06:00 | 1696 | 826 | -10.6 | -10.6 | 315 | 6 | |
| 2008-01-01T06:00 | 1724 | 823 | -10.8 | -10.8 | 318 | 6 | |
| 2008-01-01T06:00 | 1752 | 820 | -11.0 | -11.0 | 321 | 6 | |
| 2008-01-01T06:00 | 1775 | 818 | -11.1 | -11.1 | 323 | 6 | |
| 2008-01-01T06:00 | 1807 | 815 | -11.4 | -11.4 | 323 | 6 | |
| 2008-01-01T06:00 | 1838 | 811 | -11.6 | -11.6 | 321 | 6 | |
| 2008-01-01T06:00 | 1868 | 808 | -11.8 | -11.8 | 317 | 6 | |
| 2008-01-01T06:00 | 1896 | 805 | -11.9 | -11.9 | 314 | 6 | |
| 2008-01-01T06:00 | 1927 | 802 | -12.1 | -12.1 | 310 | 6 | |
| 2008-01-01T06:00 | 1954 | 799 | -12.3 | -12.3 | 308 | 6 | |
| 2008-01-01T06:00 | 1983 | 796 | -12.5 | -12.6 | 306 | 7 | |
| 2008-01-01T06:00 | 2012 | 793 | -12.8 | -12.9 | 305 | 7 | |
| 2008-01-01T06:00 | 2041 | 790 | -12.8 | -12.8 | 305 | 7 | |
| 2008-01-01T06:00 | 2071 | 787 | -13.0 | -13.1 | 305 | 7 | |
| 2008-01-01T06:00 | 2103 | 784 | -13.3 | -13.4 | 305 | 7 | |
| 2008-01-01T06:00 | 2134 | 780 | -13.5 | -13.6 | 307 | 7 | |
| 2008-01-01T06:00 | 2161 | 778 | -13.5 | -13.5 | 310 | 7 | |
| 2008-01-01T06:00 | 2188 | 775 | -13.8 | -13.9 | 314 | 8 | |
| 2008-01-01T06:00 | 2211 | 773 | -13.8 | -13.9 | 318 | 8 | |
| 2008-01-01T06:00 | 2235 | 770 | -12.9 | -14.1 | 321 | 9 | |
| 2008-01-01T06:00 | 2259 | 768 | -13.0 | -14.2 | 322 | 9 | |
| 2008-01-01T06:00 | 2285 | 765 | -13.2 | -14.6 | 323 | 9 | |
| 2008-01-01T06:00 | 2313 | 762 | -13.4 | -16.0 | 323 | 9 | |
| 2008-01-01T06:00 | 2337 | 760 | -13.5 | -16.3 | 322 | 9 | |
| 2008-01-01T06:00 | 2364 | 757 | -13.8 | -16.6 | 323 | 9 | |
| 2008-01-01T06:00 | 2390 | 755 | -13.9 | -16.7 | 324 | 8 | |
| 2008-01-01T06:00 | 2416 | 752 | -14.2 | -17.0 | 326 | 8 | |
| 2008-01-01T06:00 | 2443 | 749 | -14.4 | -17.5 | 329 | 9 | |
| 2008-01-01T06:00 | 2467 | 747 | -14.6 | -17.8 | 330 | 9 | |
| 2008-01-01T06:00 | 2493 | 744 | -14.8 | -18.2 | 331 | 9 | |
| 2008-01-01T06:00 | 2518 | 742 | -15.0 | -18.4 | 330 | 8 | |
| 2008-01-01T06:00 | 2545 | 739 | -15.2 | -18.7 | 329 | 8 | |
| 2008-01-01T06:00 | 2569 | 737 | -15.4 | -19.4 | 328 | 8 | |
| 2008-01-01T06:00 | 2593 | 735 | -15.6 | -19.5 | 326 | 8 | |
| 2008-01-01T06:00 | 2618 | 732 | -15.8 | -19.6 | 325 | 8 | |
| 2008-01-01T06:00 | 2643 | 730 | -15.9 | -19.4 | 324 | 8 | |
| 2008-01-01T06:00 | 2668 | 727 | -16.1 | -19.3 | 324 | 8 | |
| 2008-01-01T06:00 | 2694 | 725 | -16.3 | -19.5 | 325 | 9 | |
| 2008-01-01T06:00 | 2722 | 722 | -16.4 | -19.7 | 326 | 9 | |
| 2008-01-01T06:00 | 2745 | 720 | -16.6 | -20.1 | 327 | 9 | |
| 2008-01-01T06:00 | 2770 | 718 | -16.8 | -20.4 | 328 | 9 | |
| 2008-01-01T06:00 | 2797 | 715 | -17.0 | -20.5 | 328 | 9 | |
| 2008-01-01T06:00 | 2822 | 713 | -17.2 | -20.8 | 328 | 10 | |
| 2008-01-01T06:00 | 2847 | 710 | -17.4 | -21.3 | 327 | 10 | |
| 2008-01-01T06:00 | 2871 | 708 | -17.5 | -21.5 | 326 | 9 | |
| 2008-01-01T06:00 | 2899 | 705 | -17.7 | -21.7 | 324 | 9 | |
| 2008-01-01T06:00 | 2925 | 703 | -17.9 | -22.1 | 322 | 9 | |
| 2008-01-01T06:00 | 2951 | 700 | -18.2 | -22.4 | 321 | 9 | |
| 2008-01-01T06:00 | 2979 | 698 | -18.3 | -22.8 | 322 | 9 | |
| 2008-01-01T06:00 | 3008 | 695 | -18.5 | -23.1 | 323 | 9 | |
| 2008-01-01T06:00 | 3036 | 692 | -18.7 | -23.3 | 325 | 9 | |
| 2008-01-01T06:00 | 3062 | 690 | -18.9 | -23.8 | 327 | 9 | |
| 2008-01-01T06:00 | 3087 | 688 | -19.1 | -24.0 | 327 | 9 | |
| 2008-01-01T06:00 | 3115 | 685 | -19.4 | -24.3 | 327 | 9 | |
| 2008-01-01T06:00 | 3137 | 683 | -19.6 | -24.7 | 327 | 9 | |
| 2008-01-01T06:00 | 3163 | 681 | -19.7 | -25.3 | 326 | 9 | |
| 2008-01-01T06:00 | 3190 | 678 | -19.8 | -25.5 | 326 | 8 | |
| 2008-01-01T06:00 | 3214 | 676 | -19.9 | -25.0 | 326 | 8 | |
| 2008-01-01T06:00 | 3243 | 673 | -20.0 | -24.1 | 327 | 8 | |
| 2008-01-01T06:00 | 3271 | 671 | -20.2 | -23.9 | 327 | 8 | |
| 2008-01-01T06:00 | 3295 | 669 | -20.4 | -23.6 | 327 | 7 | |
| 2008-01-01T06:00 | 3320 | 667 | -20.6 | -23.4 | 327 | 7 | |
| 2008-01-01T06:00 | 3346 | 664 | -20.8 | -23.1 | 326 | 7 | |
| 2008-01-01T06:00 | 3371 | 662 | -21.0 | -22.9 | 324 | 7 | |
| 2008-01-01T06:00 | 3395 | 660 | -21.1 | -22.4 | 323 | 7 | |
| 2008-01-01T06:00 | 3421 | 657 | -21.3 | -22.4 | 323 | 6 | |
| 2008-01-01T06:00 | 3448 | 655 | -21.6 | -22.9 | 323 | 6 | |
| 2008-01-01T06:00 | 3475 | 653 | -21.8 | -23.0 | 322 | 6 | |
| 2008-01-01T06:00 | 3499 | 650 | -22.0 | -23.1 | 321 | 6 | |
| 2008-01-01T06:00 | 3523 | 648 | -22.2 | -23.2 | 320 | 6 | |
| 2008-01-01T06:00 | 3549 | 646 | -22.5 | -24.0 | 318 | 7 | |
| 2008-01-01T06:00 | 3573 | 644 | -22.9 | -26.5 | 318 | 7 | |
| 2008-01-01T06:00 | 3596 | 642 | -23.1 | -27.7 | 319 | 7 | |
| 2008-01-01T06:00 | 3621 | 640 | -23.1 | -26.5 | 321 | 7 | |
| 2008-01-01T06:00 | 3645 | 638 | -23.2 | -25.8 | 323 | 8 | |
| 2008-01-01T06:00 | 3672 | 635 | -23.4 | -26.4 | 324 | 8 | |
| 2008-01-01T06:00 | 3699 | 633 | -23.6 | -26.6 | 324 | 9 | |
| 2008-01-01T06:00 | 3725 | 631 | -23.9 | -26.8 | 325 | 9 | |
| 2008-01-01T06:00 | 3748 | 629 | -24.1 | -27.1 | 326 | 9 | |
| 2008-01-01T06:00 | 3767 | 627 | -24.3 | -27.3 | 328 | 9 | |
| 2008-01-01T06:00 | 3789 | 625 | -24.4 | -27.3 | 329 | 9 | |
| 2008-01-01T06:00 | 3815 | 623 | -24.7 | -27.4 | 330 | 9 | |
| 2008-01-01T06:00 | 3840 | 621 | -24.9 | -27.9 | 330 | 9 | |
| 2008-01-01T06:00 | 3862 | 619 | -25.1 | -28.2 | 328 | 9 | |
| 2008-01-01T06:00 | 3885 | 617 | -25.3 | -28.5 | 327 | 9 | |
| 2008-01-01T06:00 | 3907 | 615 | -25.4 | -28.6 | 325 | 9 | |
| 2008-01-01T06:00 | 3930 | 613 | -25.5 | -28.7 | 323 | 9 | |
| 2008-01-01T06:00 | 3957 | 611 | -25.7 | -28.8 | 320 | 9 | |
| 2008-01-01T06:00 | 3982 | 609 | -25.8 | -28.5 | 317 | 9 | |
| 2008-01-01T06:00 | 4004 | 607 | -25.9 | -28.3 | 315 | 9 | |
| 2008-01-01T06:00 | 4028 | 605 | -26.0 | -28.6 | 313 | 10 | |
| 2008-01-01T06:00 | 4053 | 603 | -26.2 | -29.0 | 313 | 10 | |
| 2008-01-01T06:00 | 4077 | 601 | -26.3 | -29.5 | 314 | 10 | |
| 2008-01-01T06:00 | 4099 | 599 | -26.4 | -29.9 | 315 | 10 | |
| 2008-01-01T06:00 | 4124 | 597 | -26.6 | -30.9 | 316 | 10 | |
| 2008-01-01T06:00 | 4150 | 595 | -26.7 | -32.6 | 317 | 10 | |
| 2008-01-01T06:00 | 4176 | 593 | -26.8 | -36.2 | 319 | 10 | |
| 2008-01-01T06:00 | 4199 | 591 | -26.8 | -41.3 | 320 | 10 | |
| 2008-01-01T06:00 | 4222 | 589 | -27.0 | -42.8 | 322 | 10 | |
| 2008-01-01T06:00 | 4248 | 587 | -27.2 | -42.5 | 325 | 10 | |
| 2008-01-01T06:00 | 4268 | 585 | -27.3 | -41.7 | 326 | 10 | |
| 2008-01-01T06:00 | 4293 | 583 | -27.2 | -39.4 | 327 | 10 | |
| 2008-01-01T06:00 | 4318 | 581 | -27.4 | -40.7 | 327 | 11 | |
| 2008-01-01T06:00 | 4342 | 579 | -27.6 | -41.2 | 327 | 11 | |
| 2008-01-01T06:00 | 4369 | 577 | -27.8 | -41.0 | 327 | 11 | |
| 2008-01-01T06:00 | 4395 | 575 | -28.1 | -40.9 | 327 | 11 | |
| 2008-01-01T06:00 | 4420 | 573 | -28.2 | -39.7 | 328 | 11 | |
| 2008-01-01T06:00 | 4446 | 571 | -28.4 | -39.3 | 329 | 11 | |
| 2008-01-01T06:00 | 4474 | 569 | -28.7 | -38.8 | 330 | 12 | |
| 2008-01-01T06:00 | 4498 | 567 | -28.9 | -38.4 | 331 | 12 | |
| 2008-01-01T06:00 | 4519 | 565 | -29.1 | -38.1 | 332 | 12 | |
| 2008-01-01T06:00 | 4545 | 563 | -29.4 | -38.2 | 334 | 12 | |
| 2008-01-01T06:00 | 4574 | 561 | -29.6 | -38.1 | 335 | 12 | |
| 2008-01-01T06:00 | 4604 | 558 | -29.8 | -37.7 | 335 | 12 | |
| 2008-01-01T06:00 | 4627 | 557 | -30.0 | -37.2 | 336 | 12 | |
| 2008-01-01T06:00 | 4650 | 555 | -30.2 | -37.0 | 334 | 12 | |
| 2008-01-01T06:00 | 4677 | 553 | -30.4 | -36.7 | 333 | 13 | |
| 2008-01-01T06:00 | 4706 | 550 | -30.7 | -36.3 | 330 | 13 | |
| 2008-01-01T06:00 | 4733 | 548 | -30.9 | -35.8 | 328 | 12 | |
| 2008-01-01T06:00 | 4761 | 546 | -31.1 | -35.6 | 327 | 12 | |
| 2008-01-01T06:00 | 4788 | 544 | -31.3 | -35.3 | 326 | 12 | |
| 2008-01-01T06:00 | 4817 | 542 | -31.6 | -35.3 | 326 | 11 | |
| 2008-01-01T06:00 | 4845 | 540 | -31.8 | -35.3 | 327 | 11 | |
| 2008-01-01T06:00 | 4875 | 537 | -32.1 | -35.4 | 328 | 11 | |
| 2008-01-01T06:00 | 4909 | 535 | -32.4 | -35.7 | 329 | 11 | |
| 2008-01-01T06:00 | 4934 | 533 | -32.6 | -35.8 | 330 | 12 | |
| 2008-01-01T06:00 | 4964 | 531 | -32.8 | -35.9 | 330 | 12 | |
| 2008-01-01T06:00 | 4988 | 529 | -33.1 | -35.9 | 331 | 12 | |
| 2008-01-01T06:00 | 5016 | 527 | -33.3 | -36.0 | 331 | 13 | |
| 2008-01-01T06:00 | 5039 | 525 | -33.6 | -36.1 | 331 | 13 | |
| 2008-01-01T06:00 | 5063 | 523 | -33.8 | -36.2 | 332 | 12 | |
| 2008-01-01T06:00 | 5086 | 522 | -34.0 | -36.3 | 334 | 12 | |
| 2008-01-01T06:00 | 5121 | 519 | -34.3 | -36.4 | 335 | 11 | |
| 2008-01-01T06:00 | 5151 | 517 | -34.6 | -36.5 | 335 | 11 | |
| 2008-01-01T06:00 | 5175 | 515 | -34.9 | -36.6 | 335 | 11 | |
| 2008-01-01T06:00 | 5201 | 513 | -35.1 | -36.7 | 336 | 11 | |
| 2008-01-01T06:00 | 5227 | 511 | -35.3 | -37.0 | 336 | 11 | |
| 2008-01-01T06:00 | 5252 | 509 | -35.5 | -37.3 | 335 | 11 | |
| 2008-01-01T06:00 | 5276 | 507 | -35.7 | -37.8 | 335 | 11 | |
| 2008-01-01T06:00 | 5302 | 506 | -36.0 | -38.3 | 333 | 11 | |
| 2008-01-01T06:00 | 5326 | 504 | -36.2 | -38.7 | 332 | 11 | |
| 2008-01-01T06:00 | 5349 | 502 | -36.4 | -39.1 | 330 | 11 | |
| 2008-01-01T06:00 | 5372 | 501 | -36.6 | -39.4 | 330 | 11 | |
| 2008-01-01T06:00 | 5397 | 499 | -36.8 | -39.6 | 331 | 12 | |
| 2008-01-01T06:00 | 5427 | 497 | -37.1 | -39.7 | 333 | 12 | |
| 2008-01-01T06:00 | 5453 | 495 | -37.3 | -39.8 | 335 | 12 | |
| 2008-01-01T06:00 | 5476 | 493 | -37.4 | -40.0 | 337 | 13 | |
| 2008-01-01T06:00 | 5499 | 491 | -37.5 | -40.4 | 338 | 13 | |
| 2008-01-01T06:00 | 5525 | 490 | -37.7 | -40.9 | 340 | 14 | |
| 2008-01-01T06:00 | 5547 | 488 | -37.8 | -41.2 | 341 | 14 | |
| 2008-01-01T06:00 | 5571 | 486 | -38.0 | -41.6 | 341 | 14 | |
| 2008-01-01T06:00 | 5594 | 485 | -38.1 | -41.8 | 342 | 14 | |
| 2008-01-01T06:00 | 5618 | 483 | -38.3 | -42.2 | 342 | 13 | |
| 2008-01-01T06:00 | 5647 | 481 | -38.5 | -42.4 | 342 | 14 | |
| 2008-01-01T06:00 | 5670 | 479 | -38.7 | -42.6 | 342 | 14 | |
| 2008-01-01T06:00 | 5697 | 477 | -38.8 | -42.7 | 343 | 15 | |
| 2008-01-01T06:00 | 5727 | 475 | -39.1 | -43.0 | 344 | 15 | |
| 2008-01-01T06:00 | 5753 | 474 | -39.2 | -43.1 | 344 | 16 | |
| 2008-01-01T06:00 | 5780 | 472 | -39.2 | -43.4 | 344 | 17 | |
| 2008-01-01T06:00 | 5805 | 470 | -39.3 | -43.9 | 344 | 17 | |
| 2008-01-01T06:00 | 5829 | 468 | -39.3 | -44.3 | 344 | 18 | |
| 2008-01-01T06:00 | 5852 | 467 | -39.4 | -44.8 | 343 | 18 | |
| 2008-01-01T06:00 | 5876 | 465 | -39.5 | -45.3 | 342 | 18 | |
| 2008-01-01T06:00 | 5896 | 464 | -39.6 | -45.6 | 342 | 17 | |
| 2008-01-01T06:00 | 5917 | 462 | -39.8 | -46.0 | 341 | 17 | |
| 2008-01-01T06:00 | 5946 | 460 | -40.0 | -46.3 | 342 | 17 | |
| 2008-01-01T06:00 | 5967 | 459 | -40.2 | -46.7 | 342 | 17 | |
| 2008-01-01T06:00 | 5987 | 458 | -40.3 | -46.8 | 343 | 17 | |
| 2008-01-01T06:00 | 6008 | 456 | -40.5 | -47.1 | 343 | 17 | |
| 2008-01-01T06:00 | 6031 | 455 | -40.6 | -47.2 | 344 | 17 | |
| 2008-01-01T06:00 | 6067 | 452 | -40.9 | -47.9 | 344 | 17 | |
| 2008-01-01T06:00 | 6089 | 451 | -41.0 | -48.0 | 343 | 17 | |
| 2008-01-01T06:00 | 6108 | 450 | -41.2 | -48.2 | 342 | 18 | |
| 2008-01-01T06:00 | 6129 | 448 | -41.3 | -48.5 | 342 | 18 | |
| 2008-01-01T06:00 | 6149 | 447 | -41.4 | -48.5 | 341 | 18 | |
| 2008-01-01T06:00 | 6172 | 445 | -41.5 | -49.0 | 341 | 18 | |
| 2008-01-01T06:00 | 6200 | 444 | -41.7 | -49.6 | 340 | 18 | |
| 2008-01-01T06:00 | 6227 | 442 | -41.9 | -50.0 | 340 | 18 | |
| 2008-01-01T06:00 | 6248 | 440 | -42.1 | -50.2 | 340 | 18 | |
| 2008-01-01T06:00 | 6268 | 439 | -42.3 | -50.4 | 340 | 18 | |
| 2008-01-01T06:00 | 6287 | 438 | -42.5 | -50.6 | 341 | 18 | |
| 2008-01-01T06:00 | 6314 | 436 | -42.8 | -50.9 | 341 | 18 | |
| 2008-01-01T06:00 | 6334 | 435 | -42.9 | -50.7 | 342 | 18 | |
| 2008-01-01T06:00 | 6353 | 434 | -43.1 | -50.9 | 343 | 18 | |
| 2008-01-01T06:00 | 6374 | 432 | -43.3 | -51.1 | 343 | 18 | |
| 2008-01-01T06:00 | 6399 | 431 | -43.5 | -51.3 | 344 | 18 | |
| 2008-01-01T06:00 | 6421 | 429 | -43.7 | -51.5 | 344 | 18 | |
| 2008-01-01T06:00 | 6444 | 428 | -43.9 | -51.7 | 344 | 19 | |
| 2008-01-01T06:00 | 6466 | 426 | -44.1 | -51.9 | 344 | 19 | |
| 2008-01-01T06:00 | 6484 | 425 | -44.2 | -52.0 | 345 | 20 | |
| 2008-01-01T06:00 | 6504 | 424 | -44.4 | -52.1 | 346 | 20 | |
| 2008-01-01T06:00 | 6523 | 423 | -44.5 | -52.2 | 347 | 21 | |
| 2008-01-01T06:00 | 6546 | 421 | -44.5 | -52.4 | 347 | 21 | |
| 2008-01-01T06:00 | 6567 | 420 | -44.4 | -52.6 | 347 | 21 | |
| 2008-01-01T06:00 | 6595 | 418 | -43.8 | -53.2 | 346 | 21 | |
| 2008-01-01T06:00 | 6620 | 417 | -43.8 | -54.2 | 346 | 21 | |
| 2008-01-01T06:00 | 6639 | 416 | -43.8 | -55.1 | 345 | 21 | |
| 2008-01-01T06:00 | 6661 | 414 | -43.7 | -56.0 | 345 | 21 | |
| 2008-01-01T06:00 | 6686 | 413 | -43.8 | -57.2 | 345 | 22 | |
| 2008-01-01T06:00 | 6706 | 411 | -43.7 | -57.9 | 345 | 22 | |
| 2008-01-01T06:00 | 6726 | 410 | -43.6 | -58.3 | 344 | 22 | |
| 2008-01-01T06:00 | 6748 | 409 | -43.7 | -58.9 | 344 | 23 | |
| 2008-01-01T06:00 | 6771 | 407 | -43.9 | -59.6 | 343 | 23 | |
| 2008-01-01T06:00 | 6793 | 406 | -44.0 | -59.7 | 343 | 23 | |
| 2008-01-01T06:00 | 6812 | 405 | -44.0 | -60.2 | 343 | 24 | |
| 2008-01-01T06:00 | 6832 | 404 | -43.8 | -60.6 | 343 | 24 | |
| 2008-01-01T06:00 | 6851 | 403 | -43.8 | -60.6 | 343 | 24 | |
| 2008-01-01T06:00 | 6875 | 401 | -43.8 | -61.3 | 344 | 24 | |
| 2008-01-01T06:00 | 6896 | 400 | -44.0 | -60.8 | 344 | 24 | |
| 2008-01-01T06:00 | 6918 | 399 | -44.2 | -61.0 | 345 | 24 | |
| 2008-01-01T06:00 | 6942 | 397 | -44.2 | -61.0 | 346 | 25 | |
| 2008-01-01T06:00 | 6966 | 396 | -43.9 | -60.7 | 346 | 24 | |
| 2008-01-01T06:00 | 6987 | 394 | -44.0 | -60.8 | 345 | 24 | |
| 2008-01-01T06:00 | 7008 | 393 | -44.1 | -60.9 | 344 | 24 | |
| 2008-01-01T06:00 | 7031 | 392 | -44.2 | -61.0 | 343 | 24 | |
| 2008-01-01T06:00 | 7053 | 391 | -44.3 | -61.0 | 342 | 25 | |
| 2008-01-01T06:00 | 7073 | 389 | -44.4 | -61.1 | 342 | 25 | |
| 2008-01-01T06:00 | 7094 | 388 | -44.2 | -61.0 | 343 | 26 | |
| 2008-01-01T06:00 | 7116 | 387 | -44.3 | -61.7 | 344 | 26 | |
| 2008-01-01T06:00 | 7138 | 386 | -44.4 | -61.8 | 345 | 26 | |
| 2008-01-01T06:00 | 7162 | 384 | -44.5 | -62.5 | 346 | 27 | |
| 2008-01-01T06:00 | 7184 | 383 | -44.6 | -62.6 | 346 | 27 | |
| 2008-01-01T06:00 | 7205 | 382 | -44.7 | -62.7 | 346 | 27 | |
| 2008-01-01T06:00 | 7228 | 381 | -44.7 | -63.5 | 346 | 27 | |
| 2008-01-01T06:00 | 7251 | 379 | -44.8 | -63.6 | 345 | 27 | |
| 2008-01-01T06:00 | 7272 | 378 | -44.7 | -63.5 | 344 | 27 | |
| 2008-01-01T06:00 | 7294 | 377 | -44.7 | -63.5 | 344 | 27 | |
| 2008-01-01T06:00 | 7316 | 376 | -44.5 | -63.3 | 344 | 27 | |
| 2008-01-01T06:00 | 7337 | 374 | -44.4 | -63.2 | 343 | 27 | |
| 2008-01-01T06:00 | 7358 | 373 | -44.2 | 343 | 28 | ||
| 2008-01-01T06:00 | 7379 | 372 | -44.2 | 343 | 28 | ||
| 2008-01-01T06:00 | 7400 | 371 | -44.2 | 344 | 28 | ||
| 2008-01-01T06:00 | 7420 | 370 | -44.2 | 344 | 28 | ||
| 2008-01-01T06:00 | 7441 | 369 | -44.2 | 344 | 29 | ||
| 2008-01-01T06:00 | 7461 | 368 | -44.2 | 345 | 29 | ||
| 2008-01-01T06:00 | 7482 | 366 | -44.3 | -64.0 | 344 | 29 | |
| 2008-01-01T06:00 | 7504 | 365 | -44.4 | -65.0 | 344 | 29 | |
| 2008-01-01T06:00 | 7524 | 364 | -44.5 | -65.1 | 343 | 29 | |
| 2008-01-01T06:00 | 7546 | 363 | -44.5 | -64.1 | 343 | 29 | |
| 2008-01-01T06:00 | 7567 | 362 | -44.6 | -64.2 | 342 | 29 | |
| 2008-01-01T06:00 | 7588 | 361 | -44.7 | -64.3 | 341 | 29 | |
| 2008-01-01T06:00 | 7608 | 360 | -44.6 | -64.2 | 341 | 29 | |
| 2008-01-01T06:00 | 7625 | 359 | -44.7 | -64.3 | 341 | 29 | |
| 2008-01-01T06:00 | 7646 | 358 | -44.8 | -64.4 | 341 | 30 | |
| 2008-01-01T06:00 | 7668 | 356 | -45.0 | -65.5 | 341 | 30 | |
| 2008-01-01T06:00 | 7698 | 355 | -45.2 | -65.7 | 341 | 30 | |
| 2008-01-01T06:00 | 7726 | 353 | -45.3 | -65.7 | 341 | 30 | |
| 2008-01-01T06:00 | 7748 | 352 | -45.2 | -65.7 | 341 | 30 | |
| 2008-01-01T06:00 | 7767 | 351 | -45.3 | -65.7 | 340 | 30 | |
| 2008-01-01T06:00 | 7789 | 350 | -45.5 | -65.9 | 340 | 30 | |
| 2008-01-01T06:00 | 7813 | 349 | -45.6 | -66.0 | 340 | 30 | |
| 2008-01-01T06:00 | 7834 | 348 | -45.7 | -66.1 | 340 | 30 | |
| 2008-01-01T06:00 | 7854 | 347 | -45.6 | -66.0 | 340 | 30 | |
| 2008-01-01T06:00 | 7874 | 345 | -45.5 | -67.0 | 340 | 30 | |
| 2008-01-01T06:00 | 7893 | 344 | -45.5 | -67.0 | 340 | 30 | |
| 2008-01-01T06:00 | 7916 | 343 | -45.4 | -66.9 | 339 | 31 | |
| 2008-01-01T06:00 | 7937 | 342 | -45.5 | -67.0 | 339 | 31 | |
| 2008-01-01T06:00 | 7957 | 341 | -45.6 | -67.1 | 338 | 32 | |
| 2008-01-01T06:00 | 7979 | 340 | -45.5 | -67.0 | 338 | 33 | |
| 2008-01-01T06:00 | 8001 | 339 | -45.5 | -67.0 | 338 | 33 | |
| 2008-01-01T06:00 | 8023 | 338 | -45.6 | -65.1 | 338 | 34 | |
| 2008-01-01T06:00 | 8044 | 337 | -45.8 | -65.2 | 339 | 34 | |
| 2008-01-01T06:00 | 8065 | 336 | -45.9 | -65.3 | 339 | 33 | |
| 2008-01-01T06:00 | 8086 | 335 | -46.1 | -66.4 | 339 | 33 | |
| 2008-01-01T06:00 | 8104 | 334 | -46.2 | -65.6 | 340 | 33 | |
| 2008-01-01T06:00 | 8126 | 333 | -46.2 | -65.6 | 340 | 32 | |
| 2008-01-01T06:00 | 8148 | 332 | -46.4 | -65.7 | 340 | 32 | |
| 2008-01-01T06:00 | 8169 | 331 | -46.4 | -65.7 | 341 | 32 | |
| 2008-01-01T06:00 | 8190 | 329 | -46.5 | -65.8 | 341 | 31 | |
| 2008-01-01T06:00 | 8212 | 328 | -46.6 | -65.9 | 341 | 31 | |
| 2008-01-01T06:00 | 8233 | 327 | -46.6 | -65.1 | 342 | 31 | |
| 2008-01-01T06:00 | 8254 | 326 | -46.8 | -65.2 | 342 | 31 | |
| 2008-01-01T06:00 | 8275 | 325 | -46.9 | -65.3 | 343 | 32 | |
| 2008-01-01T06:00 | 8297 | 324 | -47.0 | -66.2 | 343 | 32 | |
| 2008-01-01T06:00 | 8321 | 323 | -47.2 | -66.4 | 343 | 32 | |
| 2008-01-01T06:00 | 8342 | 322 | -47.2 | -66.4 | 344 | 32 | |
| 2008-01-01T06:00 | 8363 | 321 | -47.3 | -66.5 | 344 | 32 | |
| 2008-01-01T06:00 | 8385 | 320 | -47.3 | -66.5 | 344 | 32 | |
| 2008-01-01T06:00 | 8407 | 319 | -47.4 | -66.6 | 344 | 32 | |
| 2008-01-01T06:00 | 8431 | 318 | -47.5 | -66.7 | 343 | 32 | |
| 2008-01-01T06:00 | 8453 | 317 | -47.6 | -66.7 | 343 | 32 | |
| 2008-01-01T06:00 | 8475 | 316 | -47.7 | -66.8 | 342 | 32 | |
| 2008-01-01T06:00 | 8497 | 315 | -47.9 | -67.0 | 342 | 32 | |
| 2008-01-01T06:00 | 8519 | 313 | -48.0 | -67.1 | 341 | 32 | |
| 2008-01-01T06:00 | 8543 | 312 | -48.2 | -67.2 | 341 | 32 | |
| 2008-01-01T06:00 | 8565 | 311 | -48.3 | -66.5 | 341 | 32 | |
| 2008-01-01T06:00 | 8590 | 310 | -48.3 | -67.3 | 342 | 32 | |
| 2008-01-01T06:00 | 8615 | 309 | -48.2 | -66.4 | 342 | 32 | |
| 2008-01-01T06:00 | 8637 | 308 | -48.2 | -66.4 | 343 | 32 | |
| 2008-01-01T06:00 | 8660 | 307 | -48.2 | -66.4 | 344 | 32 | |
| 2008-01-01T06:00 | 8685 | 306 | -48.4 | -66.6 | 344 | 32 | |
| 2008-01-01T06:00 | 8707 | 305 | -48.5 | -66.7 | 345 | 31 | |
| 2008-01-01T06:00 | 8731 | 304 | -48.6 | -66.8 | 345 | 31 | |
| 2008-01-01T06:00 | 8756 | 302 | -48.7 | -67.7 | 345 | 30 | |
| 2008-01-01T06:00 | 8779 | 301 | -48.6 | -66.8 | 345 | 29 | |
| 2008-01-01T06:00 | 8801 | 300 | -48.7 | -66.8 | 345 | 29 | |
| 2008-01-01T06:00 | 8824 | 299 | -48.8 | -67.7 | 345 | 29 | |
| 2008-01-01T06:00 | 8847 | 298 | -48.8 | -67.7 | 345 | 28 | |
| 2008-01-01T06:00 | 8870 | 297 | -48.9 | -67.8 | 346 | 28 | |
| 2008-01-01T06:00 | 8893 | 296 | -48.9 | -67.8 | 346 | 28 | |
| 2008-01-01T06:00 | 8915 | 295 | -49.0 | -67.9 | 346 | 29 | |
| 2008-01-01T06:00 | 8935 | 294 | -48.8 | -67.7 | 346 | 29 | |
| 2008-01-01T06:00 | 8958 | 293 | -48.8 | -67.7 | 347 | 29 | |
| 2008-01-01T06:00 | 8980 | 292 | -48.8 | -67.7 | 347 | 29 | |
| 2008-01-01T06:00 | 9002 | 291 | -48.8 | -67.7 | 346 | 29 | |
| 2008-01-01T06:00 | 9024 | 290 | -48.9 | -67.8 | 346 | 28 | |
| 2008-01-01T06:00 | 9045 | 289 | -49.1 | -68.0 | 345 | 28 | |
| 2008-01-01T06:00 | 9066 | 288 | -49.2 | -68.1 | 345 | 28 | |
| 2008-01-01T06:00 | 9086 | 288 | -49.3 | -68.2 | 344 | 28 | |
| 2008-01-01T06:00 | 9105 | 287 | -49.4 | -68.2 | 343 | 28 | |
| 2008-01-01T06:00 | 9125 | 286 | -49.5 | -68.3 | 343 | 28 | |
| 2008-01-01T06:00 | 9144 | 285 | -49.6 | -68.4 | 343 | 28 | |
| 2008-01-01T06:00 | 9163 | 284 | -49.6 | -68.4 | 344 | 28 | |
| 2008-01-01T06:00 | 9184 | 283 | -49.7 | 345 | 29 | ||
| 2008-01-01T06:00 | 9203 | 282 | -49.7 | 346 | 28 | ||
| 2008-01-01T06:00 | 9223 | 282 | -49.8 | -68.6 | 347 | 28 | |
| 2008-01-01T06:00 | 9243 | 281 | -49.7 | 348 | 28 | ||
| 2008-01-01T06:00 | 9260 | 280 | -49.4 | -68.2 | 349 | 28 | |
| 2008-01-01T06:00 | 9279 | 279 | -49.3 | -68.2 | 350 | 27 | |
| 2008-01-01T06:00 | 9297 | 278 | -49.4 | -68.2 | 351 | 27 | |
| 2008-01-01T06:00 | 9316 | 278 | -49.4 | -68.2 | 351 | 27 | |
| 2008-01-01T06:00 | 9334 | 277 | -49.4 | -68.2 | 351 | 26 | |
| 2008-01-01T06:00 | 9352 | 276 | -49.4 | -67.4 | 350 | 26 | |
| 2008-01-01T06:00 | 9370 | 275 | -49.5 | -67.5 | 350 | 25 | |
| 2008-01-01T06:00 | 9390 | 275 | -49.5 | -67.5 | 349 | 24 | |
| 2008-01-01T06:00 | 9409 | 274 | -49.5 | -67.5 | 349 | 23 | |
| 2008-01-01T06:00 | 9428 | 273 | -49.5 | -68.3 | 349 | 23 | |
| 2008-01-01T06:00 | 9448 | 272 | -49.5 | -68.3 | 349 | 22 | |
| 2008-01-01T06:00 | 9471 | 271 | -49.7 | -69.4 | 349 | 21 | |
| 2008-01-01T06:00 | 9491 | 270 | -49.8 | -69.5 | 349 | 21 | |
| 2008-01-01T06:00 | 9510 | 270 | -49.9 | -69.6 | 349 | 21 | |
| 2008-01-01T06:00 | 9530 | 269 | -50.0 | -69.7 | 350 | 20 | |
| 2008-01-01T06:00 | 9551 | 268 | -50.1 | -70.8 | 350 | 20 | |
| 2008-01-01T06:00 | 9570 | 267 | -50.0 | -70.7 | 350 | 20 | |
| 2008-01-01T06:00 | 9590 | 266 | -50.0 | -71.9 | 349 | 19 | |
| 2008-01-01T06:00 | 9611 | 265 | -49.8 | -71.7 | 349 | 19 | |
| 2008-01-01T06:00 | 9632 | 265 | -49.6 | -70.4 | 348 | 18 | |
| 2008-01-01T06:00 | 9652 | 264 | -49.4 | -70.2 | 347 | 18 | |
| 2008-01-01T06:00 | 9673 | 263 | -49.3 | -70.1 | 346 | 18 | |
| 2008-01-01T06:00 | 9694 | 262 | -49.4 | -70.2 | 345 | 19 | |
| 2008-01-01T06:00 | 9715 | 261 | -49.5 | -70.3 | 344 | 19 | |
| 2008-01-01T06:00 | 9736 | 260 | -49.7 | -70.4 | 343 | 19 | |
| 2008-01-01T06:00 | 9758 | 260 | -49.6 | -70.4 | 342 | 20 | |
| 2008-01-01T06:00 | 9779 | 259 | -49.7 | -70.4 | 341 | 20 | |
| 2008-01-01T06:00 | 9800 | 258 | -49.9 | -70.6 | 340 | 21 | |
| 2008-01-01T06:00 | 9822 | 257 | -50.0 | -70.7 | 340 | 21 | |
| 2008-01-01T06:00 | 9846 | 256 | -50.2 | -70.9 | 340 | 21 | |
| 2008-01-01T06:00 | 9868 | 255 | -50.3 | -70.9 | 340 | 22 | |
| 2008-01-01T06:00 | 9890 | 254 | -50.4 | -71.0 | 340 | 22 | |
| 2008-01-01T06:00 | 9916 | 253 | -50.5 | -71.1 | 340 | 23 | |
| 2008-01-01T06:00 | 9949 | 252 | -50.8 | -71.4 | 340 | 23 | |
| 2008-01-01T06:00 | 9978 | 251 | -51.0 | -71.5 | 341 | 24 | |
| 2008-01-01T06:00 | 10003 | 250 | -51.2 | -71.7 | 341 | 24 | |
| 2008-01-01T06:00 | 10029 | 249 | -51.3 | -71.8 | 342 | 25 | |
| 2008-01-01T06:00 | 10053 | 248 | -51.3 | -71.8 | 343 | 25 | |
| 2008-01-01T06:00 | 10079 | 247 | -51.1 | -71.6 | 344 | 24 | |
| 2008-01-01T06:00 | 10105 | 246 | -51.0 | -71.5 | 345 | 24 | |
| 2008-01-01T06:00 | 10131 | 245 | -51.0 | -71.5 | 345 | 24 | |
| 2008-01-01T06:00 | 10156 | 244 | -50.9 | -71.4 | 346 | 24 | |
| 2008-01-01T06:00 | 10181 | 243 | -50.8 | -71.4 | 347 | 24 | |
| 2008-01-01T06:00 | 10207 | 242 | -50.9 | -71.4 | 347 | 24 | |
| 2008-01-01T06:00 | 10234 | 241 | -51.0 | -71.5 | 348 | 24 | |
| 2008-01-01T06:00 | 10260 | 240 | -51.1 | -71.6 | 350 | 24 | |
| 2008-01-01T06:00 | 10286 | 239 | -51.1 | -71.6 | 351 | 24 | |
| 2008-01-01T06:00 | 10311 | 238 | -50.8 | -71.4 | 352 | 23 | |
| 2008-01-01T06:00 | 10335 | 237 | -50.7 | -71.3 | 353 | 22 | |
| 2008-01-01T06:00 | 10360 | 237 | -50.4 | -71.0 | 354 | 22 | |
| 2008-01-01T06:00 | 10386 | 236 | -50.3 | -70.9 | 355 | 21 | |
| 2008-01-01T06:00 | 10415 | 235 | -50.0 | -70.7 | 355 | 20 | |
| 2008-01-01T06:00 | 10445 | 234 | -50.0 | -71.9 | 355 | 19 | |
| 2008-01-01T06:00 | 10470 | 233 | -50.1 | -72.0 | 355 | 18 | |
| 2008-01-01T06:00 | 10495 | 232 | -50.0 | -71.9 | 355 | 17 | |
| 2008-01-01T06:00 | 10518 | 231 | -50.0 | -71.9 | 355 | 16 | |
| 2008-01-01T06:00 | 10540 | 230 | -49.9 | -71.8 | 355 | 15 | |
| 2008-01-01T06:00 | 10562 | 229 | -49.5 | -71.5 | 354 | 15 | |
| 2008-01-01T06:00 | 10583 | 229 | -49.5 | -71.5 | 352 | 14 | |
| 2008-01-01T06:00 | 10604 | 228 | -49.5 | -71.5 | 351 | 14 | |
| 2008-01-01T06:00 | 10624 | 227 | -49.4 | -71.4 | 350 | 14 | |
| 2008-01-01T06:00 | 10643 | 227 | -49.5 | -71.5 | 349 | 14 | |
| 2008-01-01T06:00 | 10664 | 226 | -49.3 | -71.3 | 348 | 15 | |
| 2008-01-01T06:00 | 10685 | 225 | -49.2 | -71.2 | 348 | 15 | |
| 2008-01-01T06:00 | 10705 | 224 | -49.3 | -71.3 | 348 | 15 | |
| 2008-01-01T06:00 | 10726 | 224 | -49.4 | -71.4 | 348 | 16 | |
| 2008-01-01T06:00 | 10746 | 223 | -49.5 | -73.0 | 347 | 16 | |
| 2008-01-01T06:00 | 10766 | 222 | -49.5 | -73.0 | 346 | 17 | |
| 2008-01-01T06:00 | 10786 | 222 | -49.6 | -73.0 | 345 | 17 | |
| 2008-01-01T06:00 | 10806 | 221 | -49.7 | -73.1 | 344 | 17 | |
| 2008-01-01T06:00 | 10827 | 220 | -49.8 | -73.2 | 342 | 18 | |
| 2008-01-01T06:00 | 10848 | 220 | -49.9 | -71.8 | 341 | 18 | |
| 2008-01-01T06:00 | 10869 | 219 | -50.1 | -72.0 | 340 | 18 | |
| 2008-01-01T06:00 | 10891 | 218 | -50.2 | -72.1 | 339 | 18 | |
| 2008-01-01T06:00 | 10920 | 217 | -50.5 | -72.3 | 338 | 18 | |
| 2008-01-01T06:00 | 10941 | 216 | -50.6 | -72.4 | 337 | 18 | |
| 2008-01-01T06:00 | 10960 | 216 | -50.7 | -73.9 | 336 | 18 | |
| 2008-01-01T06:00 | 10978 | 215 | -50.6 | -72.4 | 336 | 18 | |
| 2008-01-01T06:00 | 10999 | 215 | -50.6 | -72.4 | 337 | 18 | |
| 2008-01-01T06:00 | 11018 | 214 | -50.5 | -72.3 | 339 | 18 | |
| 2008-01-01T06:00 | 11037 | 213 | -50.5 | -72.3 | 340 | 18 | |
| 2008-01-01T06:00 | 11057 | 213 | -50.6 | -72.4 | 341 | 17 | |
| 2008-01-01T06:00 | 11077 | 212 | -50.5 | -72.3 | 342 | 17 | |
| 2008-01-01T06:00 | 11098 | 211 | -50.3 | -72.1 | 343 | 17 | |
| 2008-01-01T06:00 | 11119 | 211 | -50.2 | -73.5 | 344 | 16 | |
| 2008-01-01T06:00 | 11140 | 210 | -50.0 | -73.4 | 345 | 16 | |
| 2008-01-01T06:00 | 11161 | 209 | -49.8 | -73.2 | 346 | 16 | |
| 2008-01-01T06:00 | 11184 | 209 | -49.8 | -73.2 | 348 | 15 | |
| 2008-01-01T06:00 | 11206 | 208 | -49.7 | -75.0 | 349 | 15 | |
| 2008-01-01T06:00 | 11228 | 207 | -49.8 | -75.1 | 350 | 14 | |
| 2008-01-01T06:00 | 11251 | 206 | -50.0 | -75.2 | 351 | 14 | |
| 2008-01-01T06:00 | 11275 | 206 | -50.2 | -75.4 | 353 | 14 | |
| 2008-01-01T06:00 | 11299 | 205 | -50.2 | -73.5 | 354 | 13 | |
| 2008-01-01T06:00 | 11323 | 204 | -50.1 | -73.4 | 355 | 13 | |
| 2008-01-01T06:00 | 11345 | 203 | -50.1 | -73.4 | 356 | 13 | |
| 2008-01-01T06:00 | 11369 | 203 | -50.0 | -75.2 | 357 | 13 | |
| 2008-01-01T06:00 | 11392 | 202 | -50.1 | -75.3 | 358 | 13 | |
| 2008-01-01T06:00 | 11415 | 201 | -50.3 | -75.5 | 358 | 13 | |
| 2008-01-01T06:00 | 11439 | 201 | -50.3 | -75.5 | 358 | 13 | |
| 2008-01-01T06:00 | 11462 | 200 | -50.4 | -75.5 | 358 | 13 | |
| 2008-01-01T06:00 | 11486 | 199 | -50.6 | -75.7 | 357 | 14 | |
| 2008-01-01T06:00 | 11512 | 198 | -50.7 | -75.8 | 357 | 14 | |
| 2008-01-01T06:00 | 11538 | 198 | -50.9 | -75.9 | 356 | 14 | |
| 2008-01-01T06:00 | 11564 | 197 | -51.0 | -76.0 | 355 | 14 | |
| 2008-01-01T06:00 | 11589 | 196 | -51.2 | -74.3 | 354 | 15 | |
| 2008-01-01T06:00 | 11615 | 195 | -51.3 | -74.4 | 353 | 15 | |
| 2008-01-01T06:00 | 11639 | 194 | -51.3 | -73.0 | 351 | 15 | |
| 2008-01-01T06:00 | 11664 | 194 | -51.2 | -74.3 | 349 | 15 | |
| 2008-01-01T06:00 | 11690 | 193 | -51.2 | -74.3 | 348 | 16 | |
| 2008-01-01T06:00 | 11718 | 192 | -51.4 | -74.5 | 346 | 16 | |
| 2008-01-01T06:00 | 11742 | 191 | -51.5 | -74.6 | 345 | 16 | |
| 2008-01-01T06:00 | 11766 | 191 | -51.6 | -74.6 | 345 | 16 | |
| 2008-01-01T06:00 | 11790 | 190 | -51.4 | -74.5 | 344 | 17 | |
| 2008-01-01T06:00 | 11815 | 189 | -51.3 | -73.0 | 344 | 17 | |
| 2008-01-01T06:00 | 11840 | 189 | -51.5 | -74.6 | 343 | 17 | |
| 2008-01-01T06:00 | 11865 | 188 | -51.7 | -74.7 | 342 | 17 | |
| 2008-01-01T06:00 | 11889 | 187 | -51.8 | -74.8 | 341 | 18 | |
| 2008-01-01T06:00 | 11913 | 186 | -51.9 | -74.9 | 340 | 18 | |
| 2008-01-01T06:00 | 11943 | 186 | -52.0 | -75.0 | 338 | 18 | |
| 2008-01-01T06:00 | 11966 | 185 | -52.0 | -75.0 | 338 | 18 | |
| 2008-01-01T06:00 | 11989 | 184 | -52.2 | -75.1 | 337 | 18 | |
| 2008-01-01T06:00 | 12013 | 184 | -52.4 | -75.3 | 337 | 18 | |
| 2008-01-01T06:00 | 12037 | 183 | -52.6 | -75.5 | 337 | 18 | |
| 2008-01-01T06:00 | 12061 | 182 | -52.8 | -75.6 | 337 | 17 | |
| 2008-01-01T06:00 | 12083 | 182 | -53.0 | -75.8 | 336 | 17 | |
| 2008-01-01T06:00 | 12105 | 181 | -53.0 | -75.8 | 335 | 16 | |
| 2008-01-01T06:00 | 12128 | 180 | -52.9 | -75.7 | 333 | 16 | |
| 2008-01-01T06:00 | 12149 | 180 | -52.7 | -74.1 | 331 | 16 | |
| 2008-01-01T06:00 | 12170 | 179 | -52.7 | -75.5 | 330 | 15 | |
| 2008-01-01T06:00 | 12191 | 179 | -52.5 | -75.4 | 328 | 15 | |
| 2008-01-01T06:00 | 12213 | 178 | -52.4 | -75.3 | 327 | 14 | |
| 2008-01-01T06:00 | 12233 | 177 | -52.2 | -75.1 | 326 | 14 | |
| 2008-01-01T06:00 | 12255 | 177 | -52.1 | -75.1 | 326 | 13 | |
| 2008-01-01T06:00 | 12275 | 176 | -52.2 | -75.1 | 326 | 13 | |
| 2008-01-01T06:00 | 12296 | 176 | -51.8 | -74.8 | 327 | 13 | |
| 2008-01-01T06:00 | 12322 | 175 | -51.8 | -74.8 | 329 | 13 | |
| 2008-01-01T06:00 | 12349 | 174 | -51.5 | -74.6 | 331 | 14 | |
| 2008-01-01T06:00 | 12380 | 173 | -51.7 | -74.7 | 333 | 15 | |
| 2008-01-01T06:00 | 12404 | 173 | -51.5 | -74.6 | 335 | 16 | |
| 2008-01-01T06:00 | 12425 | 172 | -51.4 | -74.5 | 336 | 16 | |
| 2008-01-01T06:00 | 12443 | 172 | -51.3 | -74.4 | 337 | 16 | |
| 2008-01-01T06:00 | 12462 | 171 | -51.2 | -74.3 | 337 | 17 | |
| 2008-01-01T06:00 | 12481 | 171 | -51.1 | -74.2 | 336 | 17 | |
| 2008-01-01T06:00 | 12502 | 170 | -51.0 | -74.2 | 335 | 17 | |
| 2008-01-01T06:00 | 12523 | 170 | -51.0 | -74.2 | 334 | 17 | |
| 2008-01-01T06:00 | 12544 | 169 | -50.8 | -74.0 | 333 | 16 | |
| 2008-01-01T06:00 | 12565 | 169 | -50.9 | -74.1 | 333 | 16 | |
| 2008-01-01T06:00 | 12586 | 168 | -50.9 | -74.1 | 332 | 16 | |
| 2008-01-01T06:00 | 12607 | 167 | -50.9 | -74.1 | 332 | 15 | |
| 2008-01-01T06:00 | 12627 | 167 | -50.7 | -73.9 | 331 | 15 | |
| 2008-01-01T06:00 | 12649 | 166 | -50.7 | -73.9 | 330 | 15 | |
| 2008-01-01T06:00 | 12672 | 166 | -50.9 | -74.1 | 330 | 14 | |
| 2008-01-01T06:00 | 12695 | 165 | -51.1 | -74.2 | 329 | 14 | |
| 2008-01-01T06:00 | 12718 | 165 | -51.1 | -74.2 | 329 | 14 | |
| 2008-01-01T06:00 | 12740 | 164 | -51.0 | -74.2 | 330 | 14 | |
| 2008-01-01T06:00 | 12763 | 164 | -50.6 | -73.8 | 331 | 13 | |
| 2008-01-01T06:00 | 12787 | 163 | -50.5 | -73.8 | 332 | 13 | |
| 2008-01-01T06:00 | 12811 | 162 | -50.3 | -73.6 | 334 | 12 | |
| 2008-01-01T06:00 | 12836 | 162 | -50.2 | -73.5 | 335 | 11 | |
| 2008-01-01T06:00 | 12860 | 161 | -50.1 | -73.4 | 337 | 10 | |
| 2008-01-01T06:00 | 12885 | 161 | -49.8 | -73.2 | 339 | 9 | |
| 2008-01-01T06:00 | 12908 | 160 | -49.0 | -72.6 | 340 | 9 | |
| 2008-01-01T06:00 | 12932 | 159 | -48.7 | -72.3 | 342 | 8 | |
| 2008-01-01T06:00 | 12955 | 159 | -48.9 | -72.5 | 344 | 8 | |
| 2008-01-01T06:00 | 12978 | 158 | -48.9 | -72.5 | 344 | 8 | |
| 2008-01-01T06:00 | 13001 | 158 | -49.1 | -72.6 | 345 | 9 | |
| 2008-01-01T06:00 | 13025 | 157 | -49.2 | -72.7 | 346 | 9 | |
| 2008-01-01T06:00 | 13048 | 157 | -49.3 | -72.8 | 347 | 9 | |
| 2008-01-01T06:00 | 13073 | 156 | -49.4 | -72.9 | 348 | 9 | |
| 2008-01-01T06:00 | 13098 | 155 | -49.5 | -73.0 | 349 | 9 | |
| 2008-01-01T06:00 | 13120 | 155 | -49.5 | -73.0 | 350 | 9 | |
| 2008-01-01T06:00 | 13144 | 154 | -49.5 | -73.0 | 351 | 9 | |
| 2008-01-01T06:00 | 13167 | 154 | -49.4 | -71.4 | 352 | 9 | |
| 2008-01-01T06:00 | 13192 | 153 | -49.3 | -72.8 | 352 | 8 | |
| 2008-01-01T06:00 | 13217 | 153 | -49.4 | -72.9 | 352 | 8 | |
| 2008-01-01T06:00 | 13244 | 152 | -49.6 | -73.0 | 352 | 8 | |
| 2008-01-01T06:00 | 13269 | 151 | -49.7 | -73.1 | 351 | 8 | |
| 2008-01-01T06:00 | 13294 | 151 | -49.8 | -73.2 | 349 | 7 | |
| 2008-01-01T06:00 | 13317 | 150 | -50.1 | -73.4 | 347 | 8 | |
| 2008-01-01T06:00 | 13341 | 150 | -50.2 | -73.5 | 345 | 8 | |
| 2008-01-01T06:00 | 13366 | 149 | -50.4 | -73.7 | 342 | 8 | |
| 2008-01-01T06:00 | 13389 | 149 | -50.6 | -73.8 | 340 | 9 | |
| 2008-01-01T06:00 | 13412 | 148 | -50.6 | -73.8 | 338 | 10 | |
| 2008-01-01T06:00 | 13436 | 148 | -50.8 | -74.0 | 336 | 10 | |
| 2008-01-01T06:00 | 13459 | 147 | -50.8 | -74.0 | 334 | 11 | |
| 2008-01-01T06:00 | 13482 | 146 | -50.9 | -72.6 | 333 | 11 | |
| 2008-01-01T06:00 | 13507 | 146 | -51.1 | -74.2 | 331 | 10 | |
| 2008-01-01T06:00 | 13528 | 145 | -51.2 | -74.3 | 329 | 10 | |
| 2008-01-01T06:00 | 13551 | 145 | -51.4 | -74.5 | 328 | 10 |
Only the first 2000 rows were shown. To view the complete dataset, download it as tab-delimited text. You can still view the full matrix in your browser, but be aware that this may crash the browser due to the huge size.
